<?xml version="1.0" encoding="UTF-8" standalone="no" ?>
<gpx xmlns="http://www.topografix.com/GPX/1/1" creator="www.cicloide.com" version="1.1" xmlns:xsi="http://www.w3.org/2001/XMLSchema-instance" xsi:schemaLocation="http://www.topografix.com/GPX/1/1 http://www.topografix.com/GPX/1/1/gpx.xsd">
  <trk>
    <name>www.cicloide.com 12658</name>
    <desc>www.cicloide.com 12658</desc>
    <trkseg>
      <trkpt lat="41.605756900" lon="2.540275700">
        <ele>118.40</ele>
        <time>2013-03-17T09:12:52Z</time>
      </trkpt>
      <trkpt lat="41.605763500" lon="2.540291000">
        <ele>118.40</ele>
        <time>2013-03-17T09:13:05Z</time>
      </trkpt>
      <trkpt lat="41.605763300" lon="2.540301900">
        <ele>118.40</ele>
        <time>2013-03-17T09:13:10Z</time>
      </trkpt>
      <trkpt lat="41.605760200" lon="2.540312400">
        <ele>118.40</ele>
        <time>2013-03-17T09:13:18Z</time>
      </trkpt>
      <trkpt lat="41.605742900" lon="2.540314700">
        <ele>118.40</ele>
        <time>2013-03-17T09:13:36Z</time>
      </trkpt>
      <trkpt lat="41.605730800" lon="2.540335200">
        <ele>118.40</ele>
        <time>2013-03-17T09:13:43Z</time>
      </trkpt>
      <trkpt lat="41.605618100" lon="2.540287200">
        <ele>118.40</ele>
        <time>2013-03-17T09:13:50Z</time>
      </trkpt>
      <trkpt lat="41.605410800" lon="2.540278100">
        <ele>116.90</ele>
        <time>2013-03-17T09:13:59Z</time>
      </trkpt>
      <trkpt lat="41.605237700" lon="2.540264000">
        <ele>115.50</ele>
        <time>2013-03-17T09:14:06Z</time>
      </trkpt>
      <trkpt lat="41.605060200" lon="2.540240200">
        <ele>114.10</ele>
        <time>2013-03-17T09:14:12Z</time>
      </trkpt>
      <trkpt lat="41.604853100" lon="2.540248500">
        <ele>112.10</ele>
        <time>2013-03-17T09:14:21Z</time>
      </trkpt>
      <trkpt lat="41.604806400" lon="2.540237200">
        <ele>112.10</ele>
        <time>2013-03-17T09:14:23Z</time>
      </trkpt>
      <trkpt lat="41.604778300" lon="2.540267200">
        <ele>111.70</ele>
        <time>2013-03-17T09:14:28Z</time>
      </trkpt>
      <trkpt lat="41.604858900" lon="2.540246700">
        <ele>112.10</ele>
        <time>2013-03-17T09:14:35Z</time>
      </trkpt>
      <trkpt lat="41.604926000" lon="2.540249700">
        <ele>112.10</ele>
        <time>2013-03-17T09:14:39Z</time>
      </trkpt>
      <trkpt lat="41.605077800" lon="2.540233000">
        <ele>113.10</ele>
        <time>2013-03-17T09:14:49Z</time>
      </trkpt>
      <trkpt lat="41.605216800" lon="2.540253700">
        <ele>113.60</ele>
        <time>2013-03-17T09:14:58Z</time>
      </trkpt>
      <trkpt lat="41.605351900" lon="2.540256700">
        <ele>114.10</ele>
        <time>2013-03-17T09:15:06Z</time>
      </trkpt>
      <trkpt lat="41.605493800" lon="2.540263100">
        <ele>114.50</ele>
        <time>2013-03-17T09:15:15Z</time>
      </trkpt>
      <trkpt lat="41.605587400" lon="2.540274600">
        <ele>115.00</ele>
        <time>2013-03-17T09:15:22Z</time>
      </trkpt>
      <trkpt lat="41.605581700" lon="2.540315100">
        <ele>114.50</ele>
        <time>2013-03-17T09:15:26Z</time>
      </trkpt>
      <trkpt lat="41.605438100" lon="2.540268300">
        <ele>114.10</ele>
        <time>2013-03-17T09:15:34Z</time>
      </trkpt>
      <trkpt lat="41.605320800" lon="2.540261500">
        <ele>114.10</ele>
        <time>2013-03-17T09:15:41Z</time>
      </trkpt>
      <trkpt lat="41.605158300" lon="2.540226100">
        <ele>113.60</ele>
        <time>2013-03-17T09:15:50Z</time>
      </trkpt>
      <trkpt lat="41.604918700" lon="2.540227300">
        <ele>112.10</ele>
        <time>2013-03-17T09:15:59Z</time>
      </trkpt>
      <trkpt lat="41.604841100" lon="2.540199300">
        <ele>112.10</ele>
        <time>2013-03-17T09:16:04Z</time>
      </trkpt>
      <trkpt lat="41.604783600" lon="2.540212000">
        <ele>111.70</ele>
        <time>2013-03-17T09:16:07Z</time>
      </trkpt>
      <trkpt lat="41.604771600" lon="2.540231400">
        <ele>111.70</ele>
        <time>2013-03-17T09:16:09Z</time>
      </trkpt>
      <trkpt lat="41.604828400" lon="2.540224700">
        <ele>111.70</ele>
        <time>2013-03-17T09:16:16Z</time>
      </trkpt>
      <trkpt lat="41.604973500" lon="2.540225100">
        <ele>112.60</ele>
        <time>2013-03-17T09:16:25Z</time>
      </trkpt>
      <trkpt lat="41.605103900" lon="2.540232500">
        <ele>113.10</ele>
        <time>2013-03-17T09:16:35Z</time>
      </trkpt>
      <trkpt lat="41.605247200" lon="2.540248000">
        <ele>113.60</ele>
        <time>2013-03-17T09:16:44Z</time>
      </trkpt>
      <trkpt lat="41.605381400" lon="2.540274400">
        <ele>114.10</ele>
        <time>2013-03-17T09:16:51Z</time>
      </trkpt>
      <trkpt lat="41.605543400" lon="2.540319000">
        <ele>114.10</ele>
        <time>2013-03-17T09:17:00Z</time>
      </trkpt>
      <trkpt lat="41.605727900" lon="2.540363900">
        <ele>115.00</ele>
        <time>2013-03-17T09:17:12Z</time>
      </trkpt>
      <trkpt lat="41.605758900" lon="2.540350100">
        <ele>115.00</ele>
        <time>2013-03-17T09:17:19Z</time>
      </trkpt>
      <trkpt lat="41.605758300" lon="2.540325200">
        <ele>115.00</ele>
        <time>2013-03-17T09:17:26Z</time>
      </trkpt>
      <trkpt lat="41.605773000" lon="2.540293700">
        <ele>114.50</ele>
        <time>2013-03-17T09:17:43Z</time>
      </trkpt>
      <trkpt lat="41.605763700" lon="2.540329900">
        <ele>114.50</ele>
        <time>2013-03-17T09:18:11Z</time>
      </trkpt>
      <trkpt lat="41.605751700" lon="2.540305000">
        <ele>114.50</ele>
        <time>2013-03-17T09:18:36Z</time>
      </trkpt>
      <trkpt lat="41.605748000" lon="2.540306000">
        <ele>114.50</ele>
        <time>2013-03-17T09:18:55Z</time>
      </trkpt>
      <trkpt lat="41.605758400" lon="2.540358400">
        <ele>114.50</ele>
        <time>2013-03-17T09:19:23Z</time>
      </trkpt>
      <trkpt lat="41.605768300" lon="2.540319200">
        <ele>114.10</ele>
        <time>2013-03-17T09:19:50Z</time>
      </trkpt>
      <trkpt lat="41.605782900" lon="2.540341800">
        <ele>114.50</ele>
        <time>2013-03-17T09:20:17Z</time>
      </trkpt>
      <trkpt lat="41.605777100" lon="2.540344400">
        <ele>114.10</ele>
        <time>2013-03-17T09:20:39Z</time>
      </trkpt>
      <trkpt lat="41.605777100" lon="2.540304500">
        <ele>114.10</ele>
        <time>2013-03-17T09:21:04Z</time>
      </trkpt>
      <trkpt lat="41.605759200" lon="2.540342000">
        <ele>114.10</ele>
        <time>2013-03-17T09:21:28Z</time>
      </trkpt>
      <trkpt lat="41.605792300" lon="2.540326900">
        <ele>114.50</ele>
        <time>2013-03-17T09:21:49Z</time>
      </trkpt>
      <trkpt lat="41.605774300" lon="2.540327200">
        <ele>114.10</ele>
        <time>2013-03-17T09:22:08Z</time>
      </trkpt>
      <trkpt lat="41.605765200" lon="2.540312800">
        <ele>114.50</ele>
        <time>2013-03-17T09:22:34Z</time>
      </trkpt>
      <trkpt lat="41.605764100" lon="2.540322500">
        <ele>114.50</ele>
        <time>2013-03-17T09:23:00Z</time>
      </trkpt>
      <trkpt lat="41.605772500" lon="2.540340500">
        <ele>114.50</ele>
        <time>2013-03-17T09:23:25Z</time>
      </trkpt>
      <trkpt lat="41.605802000" lon="2.540321300">
        <ele>114.50</ele>
        <time>2013-03-17T09:23:49Z</time>
      </trkpt>
      <trkpt lat="41.605779900" lon="2.540317900">
        <ele>114.50</ele>
        <time>2013-03-17T09:24:06Z</time>
      </trkpt>
      <trkpt lat="41.605764900" lon="2.540358500">
        <ele>114.50</ele>
        <time>2013-03-17T09:24:29Z</time>
      </trkpt>
      <trkpt lat="41.605744200" lon="2.540333300">
        <ele>114.50</ele>
        <time>2013-03-17T09:24:57Z</time>
      </trkpt>
      <trkpt lat="41.605740400" lon="2.540310200">
        <ele>114.50</ele>
        <time>2013-03-17T09:25:18Z</time>
      </trkpt>
      <trkpt lat="41.605731000" lon="2.540328800">
        <ele>114.50</ele>
        <time>2013-03-17T09:25:23Z</time>
      </trkpt>
      <trkpt lat="41.605721700" lon="2.540329700">
        <ele>114.10</ele>
        <time>2013-03-17T09:25:25Z</time>
      </trkpt>
      <trkpt lat="41.605582400" lon="2.540282700">
        <ele>114.10</ele>
        <time>2013-03-17T09:25:32Z</time>
      </trkpt>
      <trkpt lat="41.605557900" lon="2.540279000">
        <ele>114.10</ele>
        <time>2013-03-17T09:25:32Z</time>
      </trkpt>
      <trkpt lat="41.605317300" lon="2.540250300">
        <ele>113.10</ele>
        <time>2013-03-17T09:25:42Z</time>
      </trkpt>
      <trkpt lat="41.604982200" lon="2.540217700">
        <ele>111.20</ele>
        <time>2013-03-17T09:25:53Z</time>
      </trkpt>
      <trkpt lat="41.604800200" lon="2.540243600">
        <ele>110.70</ele>
        <time>2013-03-17T09:26:00Z</time>
      </trkpt>
      <trkpt lat="41.604741400" lon="2.540362500">
        <ele>110.20</ele>
        <time>2013-03-17T09:26:05Z</time>
      </trkpt>
      <trkpt lat="41.604645000" lon="2.540578500">
        <ele>109.20</ele>
        <time>2013-03-17T09:26:12Z</time>
      </trkpt>
      <trkpt lat="41.604655900" lon="2.540750800">
        <ele>109.70</ele>
        <time>2013-03-17T09:26:17Z</time>
      </trkpt>
      <trkpt lat="41.604716200" lon="2.540999000">
        <ele>111.20</ele>
        <time>2013-03-17T09:26:24Z</time>
      </trkpt>
      <trkpt lat="41.604755100" lon="2.541173700">
        <ele>112.10</ele>
        <time>2013-03-17T09:26:31Z</time>
      </trkpt>
      <trkpt lat="41.604819300" lon="2.541275200">
        <ele>113.10</ele>
        <time>2013-03-17T09:26:36Z</time>
      </trkpt>
      <trkpt lat="41.604878600" lon="2.541432700">
        <ele>113.60</ele>
        <time>2013-03-17T09:26:43Z</time>
      </trkpt>
      <trkpt lat="41.604917900" lon="2.541584000">
        <ele>114.50</ele>
        <time>2013-03-17T09:26:50Z</time>
      </trkpt>
      <trkpt lat="41.604972000" lon="2.541823500">
        <ele>116.00</ele>
        <time>2013-03-17T09:27:01Z</time>
      </trkpt>
      <trkpt lat="41.605002200" lon="2.542045800">
        <ele>117.40</ele>
        <time>2013-03-17T09:27:11Z</time>
      </trkpt>
      <trkpt lat="41.605005800" lon="2.542063900">
        <ele>117.90</ele>
        <time>2013-03-17T09:27:11Z</time>
      </trkpt>
      <trkpt lat="41.604974000" lon="2.542174200">
        <ele>118.90</ele>
        <time>2013-03-17T09:27:20Z</time>
      </trkpt>
      <trkpt lat="41.604909500" lon="2.542348000">
        <ele>117.90</ele>
        <time>2013-03-17T09:27:25Z</time>
      </trkpt>
      <trkpt lat="41.604695500" lon="2.542502700">
        <ele>116.50</ele>
        <time>2013-03-17T09:27:30Z</time>
      </trkpt>
      <trkpt lat="41.604412700" lon="2.542437500">
        <ele>115.00</ele>
        <time>2013-03-17T09:27:37Z</time>
      </trkpt>
      <trkpt lat="41.604307000" lon="2.542489600">
        <ele>115.00</ele>
        <time>2013-03-17T09:27:39Z</time>
      </trkpt>
      <trkpt lat="41.604168000" lon="2.542554900">
        <ele>114.50</ele>
        <time>2013-03-17T09:27:44Z</time>
      </trkpt>
      <trkpt lat="41.604144500" lon="2.542567400">
        <ele>114.50</ele>
        <time>2013-03-17T09:27:46Z</time>
      </trkpt>
      <trkpt lat="41.603982700" lon="2.542651100">
        <ele>115.00</ele>
        <time>2013-03-17T09:27:53Z</time>
      </trkpt>
      <trkpt lat="41.603826800" lon="2.542727000">
        <ele>115.50</ele>
        <time>2013-03-17T09:28:00Z</time>
      </trkpt>
      <trkpt lat="41.603708800" lon="2.542814400">
        <ele>115.50</ele>
        <time>2013-03-17T09:28:05Z</time>
      </trkpt>
      <trkpt lat="41.603580200" lon="2.542896100">
        <ele>115.00</ele>
        <time>2013-03-17T09:28:12Z</time>
      </trkpt>
      <trkpt lat="41.603408500" lon="2.543090700">
        <ele>113.60</ele>
        <time>2013-03-17T09:28:17Z</time>
      </trkpt>
      <trkpt lat="41.603339500" lon="2.543230100">
        <ele>112.60</ele>
        <time>2013-03-17T09:28:24Z</time>
      </trkpt>
      <trkpt lat="41.603280800" lon="2.543190500">
        <ele>112.10</ele>
        <time>2013-03-17T09:28:30Z</time>
      </trkpt>
      <trkpt lat="41.603273500" lon="2.543174500">
        <ele>111.70</ele>
        <time>2013-03-17T09:28:31Z</time>
      </trkpt>
      <trkpt lat="41.603164800" lon="2.543071500">
        <ele>110.20</ele>
        <time>2013-03-17T09:28:38Z</time>
      </trkpt>
      <trkpt lat="41.603076900" lon="2.542991700">
        <ele>109.70</ele>
        <time>2013-03-17T09:28:40Z</time>
      </trkpt>
      <trkpt lat="41.602909800" lon="2.542845600">
        <ele>108.30</ele>
        <time>2013-03-17T09:28:45Z</time>
      </trkpt>
      <trkpt lat="41.602814400" lon="2.542734000">
        <ele>106.80</ele>
        <time>2013-03-17T09:28:49Z</time>
      </trkpt>
      <trkpt lat="41.602741700" lon="2.542597600">
        <ele>105.40</ele>
        <time>2013-03-17T09:28:52Z</time>
      </trkpt>
      <trkpt lat="41.602649400" lon="2.542251700">
        <ele>102.50</ele>
        <time>2013-03-17T09:28:59Z</time>
      </trkpt>
      <trkpt lat="41.602645700" lon="2.542194800">
        <ele>102.00</ele>
        <time>2013-03-17T09:29:01Z</time>
      </trkpt>
      <trkpt lat="41.602594600" lon="2.542250100">
        <ele>101.10</ele>
        <time>2013-03-17T09:29:08Z</time>
      </trkpt>
      <trkpt lat="41.602587600" lon="2.542289800">
        <ele>101.10</ele>
        <time>2013-03-17T09:29:08Z</time>
      </trkpt>
      <trkpt lat="41.602551800" lon="2.542439200">
        <ele>100.60</ele>
        <time>2013-03-17T09:29:11Z</time>
      </trkpt>
      <trkpt lat="41.602406200" lon="2.542708600">
        <ele>100.10</ele>
        <time>2013-03-17T09:29:18Z</time>
      </trkpt>
      <trkpt lat="41.602230200" lon="2.542922000">
        <ele>100.10</ele>
        <time>2013-03-17T09:29:27Z</time>
      </trkpt>
      <trkpt lat="41.602057100" lon="2.543126700">
        <ele>99.60</ele>
        <time>2013-03-17T09:29:34Z</time>
      </trkpt>
      <trkpt lat="41.601876500" lon="2.543317800">
        <ele>101.10</ele>
        <time>2013-03-17T09:29:43Z</time>
      </trkpt>
      <trkpt lat="41.601684900" lon="2.543472400">
        <ele>102.50</ele>
        <time>2013-03-17T09:29:53Z</time>
      </trkpt>
      <trkpt lat="41.601492900" lon="2.543594500">
        <ele>104.00</ele>
        <time>2013-03-17T09:30:04Z</time>
      </trkpt>
      <trkpt lat="41.601359700" lon="2.543788100">
        <ele>105.40</ele>
        <time>2013-03-17T09:30:12Z</time>
      </trkpt>
      <trkpt lat="41.601236400" lon="2.544026800">
        <ele>104.90</ele>
        <time>2013-03-17T09:30:21Z</time>
      </trkpt>
      <trkpt lat="41.601157800" lon="2.544211400">
        <ele>103.50</ele>
        <time>2013-03-17T09:30:28Z</time>
      </trkpt>
      <trkpt lat="41.601229100" lon="2.544370300">
        <ele>104.40</ele>
        <time>2013-03-17T09:30:33Z</time>
      </trkpt>
      <trkpt lat="41.601333300" lon="2.544541400">
        <ele>105.90</ele>
        <time>2013-03-17T09:30:42Z</time>
      </trkpt>
      <trkpt lat="41.601435400" lon="2.544688200">
        <ele>106.80</ele>
        <time>2013-03-17T09:30:51Z</time>
      </trkpt>
      <trkpt lat="41.601527900" lon="2.544827200">
        <ele>108.30</ele>
        <time>2013-03-17T09:30:59Z</time>
      </trkpt>
      <trkpt lat="41.601656900" lon="2.544985700">
        <ele>109.70</ele>
        <time>2013-03-17T09:31:08Z</time>
      </trkpt>
      <trkpt lat="41.601772300" lon="2.545150500">
        <ele>110.70</ele>
        <time>2013-03-17T09:31:17Z</time>
      </trkpt>
      <trkpt lat="41.601918600" lon="2.545357700">
        <ele>113.10</ele>
        <time>2013-03-17T09:31:29Z</time>
      </trkpt>
      <trkpt lat="41.602053100" lon="2.545522000">
        <ele>114.50</ele>
        <time>2013-03-17T09:31:38Z</time>
      </trkpt>
      <trkpt lat="41.602088900" lon="2.545575300">
        <ele>115.00</ele>
        <time>2013-03-17T09:31:41Z</time>
      </trkpt>
      <trkpt lat="41.602122200" lon="2.545723600">
        <ele>116.50</ele>
        <time>2013-03-17T09:31:50Z</time>
      </trkpt>
      <trkpt lat="41.602108700" lon="2.545773200">
        <ele>116.90</ele>
        <time>2013-03-17T09:31:53Z</time>
      </trkpt>
      <trkpt lat="41.602056800" lon="2.545813800">
        <ele>117.90</ele>
        <time>2013-03-17T09:31:57Z</time>
      </trkpt>
      <trkpt lat="41.602027800" lon="2.545819100">
        <ele>117.90</ele>
        <time>2013-03-17T09:31:59Z</time>
      </trkpt>
      <trkpt lat="41.601881000" lon="2.545845800">
        <ele>119.30</ele>
        <time>2013-03-17T09:32:09Z</time>
      </trkpt>
      <trkpt lat="41.601765900" lon="2.545877000">
        <ele>120.30</ele>
        <time>2013-03-17T09:32:16Z</time>
      </trkpt>
      <trkpt lat="41.601623800" lon="2.545915100">
        <ele>121.70</ele>
        <time>2013-03-17T09:32:23Z</time>
      </trkpt>
      <trkpt lat="41.601462900" lon="2.545948400">
        <ele>123.20</ele>
        <time>2013-03-17T09:32:32Z</time>
      </trkpt>
      <trkpt lat="41.601260900" lon="2.546035600">
        <ele>125.10</ele>
        <time>2013-03-17T09:32:42Z</time>
      </trkpt>
      <trkpt lat="41.601151800" lon="2.546118100">
        <ele>127.00</ele>
        <time>2013-03-17T09:32:51Z</time>
      </trkpt>
      <trkpt lat="41.601058100" lon="2.546184900">
        <ele>128.00</ele>
        <time>2013-03-17T09:32:58Z</time>
      </trkpt>
      <trkpt lat="41.601041800" lon="2.546194500">
        <ele>128.50</ele>
        <time>2013-03-17T09:32:59Z</time>
      </trkpt>
      <trkpt lat="41.600995900" lon="2.546250200">
        <ele>129.40</ele>
        <time>2013-03-17T09:33:03Z</time>
      </trkpt>
      <trkpt lat="41.600879900" lon="2.546349500">
        <ele>130.90</ele>
        <time>2013-03-17T09:33:12Z</time>
      </trkpt>
      <trkpt lat="41.600790900" lon="2.546408200">
        <ele>132.30</ele>
        <time>2013-03-17T09:33:17Z</time>
      </trkpt>
      <trkpt lat="41.600715700" lon="2.546449800">
        <ele>133.30</ele>
        <time>2013-03-17T09:33:22Z</time>
      </trkpt>
      <trkpt lat="41.600687900" lon="2.546461200">
        <ele>133.80</ele>
        <time>2013-03-17T09:33:24Z</time>
      </trkpt>
      <trkpt lat="41.600534700" lon="2.546458300">
        <ele>135.20</ele>
        <time>2013-03-17T09:33:34Z</time>
      </trkpt>
      <trkpt lat="41.600474500" lon="2.546421300">
        <ele>135.70</ele>
        <time>2013-03-17T09:33:38Z</time>
      </trkpt>
      <trkpt lat="41.600324800" lon="2.546304300">
        <ele>137.60</ele>
        <time>2013-03-17T09:33:48Z</time>
      </trkpt>
      <trkpt lat="41.600193000" lon="2.546190100">
        <ele>138.60</ele>
        <time>2013-03-17T09:33:55Z</time>
      </trkpt>
      <trkpt lat="41.600134500" lon="2.546164500">
        <ele>139.10</ele>
        <time>2013-03-17T09:33:59Z</time>
      </trkpt>
      <trkpt lat="41.600088200" lon="2.546258100">
        <ele>140.00</ele>
        <time>2013-03-17T09:34:04Z</time>
      </trkpt>
      <trkpt lat="41.600096600" lon="2.546277900">
        <ele>140.50</ele>
        <time>2013-03-17T09:34:06Z</time>
      </trkpt>
      <trkpt lat="41.600200600" lon="2.546427400">
        <ele>141.90</ele>
        <time>2013-03-17T09:34:14Z</time>
      </trkpt>
      <trkpt lat="41.600313900" lon="2.546593100">
        <ele>142.90</ele>
        <time>2013-03-17T09:34:23Z</time>
      </trkpt>
      <trkpt lat="41.600472600" lon="2.546731000">
        <ele>143.90</ele>
        <time>2013-03-17T09:34:34Z</time>
      </trkpt>
      <trkpt lat="41.600649500" lon="2.546788700">
        <ele>145.30</ele>
        <time>2013-03-17T09:34:44Z</time>
      </trkpt>
      <trkpt lat="41.600819800" lon="2.546826200">
        <ele>146.70</ele>
        <time>2013-03-17T09:34:53Z</time>
      </trkpt>
      <trkpt lat="41.601003300" lon="2.546919200">
        <ele>148.20</ele>
        <time>2013-03-17T09:35:03Z</time>
      </trkpt>
      <trkpt lat="41.601144500" lon="2.546988400">
        <ele>149.60</ele>
        <time>2013-03-17T09:35:12Z</time>
      </trkpt>
      <trkpt lat="41.601273800" lon="2.547014400">
        <ele>151.10</ele>
        <time>2013-03-17T09:35:19Z</time>
      </trkpt>
      <trkpt lat="41.601419100" lon="2.547011900">
        <ele>152.00</ele>
        <time>2013-03-17T09:35:29Z</time>
      </trkpt>
      <trkpt lat="41.601565100" lon="2.547026800">
        <ele>153.00</ele>
        <time>2013-03-17T09:35:36Z</time>
      </trkpt>
      <trkpt lat="41.601739800" lon="2.547020900">
        <ele>153.90</ele>
        <time>2013-03-17T09:35:45Z</time>
      </trkpt>
      <trkpt lat="41.601890000" lon="2.546976400">
        <ele>155.40</ele>
        <time>2013-03-17T09:35:54Z</time>
      </trkpt>
      <trkpt lat="41.602025200" lon="2.546965500">
        <ele>156.80</ele>
        <time>2013-03-17T09:36:01Z</time>
      </trkpt>
      <trkpt lat="41.602092500" lon="2.547061100">
        <ele>158.30</ele>
        <time>2013-03-17T09:36:08Z</time>
      </trkpt>
      <trkpt lat="41.602190600" lon="2.547223000">
        <ele>159.70</ele>
        <time>2013-03-17T09:36:16Z</time>
      </trkpt>
      <trkpt lat="41.602307000" lon="2.547362300">
        <ele>161.60</ele>
        <time>2013-03-17T09:36:25Z</time>
      </trkpt>
      <trkpt lat="41.602432200" lon="2.547497900">
        <ele>162.60</ele>
        <time>2013-03-17T09:36:34Z</time>
      </trkpt>
      <trkpt lat="41.602580000" lon="2.547654000">
        <ele>163.10</ele>
        <time>2013-03-17T09:36:44Z</time>
      </trkpt>
      <trkpt lat="41.602744300" lon="2.547802900">
        <ele>163.60</ele>
        <time>2013-03-17T09:36:53Z</time>
      </trkpt>
      <trkpt lat="41.602913700" lon="2.547947700">
        <ele>164.00</ele>
        <time>2013-03-17T09:37:02Z</time>
      </trkpt>
      <trkpt lat="41.603086700" lon="2.548066000">
        <ele>165.00</ele>
        <time>2013-03-17T09:37:12Z</time>
      </trkpt>
      <trkpt lat="41.603123900" lon="2.548086300">
        <ele>165.50</ele>
        <time>2013-03-17T09:37:14Z</time>
      </trkpt>
      <trkpt lat="41.603196200" lon="2.548131400">
        <ele>166.40</ele>
        <time>2013-03-17T09:37:19Z</time>
      </trkpt>
      <trkpt lat="41.603251500" lon="2.548156200">
        <ele>166.90</ele>
        <time>2013-03-17T09:37:21Z</time>
      </trkpt>
      <trkpt lat="41.603286700" lon="2.548261800">
        <ele>167.90</ele>
        <time>2013-03-17T09:37:28Z</time>
      </trkpt>
      <trkpt lat="41.603257400" lon="2.548249100">
        <ele>168.40</ele>
        <time>2013-03-17T09:37:31Z</time>
      </trkpt>
      <trkpt lat="41.603105000" lon="2.548203100">
        <ele>169.30</ele>
        <time>2013-03-17T09:37:40Z</time>
      </trkpt>
      <trkpt lat="41.602937900" lon="2.548135400">
        <ele>170.30</ele>
        <time>2013-03-17T09:37:49Z</time>
      </trkpt>
      <trkpt lat="41.602829400" lon="2.548166000">
        <ele>171.20</ele>
        <time>2013-03-17T09:37:57Z</time>
      </trkpt>
      <trkpt lat="41.602837700" lon="2.548331200">
        <ele>172.20</ele>
        <time>2013-03-17T09:38:04Z</time>
      </trkpt>
      <trkpt lat="41.602876300" lon="2.548498600">
        <ele>174.60</ele>
        <time>2013-03-17T09:38:11Z</time>
      </trkpt>
      <trkpt lat="41.602895000" lon="2.548691200">
        <ele>175.60</ele>
        <time>2013-03-17T09:38:20Z</time>
      </trkpt>
      <trkpt lat="41.602885200" lon="2.548927800">
        <ele>176.10</ele>
        <time>2013-03-17T09:38:29Z</time>
      </trkpt>
      <trkpt lat="41.602943800" lon="2.549158300">
        <ele>177.00</ele>
        <time>2013-03-17T09:38:37Z</time>
      </trkpt>
      <trkpt lat="41.603016300" lon="2.549384100">
        <ele>178.00</ele>
        <time>2013-03-17T09:38:46Z</time>
      </trkpt>
      <trkpt lat="41.603037400" lon="2.549634200">
        <ele>179.40</ele>
        <time>2013-03-17T09:38:55Z</time>
      </trkpt>
      <trkpt lat="41.603061300" lon="2.549793800">
        <ele>179.90</ele>
        <time>2013-03-17T09:39:02Z</time>
      </trkpt>
      <trkpt lat="41.603115600" lon="2.549935900">
        <ele>180.90</ele>
        <time>2013-03-17T09:39:07Z</time>
      </trkpt>
      <trkpt lat="41.603187700" lon="2.550196900">
        <ele>181.80</ele>
        <time>2013-03-17T09:39:18Z</time>
      </trkpt>
      <trkpt lat="41.603221800" lon="2.550462300">
        <ele>183.30</ele>
        <time>2013-03-17T09:39:28Z</time>
      </trkpt>
      <trkpt lat="41.603275700" lon="2.550674100">
        <ele>184.70</ele>
        <time>2013-03-17T09:39:35Z</time>
      </trkpt>
      <trkpt lat="41.603320500" lon="2.550890000">
        <ele>186.10</ele>
        <time>2013-03-17T09:39:44Z</time>
      </trkpt>
      <trkpt lat="41.603381300" lon="2.551123800">
        <ele>186.60</ele>
        <time>2013-03-17T09:39:52Z</time>
      </trkpt>
      <trkpt lat="41.603482900" lon="2.551350200">
        <ele>188.60</ele>
        <time>2013-03-17T09:40:03Z</time>
      </trkpt>
      <trkpt lat="41.603474900" lon="2.551529000">
        <ele>189.50</ele>
        <time>2013-03-17T09:40:10Z</time>
      </trkpt>
      <trkpt lat="41.603378800" lon="2.551714200">
        <ele>189.50</ele>
        <time>2013-03-17T09:40:17Z</time>
      </trkpt>
      <trkpt lat="41.603198500" lon="2.551866300">
        <ele>190.00</ele>
        <time>2013-03-17T09:40:25Z</time>
      </trkpt>
      <trkpt lat="41.603046700" lon="2.551984700">
        <ele>191.00</ele>
        <time>2013-03-17T09:40:34Z</time>
      </trkpt>
      <trkpt lat="41.602907000" lon="2.551945000">
        <ele>192.90</ele>
        <time>2013-03-17T09:40:41Z</time>
      </trkpt>
      <trkpt lat="41.602784200" lon="2.551850100">
        <ele>194.30</ele>
        <time>2013-03-17T09:40:50Z</time>
      </trkpt>
      <trkpt lat="41.602718500" lon="2.551861900">
        <ele>195.30</ele>
        <time>2013-03-17T09:40:53Z</time>
      </trkpt>
      <trkpt lat="41.602615700" lon="2.551983200">
        <ele>197.20</ele>
        <time>2013-03-17T09:41:02Z</time>
      </trkpt>
      <trkpt lat="41.602551500" lon="2.552128300">
        <ele>198.60</ele>
        <time>2013-03-17T09:41:09Z</time>
      </trkpt>
      <trkpt lat="41.602460000" lon="2.552188300">
        <ele>200.60</ele>
        <time>2013-03-17T09:41:16Z</time>
      </trkpt>
      <trkpt lat="41.602340400" lon="2.552193100">
        <ele>203.00</ele>
        <time>2013-03-17T09:41:25Z</time>
      </trkpt>
      <trkpt lat="41.602180000" lon="2.552240200">
        <ele>205.90</ele>
        <time>2013-03-17T09:41:35Z</time>
      </trkpt>
      <trkpt lat="41.602083400" lon="2.552317500">
        <ele>207.30</ele>
        <time>2013-03-17T09:41:44Z</time>
      </trkpt>
      <trkpt lat="41.601987400" lon="2.552440400">
        <ele>209.20</ele>
        <time>2013-03-17T09:41:54Z</time>
      </trkpt>
      <trkpt lat="41.601922900" lon="2.552587500">
        <ele>211.10</ele>
        <time>2013-03-17T09:42:03Z</time>
      </trkpt>
      <trkpt lat="41.601863600" lon="2.552730000">
        <ele>212.60</ele>
        <time>2013-03-17T09:42:10Z</time>
      </trkpt>
      <trkpt lat="41.601752500" lon="2.552936000">
        <ele>215.00</ele>
        <time>2013-03-17T09:42:22Z</time>
      </trkpt>
      <trkpt lat="41.601744900" lon="2.552952100">
        <ele>215.50</ele>
        <time>2013-03-17T09:42:24Z</time>
      </trkpt>
      <trkpt lat="41.601660100" lon="2.553072400">
        <ele>217.90</ele>
        <time>2013-03-17T09:42:33Z</time>
      </trkpt>
      <trkpt lat="41.601624200" lon="2.553267900">
        <ele>219.80</ele>
        <time>2013-03-17T09:42:41Z</time>
      </trkpt>
      <trkpt lat="41.601590500" lon="2.553434300">
        <ele>220.80</ele>
        <time>2013-03-17T09:42:50Z</time>
      </trkpt>
      <trkpt lat="41.601542400" lon="2.553674100">
        <ele>222.20</ele>
        <time>2013-03-17T09:43:00Z</time>
      </trkpt>
      <trkpt lat="41.601581300" lon="2.553766300">
        <ele>223.20</ele>
        <time>2013-03-17T09:43:06Z</time>
      </trkpt>
      <trkpt lat="41.601696800" lon="2.553800300">
        <ele>225.60</ele>
        <time>2013-03-17T09:43:16Z</time>
      </trkpt>
      <trkpt lat="41.601829100" lon="2.553821600">
        <ele>228.90</ele>
        <time>2013-03-17T09:43:25Z</time>
      </trkpt>
      <trkpt lat="41.601960900" lon="2.553792400">
        <ele>230.40</ele>
        <time>2013-03-17T09:43:35Z</time>
      </trkpt>
      <trkpt lat="41.602106600" lon="2.553764700">
        <ele>232.30</ele>
        <time>2013-03-17T09:43:44Z</time>
      </trkpt>
      <trkpt lat="41.602225400" lon="2.553804900">
        <ele>233.70</ele>
        <time>2013-03-17T09:43:53Z</time>
      </trkpt>
      <trkpt lat="41.602358600" lon="2.553920900">
        <ele>236.10</ele>
        <time>2013-03-17T09:44:03Z</time>
      </trkpt>
      <trkpt lat="41.602490400" lon="2.553955200">
        <ele>236.60</ele>
        <time>2013-03-17T09:44:10Z</time>
      </trkpt>
      <trkpt lat="41.602671400" lon="2.553919500">
        <ele>237.10</ele>
        <time>2013-03-17T09:44:19Z</time>
      </trkpt>
      <trkpt lat="41.602850700" lon="2.553906500">
        <ele>238.10</ele>
        <time>2013-03-17T09:44:29Z</time>
      </trkpt>
      <trkpt lat="41.602968600" lon="2.553899400">
        <ele>239.00</ele>
        <time>2013-03-17T09:44:36Z</time>
      </trkpt>
      <trkpt lat="41.603108800" lon="2.553847300">
        <ele>240.00</ele>
        <time>2013-03-17T09:44:43Z</time>
      </trkpt>
      <trkpt lat="41.603275100" lon="2.553745300">
        <ele>241.40</ele>
        <time>2013-03-17T09:44:52Z</time>
      </trkpt>
      <trkpt lat="41.603435800" lon="2.553630800">
        <ele>242.40</ele>
        <time>2013-03-17T09:45:01Z</time>
      </trkpt>
      <trkpt lat="41.603566700" lon="2.553573300">
        <ele>244.30</ele>
        <time>2013-03-17T09:45:09Z</time>
      </trkpt>
      <trkpt lat="41.603687000" lon="2.553517000">
        <ele>246.20</ele>
        <time>2013-03-17T09:45:16Z</time>
      </trkpt>
      <trkpt lat="41.603831200" lon="2.553411900">
        <ele>249.10</ele>
        <time>2013-03-17T09:45:27Z</time>
      </trkpt>
      <trkpt lat="41.603951700" lon="2.553328000">
        <ele>250.60</ele>
        <time>2013-03-17T09:45:35Z</time>
      </trkpt>
      <trkpt lat="41.603966100" lon="2.553322100">
        <ele>250.60</ele>
        <time>2013-03-17T09:45:37Z</time>
      </trkpt>
      <trkpt lat="41.603995300" lon="2.553346700">
        <ele>251.00</ele>
        <time>2013-03-17T09:45:42Z</time>
      </trkpt>
      <trkpt lat="41.604006000" lon="2.553341200">
        <ele>251.00</ele>
        <time>2013-03-17T09:45:46Z</time>
      </trkpt>
      <trkpt lat="41.604028400" lon="2.553317900">
        <ele>251.00</ele>
        <time>2013-03-17T09:45:55Z</time>
      </trkpt>
      <trkpt lat="41.604025700" lon="2.553317200">
        <ele>251.50</ele>
        <time>2013-03-17T09:46:14Z</time>
      </trkpt>
      <trkpt lat="41.604033600" lon="2.553340000">
        <ele>251.50</ele>
        <time>2013-03-17T09:46:40Z</time>
      </trkpt>
      <trkpt lat="41.604039500" lon="2.553314900">
        <ele>251.50</ele>
        <time>2013-03-17T09:46:52Z</time>
      </trkpt>
      <trkpt lat="41.604041300" lon="2.553322500">
        <ele>251.50</ele>
        <time>2013-03-17T09:47:15Z</time>
      </trkpt>
      <trkpt lat="41.604033800" lon="2.553325300">
        <ele>252.00</ele>
        <time>2013-03-17T09:47:34Z</time>
      </trkpt>
      <trkpt lat="41.604060300" lon="2.553322600">
        <ele>252.00</ele>
        <time>2013-03-17T09:47:57Z</time>
      </trkpt>
      <trkpt lat="41.604043500" lon="2.553306900">
        <ele>252.00</ele>
        <time>2013-03-17T09:48:14Z</time>
      </trkpt>
      <trkpt lat="41.604036900" lon="2.553311500">
        <ele>252.00</ele>
        <time>2013-03-17T09:48:30Z</time>
      </trkpt>
      <trkpt lat="41.604037100" lon="2.553321400">
        <ele>252.50</ele>
        <time>2013-03-17T09:48:40Z</time>
      </trkpt>
      <trkpt lat="41.603980100" lon="2.553335900">
        <ele>252.00</ele>
        <time>2013-03-17T09:48:45Z</time>
      </trkpt>
      <trkpt lat="41.603991600" lon="2.553310800">
        <ele>252.50</ele>
        <time>2013-03-17T09:48:52Z</time>
      </trkpt>
      <trkpt lat="41.604007700" lon="2.553387900">
        <ele>253.40</ele>
        <time>2013-03-17T09:48:58Z</time>
      </trkpt>
      <trkpt lat="41.603993100" lon="2.553428600">
        <ele>253.00</ele>
        <time>2013-03-17T09:48:59Z</time>
      </trkpt>
      <trkpt lat="41.604032800" lon="2.553572300">
        <ele>254.40</ele>
        <time>2013-03-17T09:49:06Z</time>
      </trkpt>
      <trkpt lat="41.604058400" lon="2.553627700">
        <ele>255.40</ele>
        <time>2013-03-17T09:49:10Z</time>
      </trkpt>
      <trkpt lat="41.604160700" lon="2.553799800">
        <ele>257.80</ele>
        <time>2013-03-17T09:49:20Z</time>
      </trkpt>
      <trkpt lat="41.604259100" lon="2.553962500">
        <ele>259.70</ele>
        <time>2013-03-17T09:49:29Z</time>
      </trkpt>
      <trkpt lat="41.604356400" lon="2.554148000">
        <ele>261.60</ele>
        <time>2013-03-17T09:49:39Z</time>
      </trkpt>
      <trkpt lat="41.604424800" lon="2.554273600">
        <ele>262.10</ele>
        <time>2013-03-17T09:49:48Z</time>
      </trkpt>
      <trkpt lat="41.604496900" lon="2.554442700">
        <ele>261.10</ele>
        <time>2013-03-17T09:49:55Z</time>
      </trkpt>
      <trkpt lat="41.604601600" lon="2.554538300">
        <ele>262.60</ele>
        <time>2013-03-17T09:50:02Z</time>
      </trkpt>
      <trkpt lat="41.604719500" lon="2.554632300">
        <ele>263.50</ele>
        <time>2013-03-17T09:50:09Z</time>
      </trkpt>
      <trkpt lat="41.604868100" lon="2.554686800">
        <ele>263.10</ele>
        <time>2013-03-17T09:50:14Z</time>
      </trkpt>
      <trkpt lat="41.604893900" lon="2.554694300">
        <ele>263.10</ele>
        <time>2013-03-17T09:50:16Z</time>
      </trkpt>
      <trkpt lat="41.605046900" lon="2.554532700">
        <ele>260.20</ele>
        <time>2013-03-17T09:50:21Z</time>
      </trkpt>
      <trkpt lat="41.605076800" lon="2.554475500">
        <ele>259.70</ele>
        <time>2013-03-17T09:50:23Z</time>
      </trkpt>
      <trkpt lat="41.605130300" lon="2.554355200">
        <ele>259.20</ele>
        <time>2013-03-17T09:50:25Z</time>
      </trkpt>
      <trkpt lat="41.605300600" lon="2.554083500">
        <ele>257.80</ele>
        <time>2013-03-17T09:50:32Z</time>
      </trkpt>
      <trkpt lat="41.605382100" lon="2.554075600">
        <ele>257.30</ele>
        <time>2013-03-17T09:50:37Z</time>
      </trkpt>
      <trkpt lat="41.605512100" lon="2.554096400">
        <ele>256.30</ele>
        <time>2013-03-17T09:50:42Z</time>
      </trkpt>
      <trkpt lat="41.605536500" lon="2.554103500">
        <ele>256.30</ele>
        <time>2013-03-17T09:50:44Z</time>
      </trkpt>
      <trkpt lat="41.605674600" lon="2.554202000">
        <ele>255.90</ele>
        <time>2013-03-17T09:50:51Z</time>
      </trkpt>
      <trkpt lat="41.605819700" lon="2.554348600">
        <ele>256.30</ele>
        <time>2013-03-17T09:50:58Z</time>
      </trkpt>
      <trkpt lat="41.605925000" lon="2.554470200">
        <ele>257.30</ele>
        <time>2013-03-17T09:51:05Z</time>
      </trkpt>
      <trkpt lat="41.606001600" lon="2.554423200">
        <ele>259.20</ele>
        <time>2013-03-17T09:51:10Z</time>
      </trkpt>
      <trkpt lat="41.606019900" lon="2.554331800">
        <ele>260.60</ele>
        <time>2013-03-17T09:51:17Z</time>
      </trkpt>
      <trkpt lat="41.606055400" lon="2.554231200">
        <ele>261.60</ele>
        <time>2013-03-17T09:51:24Z</time>
      </trkpt>
      <trkpt lat="41.606150600" lon="2.554092700">
        <ele>263.50</ele>
        <time>2013-03-17T09:51:33Z</time>
      </trkpt>
      <trkpt lat="41.606247500" lon="2.553998200">
        <ele>265.50</ele>
        <time>2013-03-17T09:51:41Z</time>
      </trkpt>
      <trkpt lat="41.606340400" lon="2.553963400">
        <ele>266.90</ele>
        <time>2013-03-17T09:51:48Z</time>
      </trkpt>
      <trkpt lat="41.606339300" lon="2.553964700">
        <ele>266.90</ele>
        <time>2013-03-17T09:51:52Z</time>
      </trkpt>
      <trkpt lat="41.606391900" lon="2.553953000">
        <ele>267.40</ele>
        <time>2013-03-17T09:51:57Z</time>
      </trkpt>
      <trkpt lat="41.606535100" lon="2.553945100">
        <ele>268.80</ele>
        <time>2013-03-17T09:52:04Z</time>
      </trkpt>
      <trkpt lat="41.606628200" lon="2.553944200">
        <ele>269.80</ele>
        <time>2013-03-17T09:52:11Z</time>
      </trkpt>
      <trkpt lat="41.606744400" lon="2.554140200">
        <ele>270.30</ele>
        <time>2013-03-17T09:52:20Z</time>
      </trkpt>
      <trkpt lat="41.606855200" lon="2.554431600">
        <ele>266.40</ele>
        <time>2013-03-17T09:52:25Z</time>
      </trkpt>
      <trkpt lat="41.606898300" lon="2.554509000">
        <ele>265.90</ele>
        <time>2013-03-17T09:52:28Z</time>
      </trkpt>
      <trkpt lat="41.606922500" lon="2.554580500">
        <ele>264.00</ele>
        <time>2013-03-17T09:52:30Z</time>
      </trkpt>
      <trkpt lat="41.606975400" lon="2.554708500">
        <ele>261.60</ele>
        <time>2013-03-17T09:52:35Z</time>
      </trkpt>
      <trkpt lat="41.607095600" lon="2.554679500">
        <ele>259.20</ele>
        <time>2013-03-17T09:52:39Z</time>
      </trkpt>
      <trkpt lat="41.607111300" lon="2.554682400">
        <ele>258.70</ele>
        <time>2013-03-17T09:52:41Z</time>
      </trkpt>
      <trkpt lat="41.607124000" lon="2.554732700">
        <ele>258.20</ele>
        <time>2013-03-17T09:52:42Z</time>
      </trkpt>
      <trkpt lat="41.607108900" lon="2.554851100">
        <ele>257.80</ele>
        <time>2013-03-17T09:52:46Z</time>
      </trkpt>
      <trkpt lat="41.607057400" lon="2.555041900">
        <ele>256.30</ele>
        <time>2013-03-17T09:52:49Z</time>
      </trkpt>
      <trkpt lat="41.606932600" lon="2.555030800">
        <ele>253.40</ele>
        <time>2013-03-17T09:52:54Z</time>
      </trkpt>
      <trkpt lat="41.606928700" lon="2.555046700">
        <ele>253.00</ele>
        <time>2013-03-17T09:52:56Z</time>
      </trkpt>
      <trkpt lat="41.607022500" lon="2.555283600">
        <ele>250.10</ele>
        <time>2013-03-17T09:53:03Z</time>
      </trkpt>
      <trkpt lat="41.607086100" lon="2.555405200">
        <ele>248.60</ele>
        <time>2013-03-17T09:53:05Z</time>
      </trkpt>
      <trkpt lat="41.607107100" lon="2.555429900">
        <ele>247.70</ele>
        <time>2013-03-17T09:53:07Z</time>
      </trkpt>
      <trkpt lat="41.607186000" lon="2.555408100">
        <ele>246.70</ele>
        <time>2013-03-17T09:53:10Z</time>
      </trkpt>
      <trkpt lat="41.607256700" lon="2.555257600">
        <ele>245.80</ele>
        <time>2013-03-17T09:53:15Z</time>
      </trkpt>
      <trkpt lat="41.607282900" lon="2.555180500">
        <ele>244.80</ele>
        <time>2013-03-17T09:53:17Z</time>
      </trkpt>
      <trkpt lat="41.607350600" lon="2.555040300">
        <ele>241.40</ele>
        <time>2013-03-17T09:53:22Z</time>
      </trkpt>
      <trkpt lat="41.607474800" lon="2.554802400">
        <ele>237.10</ele>
        <time>2013-03-17T09:53:28Z</time>
      </trkpt>
      <trkpt lat="41.607536800" lon="2.554657100">
        <ele>234.70</ele>
        <time>2013-03-17T09:53:31Z</time>
      </trkpt>
      <trkpt lat="41.607681500" lon="2.554567900">
        <ele>232.80</ele>
        <time>2013-03-17T09:53:38Z</time>
      </trkpt>
      <trkpt lat="41.607819600" lon="2.554564800">
        <ele>234.70</ele>
        <time>2013-03-17T09:53:45Z</time>
      </trkpt>
      <trkpt lat="41.607845500" lon="2.554560000">
        <ele>235.20</ele>
        <time>2013-03-17T09:53:47Z</time>
      </trkpt>
      <trkpt lat="41.607938600" lon="2.554633500">
        <ele>236.60</ele>
        <time>2013-03-17T09:53:54Z</time>
      </trkpt>
      <trkpt lat="41.608025700" lon="2.554649300">
        <ele>239.00</ele>
        <time>2013-03-17T09:54:02Z</time>
      </trkpt>
      <trkpt lat="41.608028000" lon="2.554566300">
        <ele>240.90</ele>
        <time>2013-03-17T09:54:09Z</time>
      </trkpt>
      <trkpt lat="41.607974500" lon="2.554440400">
        <ele>241.40</ele>
        <time>2013-03-17T09:54:18Z</time>
      </trkpt>
      <trkpt lat="41.607993800" lon="2.554432000">
        <ele>241.90</ele>
        <time>2013-03-17T09:54:20Z</time>
      </trkpt>
      <trkpt lat="41.608044300" lon="2.554449900">
        <ele>242.90</ele>
        <time>2013-03-17T09:54:23Z</time>
      </trkpt>
      <trkpt lat="41.608061400" lon="2.554461900">
        <ele>243.40</ele>
        <time>2013-03-17T09:54:25Z</time>
      </trkpt>
      <trkpt lat="41.608165500" lon="2.554586700">
        <ele>245.30</ele>
        <time>2013-03-17T09:54:35Z</time>
      </trkpt>
      <trkpt lat="41.608260400" lon="2.554733400">
        <ele>247.70</ele>
        <time>2013-03-17T09:54:46Z</time>
      </trkpt>
      <trkpt lat="41.608301200" lon="2.554775500">
        <ele>249.10</ele>
        <time>2013-03-17T09:54:53Z</time>
      </trkpt>
      <trkpt lat="41.608348100" lon="2.554808600">
        <ele>249.60</ele>
        <time>2013-03-17T09:55:05Z</time>
      </trkpt>
      <trkpt lat="41.608394500" lon="2.554864600">
        <ele>251.00</ele>
        <time>2013-03-17T09:55:12Z</time>
      </trkpt>
      <trkpt lat="41.608414300" lon="2.554936200">
        <ele>252.00</ele>
        <time>2013-03-17T09:55:17Z</time>
      </trkpt>
      <trkpt lat="41.608424100" lon="2.554987600">
        <ele>253.00</ele>
        <time>2013-03-17T09:55:19Z</time>
      </trkpt>
      <trkpt lat="41.608429700" lon="2.555209100">
        <ele>252.50</ele>
        <time>2013-03-17T09:55:28Z</time>
      </trkpt>
      <trkpt lat="41.608513600" lon="2.555299800">
        <ele>252.00</ele>
        <time>2013-03-17T09:55:33Z</time>
      </trkpt>
      <trkpt lat="41.608594600" lon="2.555372800">
        <ele>253.40</ele>
        <time>2013-03-17T09:55:40Z</time>
      </trkpt>
      <trkpt lat="41.608693000" lon="2.555544900">
        <ele>255.90</ele>
        <time>2013-03-17T09:55:49Z</time>
      </trkpt>
      <trkpt lat="41.608776100" lon="2.555607000">
        <ele>256.80</ele>
        <time>2013-03-17T09:55:57Z</time>
      </trkpt>
      <trkpt lat="41.608832000" lon="2.555571100">
        <ele>258.20</ele>
        <time>2013-03-17T09:56:04Z</time>
      </trkpt>
      <trkpt lat="41.608837400" lon="2.555554900">
        <ele>258.20</ele>
        <time>2013-03-17T09:56:13Z</time>
      </trkpt>
      <trkpt lat="41.608853600" lon="2.555568700">
        <ele>258.20</ele>
        <time>2013-03-17T09:56:27Z</time>
      </trkpt>
      <trkpt lat="41.608841800" lon="2.555569600">
        <ele>258.20</ele>
        <time>2013-03-17T09:56:44Z</time>
      </trkpt>
      <trkpt lat="41.608827200" lon="2.555589000">
        <ele>258.20</ele>
        <time>2013-03-17T09:56:53Z</time>
      </trkpt>
      <trkpt lat="41.608821100" lon="2.555606300">
        <ele>257.80</ele>
        <time>2013-03-17T09:57:00Z</time>
      </trkpt>
      <trkpt lat="41.608787900" lon="2.555631800">
        <ele>257.30</ele>
        <time>2013-03-17T09:57:09Z</time>
      </trkpt>
      <trkpt lat="41.608785500" lon="2.555629500">
        <ele>257.30</ele>
        <time>2013-03-17T09:57:16Z</time>
      </trkpt>
      <trkpt lat="41.608771400" lon="2.555648800">
        <ele>256.80</ele>
        <time>2013-03-17T09:57:23Z</time>
      </trkpt>
      <trkpt lat="41.608770600" lon="2.555692500">
        <ele>255.90</ele>
        <time>2013-03-17T09:57:26Z</time>
      </trkpt>
      <trkpt lat="41.608668400" lon="2.555864100">
        <ele>252.00</ele>
        <time>2013-03-17T09:57:33Z</time>
      </trkpt>
      <trkpt lat="41.608646600" lon="2.555923500">
        <ele>250.60</ele>
        <time>2013-03-17T09:57:37Z</time>
      </trkpt>
      <trkpt lat="41.608628800" lon="2.555959500">
        <ele>249.60</ele>
        <time>2013-03-17T09:57:40Z</time>
      </trkpt>
      <trkpt lat="41.608631800" lon="2.556079100">
        <ele>247.20</ele>
        <time>2013-03-17T09:57:44Z</time>
      </trkpt>
      <trkpt lat="41.608692800" lon="2.556125500">
        <ele>246.20</ele>
        <time>2013-03-17T09:57:47Z</time>
      </trkpt>
      <trkpt lat="41.608827200" lon="2.556091600">
        <ele>244.30</ele>
        <time>2013-03-17T09:57:52Z</time>
      </trkpt>
      <trkpt lat="41.609009100" lon="2.556012900">
        <ele>241.90</ele>
        <time>2013-03-17T09:57:59Z</time>
      </trkpt>
      <trkpt lat="41.609120200" lon="2.555967000">
        <ele>240.50</ele>
        <time>2013-03-17T09:58:03Z</time>
      </trkpt>
      <trkpt lat="41.609299100" lon="2.555901200">
        <ele>238.10</ele>
        <time>2013-03-17T09:58:10Z</time>
      </trkpt>
      <trkpt lat="41.609422100" lon="2.555823500">
        <ele>235.70</ele>
        <time>2013-03-17T09:58:17Z</time>
      </trkpt>
      <trkpt lat="41.609434300" lon="2.555827200">
        <ele>235.20</ele>
        <time>2013-03-17T09:58:17Z</time>
      </trkpt>
      <trkpt lat="41.609469000" lon="2.555895200">
        <ele>233.70</ele>
        <time>2013-03-17T09:58:22Z</time>
      </trkpt>
      <trkpt lat="41.609484200" lon="2.555939400">
        <ele>232.80</ele>
        <time>2013-03-17T09:58:27Z</time>
      </trkpt>
      <trkpt lat="41.609497000" lon="2.555959500">
        <ele>232.80</ele>
        <time>2013-03-17T09:58:34Z</time>
      </trkpt>
      <trkpt lat="41.609492300" lon="2.555974500">
        <ele>232.80</ele>
        <time>2013-03-17T09:58:36Z</time>
      </trkpt>
      <trkpt lat="41.609454700" lon="2.556133300">
        <ele>229.40</ele>
        <time>2013-03-17T09:58:43Z</time>
      </trkpt>
      <trkpt lat="41.609397600" lon="2.556283700">
        <ele>226.50</ele>
        <time>2013-03-17T09:58:46Z</time>
      </trkpt>
      <trkpt lat="41.609313400" lon="2.556432700">
        <ele>222.70</ele>
        <time>2013-03-17T09:58:50Z</time>
      </trkpt>
      <trkpt lat="41.609215000" lon="2.556537400">
        <ele>219.80</ele>
        <time>2013-03-17T09:58:55Z</time>
      </trkpt>
      <trkpt lat="41.609169200" lon="2.556538000">
        <ele>218.40</ele>
        <time>2013-03-17T09:58:57Z</time>
      </trkpt>
      <trkpt lat="41.609105100" lon="2.556603400">
        <ele>216.40</ele>
        <time>2013-03-17T09:59:02Z</time>
      </trkpt>
      <trkpt lat="41.609107400" lon="2.556613000">
        <ele>216.40</ele>
        <time>2013-03-17T09:59:02Z</time>
      </trkpt>
      <trkpt lat="41.609185500" lon="2.556655000">
        <ele>215.90</ele>
        <time>2013-03-17T09:59:09Z</time>
      </trkpt>
      <trkpt lat="41.609214200" lon="2.556649100">
        <ele>215.50</ele>
        <time>2013-03-17T09:59:11Z</time>
      </trkpt>
      <trkpt lat="41.609399700" lon="2.556601300">
        <ele>214.00</ele>
        <time>2013-03-17T09:59:19Z</time>
      </trkpt>
      <trkpt lat="41.609475600" lon="2.556503700">
        <ele>213.10</ele>
        <time>2013-03-17T09:59:25Z</time>
      </trkpt>
      <trkpt lat="41.609510200" lon="2.556485600">
        <ele>213.10</ele>
        <time>2013-03-17T09:59:28Z</time>
      </trkpt>
      <trkpt lat="41.609634400" lon="2.556383100">
        <ele>214.00</ele>
        <time>2013-03-17T09:59:37Z</time>
      </trkpt>
      <trkpt lat="41.609657100" lon="2.556377600">
        <ele>214.50</ele>
        <time>2013-03-17T09:59:40Z</time>
      </trkpt>
      <trkpt lat="41.609702600" lon="2.556400400">
        <ele>215.50</ele>
        <time>2013-03-17T09:59:44Z</time>
      </trkpt>
      <trkpt lat="41.609739500" lon="2.556445900">
        <ele>216.40</ele>
        <time>2013-03-17T09:59:47Z</time>
      </trkpt>
      <trkpt lat="41.609839000" lon="2.556550800">
        <ele>218.80</ele>
        <time>2013-03-17T09:59:58Z</time>
      </trkpt>
      <trkpt lat="41.609866600" lon="2.556576900">
        <ele>219.30</ele>
        <time>2013-03-17T10:00:01Z</time>
      </trkpt>
      <trkpt lat="41.609920700" lon="2.556692600">
        <ele>221.20</ele>
        <time>2013-03-17T10:00:10Z</time>
      </trkpt>
      <trkpt lat="41.609936400" lon="2.556750300">
        <ele>221.70</ele>
        <time>2013-03-17T10:00:17Z</time>
      </trkpt>
      <trkpt lat="41.609967800" lon="2.556817000">
        <ele>222.70</ele>
        <time>2013-03-17T10:00:24Z</time>
      </trkpt>
      <trkpt lat="41.609996800" lon="2.556858100">
        <ele>223.20</ele>
        <time>2013-03-17T10:00:33Z</time>
      </trkpt>
      <trkpt lat="41.610031100" lon="2.556841600">
        <ele>223.60</ele>
        <time>2013-03-17T10:00:41Z</time>
      </trkpt>
      <trkpt lat="41.610032600" lon="2.556818200">
        <ele>224.10</ele>
        <time>2013-03-17T10:00:48Z</time>
      </trkpt>
      <trkpt lat="41.610035900" lon="2.556798800">
        <ele>224.10</ele>
        <time>2013-03-17T10:00:54Z</time>
      </trkpt>
      <trkpt lat="41.610021700" lon="2.556738000">
        <ele>225.10</ele>
        <time>2013-03-17T10:01:02Z</time>
      </trkpt>
      <trkpt lat="41.610033900" lon="2.556699100">
        <ele>225.60</ele>
        <time>2013-03-17T10:01:09Z</time>
      </trkpt>
      <trkpt lat="41.610048000" lon="2.556643500">
        <ele>226.50</ele>
        <time>2013-03-17T10:01:13Z</time>
      </trkpt>
      <trkpt lat="41.610068200" lon="2.556496400">
        <ele>228.90</ele>
        <time>2013-03-17T10:01:23Z</time>
      </trkpt>
      <trkpt lat="41.610065400" lon="2.556447500">
        <ele>229.40</ele>
        <time>2013-03-17T10:01:25Z</time>
      </trkpt>
      <trkpt lat="41.610138400" lon="2.556314100">
        <ele>231.80</ele>
        <time>2013-03-17T10:01:35Z</time>
      </trkpt>
      <trkpt lat="41.610196300" lon="2.556196800">
        <ele>232.80</ele>
        <time>2013-03-17T10:01:44Z</time>
      </trkpt>
      <trkpt lat="41.610200800" lon="2.556183000">
        <ele>233.30</ele>
        <time>2013-03-17T10:01:44Z</time>
      </trkpt>
      <trkpt lat="41.610208400" lon="2.556139300">
        <ele>233.30</ele>
        <time>2013-03-17T10:01:48Z</time>
      </trkpt>
      <trkpt lat="41.610178100" lon="2.555986200">
        <ele>234.70</ele>
        <time>2013-03-17T10:01:58Z</time>
      </trkpt>
      <trkpt lat="41.610140000" lon="2.555885100">
        <ele>235.70</ele>
        <time>2013-03-17T10:02:05Z</time>
      </trkpt>
      <trkpt lat="41.610127900" lon="2.555822200">
        <ele>236.60</ele>
        <time>2013-03-17T10:02:10Z</time>
      </trkpt>
      <trkpt lat="41.610142900" lon="2.555691200">
        <ele>239.00</ele>
        <time>2013-03-17T10:02:19Z</time>
      </trkpt>
      <trkpt lat="41.610198900" lon="2.555543800">
        <ele>240.50</ele>
        <time>2013-03-17T10:02:29Z</time>
      </trkpt>
      <trkpt lat="41.610216300" lon="2.555465100">
        <ele>241.40</ele>
        <time>2013-03-17T10:02:33Z</time>
      </trkpt>
      <trkpt lat="41.610250800" lon="2.555329700">
        <ele>243.80</ele>
        <time>2013-03-17T10:02:43Z</time>
      </trkpt>
      <trkpt lat="41.610298300" lon="2.555201400">
        <ele>246.20</ele>
        <time>2013-03-17T10:02:52Z</time>
      </trkpt>
      <trkpt lat="41.610317000" lon="2.555118100">
        <ele>247.20</ele>
        <time>2013-03-17T10:02:57Z</time>
      </trkpt>
      <trkpt lat="41.610346500" lon="2.555057100">
        <ele>248.20</ele>
        <time>2013-03-17T10:03:01Z</time>
      </trkpt>
      <trkpt lat="41.610411700" lon="2.555032000">
        <ele>249.60</ele>
        <time>2013-03-17T10:03:09Z</time>
      </trkpt>
      <trkpt lat="41.610432600" lon="2.555053400">
        <ele>250.10</ele>
        <time>2013-03-17T10:03:13Z</time>
      </trkpt>
      <trkpt lat="41.610449000" lon="2.555156600">
        <ele>250.10</ele>
        <time>2013-03-17T10:03:20Z</time>
      </trkpt>
      <trkpt lat="41.610457400" lon="2.555196700">
        <ele>249.60</ele>
        <time>2013-03-17T10:03:23Z</time>
      </trkpt>
      <trkpt lat="41.610498000" lon="2.555367500">
        <ele>250.10</ele>
        <time>2013-03-17T10:03:34Z</time>
      </trkpt>
      <trkpt lat="41.610502400" lon="2.555407500">
        <ele>250.10</ele>
        <time>2013-03-17T10:03:37Z</time>
      </trkpt>
      <trkpt lat="41.610515900" lon="2.555531200">
        <ele>250.60</ele>
        <time>2013-03-17T10:03:44Z</time>
      </trkpt>
      <trkpt lat="41.610574600" lon="2.555544300">
        <ele>251.50</ele>
        <time>2013-03-17T10:03:51Z</time>
      </trkpt>
      <trkpt lat="41.610582700" lon="2.555524600">
        <ele>251.50</ele>
        <time>2013-03-17T10:03:53Z</time>
      </trkpt>
      <trkpt lat="41.610622900" lon="2.555436600">
        <ele>252.50</ele>
        <time>2013-03-17T10:04:03Z</time>
      </trkpt>
      <trkpt lat="41.610643800" lon="2.555410900">
        <ele>253.00</ele>
        <time>2013-03-17T10:04:10Z</time>
      </trkpt>
      <trkpt lat="41.610678500" lon="2.555347800">
        <ele>254.40</ele>
        <time>2013-03-17T10:04:21Z</time>
      </trkpt>
      <trkpt lat="41.610694600" lon="2.555307600">
        <ele>254.40</ele>
        <time>2013-03-17T10:04:28Z</time>
      </trkpt>
      <trkpt lat="41.610703300" lon="2.555254900">
        <ele>254.90</ele>
        <time>2013-03-17T10:04:35Z</time>
      </trkpt>
      <trkpt lat="41.610710100" lon="2.555146600">
        <ele>255.90</ele>
        <time>2013-03-17T10:04:43Z</time>
      </trkpt>
      <trkpt lat="41.610717900" lon="2.555038900">
        <ele>257.30</ele>
        <time>2013-03-17T10:04:52Z</time>
      </trkpt>
      <trkpt lat="41.610734800" lon="2.554935400">
        <ele>258.70</ele>
        <time>2013-03-17T10:04:59Z</time>
      </trkpt>
      <trkpt lat="41.610772300" lon="2.554809900">
        <ele>260.20</ele>
        <time>2013-03-17T10:05:08Z</time>
      </trkpt>
      <trkpt lat="41.610787300" lon="2.554731700">
        <ele>260.60</ele>
        <time>2013-03-17T10:05:15Z</time>
      </trkpt>
      <trkpt lat="41.610791100" lon="2.554717000">
        <ele>260.20</ele>
        <time>2013-03-17T10:05:15Z</time>
      </trkpt>
      <trkpt lat="41.610827700" lon="2.554610800">
        <ele>261.60</ele>
        <time>2013-03-17T10:05:25Z</time>
      </trkpt>
      <trkpt lat="41.610839200" lon="2.554571500">
        <ele>261.60</ele>
        <time>2013-03-17T10:05:30Z</time>
      </trkpt>
      <trkpt lat="41.610843000" lon="2.554567900">
        <ele>261.60</ele>
        <time>2013-03-17T10:05:37Z</time>
      </trkpt>
      <trkpt lat="41.610845500" lon="2.554548600">
        <ele>261.60</ele>
        <time>2013-03-17T10:05:50Z</time>
      </trkpt>
      <trkpt lat="41.610854100" lon="2.554554700">
        <ele>261.60</ele>
        <time>2013-03-17T10:06:07Z</time>
      </trkpt>
      <trkpt lat="41.610848200" lon="2.554539400">
        <ele>261.10</ele>
        <time>2013-03-17T10:06:23Z</time>
      </trkpt>
      <trkpt lat="41.610867400" lon="2.554529900">
        <ele>261.10</ele>
        <time>2013-03-17T10:06:38Z</time>
      </trkpt>
      <trkpt lat="41.610873400" lon="2.554520400">
        <ele>260.60</ele>
        <time>2013-03-17T10:06:56Z</time>
      </trkpt>
      <trkpt lat="41.610877500" lon="2.554532200">
        <ele>260.20</ele>
        <time>2013-03-17T10:07:10Z</time>
      </trkpt>
      <trkpt lat="41.610872700" lon="2.554539400">
        <ele>260.20</ele>
        <time>2013-03-17T10:07:20Z</time>
      </trkpt>
      <trkpt lat="41.610868200" lon="2.554538800">
        <ele>260.20</ele>
        <time>2013-03-17T10:07:34Z</time>
      </trkpt>
      <trkpt lat="41.610870300" lon="2.554535800">
        <ele>259.70</ele>
        <time>2013-03-17T10:07:50Z</time>
      </trkpt>
      <trkpt lat="41.610877500" lon="2.554556800">
        <ele>259.70</ele>
        <time>2013-03-17T10:08:05Z</time>
      </trkpt>
      <trkpt lat="41.610868700" lon="2.554538900">
        <ele>259.20</ele>
        <time>2013-03-17T10:08:25Z</time>
      </trkpt>
      <trkpt lat="41.610867600" lon="2.554534700">
        <ele>259.20</ele>
        <time>2013-03-17T10:08:40Z</time>
      </trkpt>
      <trkpt lat="41.610861600" lon="2.554533200">
        <ele>259.20</ele>
        <time>2013-03-17T10:08:56Z</time>
      </trkpt>
      <trkpt lat="41.610865900" lon="2.554540800">
        <ele>259.20</ele>
        <time>2013-03-17T10:09:08Z</time>
      </trkpt>
      <trkpt lat="41.610879400" lon="2.554554800">
        <ele>259.20</ele>
        <time>2013-03-17T10:09:24Z</time>
      </trkpt>
      <trkpt lat="41.610886900" lon="2.554553700">
        <ele>259.70</ele>
        <time>2013-03-17T10:09:38Z</time>
      </trkpt>
      <trkpt lat="41.610894400" lon="2.554546000">
        <ele>259.70</ele>
        <time>2013-03-17T10:09:52Z</time>
      </trkpt>
      <trkpt lat="41.610886000" lon="2.554541900">
        <ele>259.70</ele>
        <time>2013-03-17T10:10:02Z</time>
      </trkpt>
      <trkpt lat="41.610874700" lon="2.554404800">
        <ele>262.10</ele>
        <time>2013-03-17T10:10:09Z</time>
      </trkpt>
      <trkpt lat="41.610889400" lon="2.554314200">
        <ele>264.50</ele>
        <time>2013-03-17T10:10:18Z</time>
      </trkpt>
      <trkpt lat="41.610960900" lon="2.554309800">
        <ele>265.90</ele>
        <time>2013-03-17T10:10:25Z</time>
      </trkpt>
      <trkpt lat="41.610986800" lon="2.554341700">
        <ele>266.90</ele>
        <time>2013-03-17T10:10:28Z</time>
      </trkpt>
      <trkpt lat="41.611018900" lon="2.554436200">
        <ele>268.40</ele>
        <time>2013-03-17T10:10:35Z</time>
      </trkpt>
      <trkpt lat="41.611046500" lon="2.554570500">
        <ele>269.80</ele>
        <time>2013-03-17T10:10:44Z</time>
      </trkpt>
      <trkpt lat="41.611058200" lon="2.554638100">
        <ele>269.80</ele>
        <time>2013-03-17T10:10:49Z</time>
      </trkpt>
      <trkpt lat="41.611060200" lon="2.554790000">
        <ele>271.20</ele>
        <time>2013-03-17T10:10:58Z</time>
      </trkpt>
      <trkpt lat="41.611061000" lon="2.554805300">
        <ele>271.70</ele>
        <time>2013-03-17T10:11:00Z</time>
      </trkpt>
      <trkpt lat="41.611100200" lon="2.554974000">
        <ele>272.70</ele>
        <time>2013-03-17T10:11:10Z</time>
      </trkpt>
      <trkpt lat="41.611129500" lon="2.555045000">
        <ele>273.10</ele>
        <time>2013-03-17T10:11:14Z</time>
      </trkpt>
      <trkpt lat="41.611157700" lon="2.555209800">
        <ele>274.60</ele>
        <time>2013-03-17T10:11:24Z</time>
      </trkpt>
      <trkpt lat="41.611172700" lon="2.555371200">
        <ele>275.60</ele>
        <time>2013-03-17T10:11:33Z</time>
      </trkpt>
      <trkpt lat="41.611178800" lon="2.555386200">
        <ele>276.00</ele>
        <time>2013-03-17T10:11:35Z</time>
      </trkpt>
      <trkpt lat="41.611213700" lon="2.555395200">
        <ele>277.00</ele>
        <time>2013-03-17T10:11:38Z</time>
      </trkpt>
      <trkpt lat="41.611204200" lon="2.555302400">
        <ele>278.00</ele>
        <time>2013-03-17T10:11:45Z</time>
      </trkpt>
      <trkpt lat="41.611227400" lon="2.555142900">
        <ele>279.40</ele>
        <time>2013-03-17T10:11:57Z</time>
      </trkpt>
      <trkpt lat="41.611226200" lon="2.555114400">
        <ele>279.40</ele>
        <time>2013-03-17T10:11:59Z</time>
      </trkpt>
      <trkpt lat="41.611250100" lon="2.554995800">
        <ele>280.40</ele>
        <time>2013-03-17T10:12:06Z</time>
      </trkpt>
      <trkpt lat="41.611284700" lon="2.554839200">
        <ele>280.80</ele>
        <time>2013-03-17T10:12:13Z</time>
      </trkpt>
      <trkpt lat="41.611358800" lon="2.554680700">
        <ele>281.80</ele>
        <time>2013-03-17T10:12:23Z</time>
      </trkpt>
      <trkpt lat="41.611456600" lon="2.554528100">
        <ele>282.80</ele>
        <time>2013-03-17T10:12:32Z</time>
      </trkpt>
      <trkpt lat="41.611479800" lon="2.554506000">
        <ele>283.20</ele>
        <time>2013-03-17T10:12:34Z</time>
      </trkpt>
      <trkpt lat="41.611571700" lon="2.554554300">
        <ele>284.20</ele>
        <time>2013-03-17T10:12:42Z</time>
      </trkpt>
      <trkpt lat="41.611660900" lon="2.554668400">
        <ele>285.20</ele>
        <time>2013-03-17T10:12:51Z</time>
      </trkpt>
      <trkpt lat="41.611660400" lon="2.554694400">
        <ele>285.60</ele>
        <time>2013-03-17T10:12:53Z</time>
      </trkpt>
      <trkpt lat="41.611634500" lon="2.554792000">
        <ele>286.10</ele>
        <time>2013-03-17T10:13:00Z</time>
      </trkpt>
      <trkpt lat="41.611614600" lon="2.554839900">
        <ele>286.60</ele>
        <time>2013-03-17T10:13:02Z</time>
      </trkpt>
      <trkpt lat="41.611597500" lon="2.554905400">
        <ele>287.10</ele>
        <time>2013-03-17T10:13:07Z</time>
      </trkpt>
      <trkpt lat="41.611563500" lon="2.555110400">
        <ele>288.00</ele>
        <time>2013-03-17T10:13:17Z</time>
      </trkpt>
      <trkpt lat="41.611528300" lon="2.555249000">
        <ele>289.00</ele>
        <time>2013-03-17T10:13:24Z</time>
      </trkpt>
      <trkpt lat="41.611516600" lon="2.555337300">
        <ele>289.50</ele>
        <time>2013-03-17T10:13:30Z</time>
      </trkpt>
      <trkpt lat="41.611485600" lon="2.555542300">
        <ele>290.90</ele>
        <time>2013-03-17T10:13:40Z</time>
      </trkpt>
      <trkpt lat="41.611457100" lon="2.555751000">
        <ele>291.90</ele>
        <time>2013-03-17T10:13:50Z</time>
      </trkpt>
      <trkpt lat="41.611454400" lon="2.555770700">
        <ele>291.90</ele>
        <time>2013-03-17T10:13:52Z</time>
      </trkpt>
      <trkpt lat="41.611445700" lon="2.555931700">
        <ele>292.90</ele>
        <time>2013-03-17T10:13:59Z</time>
      </trkpt>
      <trkpt lat="41.611442600" lon="2.556011900">
        <ele>293.80</ele>
        <time>2013-03-17T10:14:04Z</time>
      </trkpt>
      <trkpt lat="41.611468100" lon="2.556173700">
        <ele>295.30</ele>
        <time>2013-03-17T10:14:13Z</time>
      </trkpt>
      <trkpt lat="41.611477600" lon="2.556208700">
        <ele>295.30</ele>
        <time>2013-03-17T10:14:15Z</time>
      </trkpt>
      <trkpt lat="41.611514100" lon="2.556378300">
        <ele>296.70</ele>
        <time>2013-03-17T10:14:24Z</time>
      </trkpt>
      <trkpt lat="41.611533800" lon="2.556474400">
        <ele>297.70</ele>
        <time>2013-03-17T10:14:29Z</time>
      </trkpt>
      <trkpt lat="41.611536500" lon="2.556564200">
        <ele>298.10</ele>
        <time>2013-03-17T10:14:34Z</time>
      </trkpt>
      <trkpt lat="41.611593200" lon="2.556768400">
        <ele>299.10</ele>
        <time>2013-03-17T10:14:46Z</time>
      </trkpt>
      <trkpt lat="41.611656700" lon="2.556946600">
        <ele>297.70</ele>
        <time>2013-03-17T10:14:51Z</time>
      </trkpt>
      <trkpt lat="41.611714000" lon="2.557267800">
        <ele>296.20</ele>
        <time>2013-03-17T10:14:58Z</time>
      </trkpt>
      <trkpt lat="41.611816500" lon="2.557505200">
        <ele>293.30</ele>
        <time>2013-03-17T10:15:04Z</time>
      </trkpt>
      <trkpt lat="41.611882800" lon="2.557771300">
        <ele>290.90</ele>
        <time>2013-03-17T10:15:09Z</time>
      </trkpt>
      <trkpt lat="41.611976000" lon="2.557840800">
        <ele>289.50</ele>
        <time>2013-03-17T10:15:12Z</time>
      </trkpt>
      <trkpt lat="41.612040800" lon="2.557849100">
        <ele>288.50</ele>
        <time>2013-03-17T10:15:14Z</time>
      </trkpt>
      <trkpt lat="41.612231000" lon="2.557822700">
        <ele>286.10</ele>
        <time>2013-03-17T10:15:19Z</time>
      </trkpt>
      <trkpt lat="41.612447000" lon="2.557774300">
        <ele>283.70</ele>
        <time>2013-03-17T10:15:26Z</time>
      </trkpt>
      <trkpt lat="41.612680300" lon="2.557722200">
        <ele>281.80</ele>
        <time>2013-03-17T10:15:31Z</time>
      </trkpt>
      <trkpt lat="41.613039700" lon="2.557661600">
        <ele>279.90</ele>
        <time>2013-03-17T10:15:40Z</time>
      </trkpt>
      <trkpt lat="41.613102900" lon="2.557626800">
        <ele>279.40</ele>
        <time>2013-03-17T10:15:42Z</time>
      </trkpt>
      <trkpt lat="41.613248200" lon="2.557712700">
        <ele>278.90</ele>
        <time>2013-03-17T10:15:47Z</time>
      </trkpt>
      <trkpt lat="41.613359800" lon="2.557940100">
        <ele>279.40</ele>
        <time>2013-03-17T10:15:56Z</time>
      </trkpt>
      <trkpt lat="41.613495700" lon="2.558181000">
        <ele>279.40</ele>
        <time>2013-03-17T10:16:06Z</time>
      </trkpt>
      <trkpt lat="41.613618100" lon="2.558415600">
        <ele>280.40</ele>
        <time>2013-03-17T10:16:17Z</time>
      </trkpt>
      <trkpt lat="41.613737000" lon="2.558630600">
        <ele>281.80</ele>
        <time>2013-03-17T10:16:29Z</time>
      </trkpt>
      <trkpt lat="41.613827500" lon="2.558763400">
        <ele>283.20</ele>
        <time>2013-03-17T10:16:38Z</time>
      </trkpt>
      <trkpt lat="41.613868500" lon="2.558828500">
        <ele>284.20</ele>
        <time>2013-03-17T10:16:43Z</time>
      </trkpt>
      <trkpt lat="41.613959800" lon="2.558987900">
        <ele>286.60</ele>
        <time>2013-03-17T10:16:53Z</time>
      </trkpt>
      <trkpt lat="41.614021400" lon="2.559081300">
        <ele>288.50</ele>
        <time>2013-03-17T10:17:00Z</time>
      </trkpt>
      <trkpt lat="41.614037400" lon="2.559105700">
        <ele>289.00</ele>
        <time>2013-03-17T10:17:02Z</time>
      </trkpt>
      <trkpt lat="41.614073700" lon="2.559133900">
        <ele>289.00</ele>
        <time>2013-03-17T10:17:04Z</time>
      </trkpt>
      <trkpt lat="41.614111400" lon="2.559178200">
        <ele>289.50</ele>
        <time>2013-03-17T10:17:09Z</time>
      </trkpt>
      <trkpt lat="41.614205200" lon="2.559273000">
        <ele>290.50</ele>
        <time>2013-03-17T10:17:18Z</time>
      </trkpt>
      <trkpt lat="41.614244800" lon="2.559310600">
        <ele>291.90</ele>
        <time>2013-03-17T10:17:21Z</time>
      </trkpt>
      <trkpt lat="41.614320400" lon="2.559329500">
        <ele>292.90</ele>
        <time>2013-03-17T10:17:30Z</time>
      </trkpt>
      <trkpt lat="41.614389800" lon="2.559317900">
        <ele>294.30</ele>
        <time>2013-03-17T10:17:37Z</time>
      </trkpt>
      <trkpt lat="41.614459400" lon="2.559254900">
        <ele>296.20</ele>
        <time>2013-03-17T10:17:44Z</time>
      </trkpt>
      <trkpt lat="41.614592000" lon="2.559268500">
        <ele>297.70</ele>
        <time>2013-03-17T10:17:53Z</time>
      </trkpt>
      <trkpt lat="41.614651200" lon="2.559275900">
        <ele>298.10</ele>
        <time>2013-03-17T10:17:56Z</time>
      </trkpt>
      <trkpt lat="41.614729100" lon="2.559258900">
        <ele>299.10</ele>
        <time>2013-03-17T10:18:03Z</time>
      </trkpt>
      <trkpt lat="41.614856300" lon="2.559346000">
        <ele>299.10</ele>
        <time>2013-03-17T10:18:12Z</time>
      </trkpt>
      <trkpt lat="41.614929500" lon="2.559414900">
        <ele>299.10</ele>
        <time>2013-03-17T10:18:17Z</time>
      </trkpt>
      <trkpt lat="41.614972200" lon="2.559423100">
        <ele>299.10</ele>
        <time>2013-03-17T10:18:20Z</time>
      </trkpt>
      <trkpt lat="41.615051300" lon="2.559347800">
        <ele>298.10</ele>
        <time>2013-03-17T10:18:26Z</time>
      </trkpt>
      <trkpt lat="41.615204200" lon="2.559239800">
        <ele>294.80</ele>
        <time>2013-03-17T10:18:33Z</time>
      </trkpt>
      <trkpt lat="41.615299800" lon="2.559221900">
        <ele>292.90</ele>
        <time>2013-03-17T10:18:36Z</time>
      </trkpt>
      <trkpt lat="41.615393300" lon="2.559249100">
        <ele>290.90</ele>
        <time>2013-03-17T10:18:43Z</time>
      </trkpt>
      <trkpt lat="41.615385400" lon="2.559324600">
        <ele>291.40</ele>
        <time>2013-03-17T10:18:47Z</time>
      </trkpt>
      <trkpt lat="41.615375400" lon="2.559462600">
        <ele>290.50</ele>
        <time>2013-03-17T10:18:52Z</time>
      </trkpt>
      <trkpt lat="41.615375300" lon="2.559486200">
        <ele>290.00</ele>
        <time>2013-03-17T10:18:52Z</time>
      </trkpt>
      <trkpt lat="41.615399100" lon="2.559627500">
        <ele>289.00</ele>
        <time>2013-03-17T10:18:59Z</time>
      </trkpt>
      <trkpt lat="41.615428700" lon="2.559757800">
        <ele>290.50</ele>
        <time>2013-03-17T10:19:04Z</time>
      </trkpt>
      <trkpt lat="41.615463400" lon="2.559913900">
        <ele>291.40</ele>
        <time>2013-03-17T10:19:11Z</time>
      </trkpt>
      <trkpt lat="41.615471200" lon="2.560085000">
        <ele>291.90</ele>
        <time>2013-03-17T10:19:18Z</time>
      </trkpt>
      <trkpt lat="41.615476900" lon="2.560288300">
        <ele>293.30</ele>
        <time>2013-03-17T10:19:25Z</time>
      </trkpt>
      <trkpt lat="41.615507900" lon="2.560439500">
        <ele>294.80</ele>
        <time>2013-03-17T10:19:32Z</time>
      </trkpt>
      <trkpt lat="41.615509900" lon="2.560593900">
        <ele>294.80</ele>
        <time>2013-03-17T10:19:39Z</time>
      </trkpt>
      <trkpt lat="41.615507200" lon="2.560626700">
        <ele>294.80</ele>
        <time>2013-03-17T10:19:42Z</time>
      </trkpt>
      <trkpt lat="41.615551400" lon="2.560712000">
        <ele>292.90</ele>
        <time>2013-03-17T10:19:46Z</time>
      </trkpt>
      <trkpt lat="41.615575600" lon="2.560736400">
        <ele>291.90</ele>
        <time>2013-03-17T10:19:47Z</time>
      </trkpt>
      <trkpt lat="41.615616200" lon="2.560685100">
        <ele>290.50</ele>
        <time>2013-03-17T10:19:51Z</time>
      </trkpt>
      <trkpt lat="41.615620100" lon="2.560663100">
        <ele>290.00</ele>
        <time>2013-03-17T10:19:51Z</time>
      </trkpt>
      <trkpt lat="41.615679200" lon="2.560693600">
        <ele>287.60</ele>
        <time>2013-03-17T10:19:58Z</time>
      </trkpt>
      <trkpt lat="41.615694700" lon="2.560697000">
        <ele>287.10</ele>
        <time>2013-03-17T10:19:58Z</time>
      </trkpt>
      <trkpt lat="41.615728000" lon="2.560629600">
        <ele>285.20</ele>
        <time>2013-03-17T10:20:03Z</time>
      </trkpt>
      <trkpt lat="41.615738100" lon="2.560536800">
        <ele>284.70</ele>
        <time>2013-03-17T10:20:07Z</time>
      </trkpt>
      <trkpt lat="41.615701200" lon="2.560292400">
        <ele>283.20</ele>
        <time>2013-03-17T10:20:14Z</time>
      </trkpt>
      <trkpt lat="41.615696000" lon="2.560173100">
        <ele>282.30</ele>
        <time>2013-03-17T10:20:17Z</time>
      </trkpt>
      <trkpt lat="41.615701700" lon="2.560171100">
        <ele>281.80</ele>
        <time>2013-03-17T10:20:19Z</time>
      </trkpt>
      <trkpt lat="41.615724500" lon="2.560189000">
        <ele>280.40</ele>
        <time>2013-03-17T10:20:22Z</time>
      </trkpt>
      <trkpt lat="41.615767800" lon="2.560278100">
        <ele>279.40</ele>
        <time>2013-03-17T10:20:26Z</time>
      </trkpt>
      <trkpt lat="41.615862300" lon="2.560443700">
        <ele>278.00</ele>
        <time>2013-03-17T10:20:33Z</time>
      </trkpt>
      <trkpt lat="41.615984000" lon="2.560517100">
        <ele>275.60</ele>
        <time>2013-03-17T10:20:40Z</time>
      </trkpt>
      <trkpt lat="41.616113900" lon="2.560567400">
        <ele>274.10</ele>
        <time>2013-03-17T10:20:45Z</time>
      </trkpt>
      <trkpt lat="41.616276400" lon="2.560659600">
        <ele>272.70</ele>
        <time>2013-03-17T10:20:52Z</time>
      </trkpt>
      <trkpt lat="41.616333000" lon="2.560663900">
        <ele>270.80</ele>
        <time>2013-03-17T10:20:54Z</time>
      </trkpt>
      <trkpt lat="41.616338200" lon="2.560547800">
        <ele>269.80</ele>
        <time>2013-03-17T10:21:01Z</time>
      </trkpt>
      <trkpt lat="41.616183600" lon="2.560436400">
        <ele>269.80</ele>
        <time>2013-03-17T10:21:09Z</time>
      </trkpt>
      <trkpt lat="41.616072200" lon="2.560233700">
        <ele>268.80</ele>
        <time>2013-03-17T10:21:15Z</time>
      </trkpt>
      <trkpt lat="41.616044800" lon="2.560158000">
        <ele>267.90</ele>
        <time>2013-03-17T10:21:18Z</time>
      </trkpt>
      <trkpt lat="41.616026800" lon="2.560002500">
        <ele>266.90</ele>
        <time>2013-03-17T10:21:23Z</time>
      </trkpt>
      <trkpt lat="41.616044800" lon="2.559879100">
        <ele>266.90</ele>
        <time>2013-03-17T10:21:27Z</time>
      </trkpt>
      <trkpt lat="41.616070900" lon="2.559674200">
        <ele>267.90</ele>
        <time>2013-03-17T10:21:34Z</time>
      </trkpt>
      <trkpt lat="41.616072900" lon="2.559561500">
        <ele>268.40</ele>
        <time>2013-03-17T10:21:39Z</time>
      </trkpt>
      <trkpt lat="41.616083500" lon="2.559470100">
        <ele>268.80</ele>
        <time>2013-03-17T10:21:42Z</time>
      </trkpt>
      <trkpt lat="41.616080200" lon="2.559428900">
        <ele>269.30</ele>
        <time>2013-03-17T10:21:44Z</time>
      </trkpt>
      <trkpt lat="41.616092700" lon="2.559325300">
        <ele>269.30</ele>
        <time>2013-03-17T10:21:49Z</time>
      </trkpt>
      <trkpt lat="41.616065300" lon="2.559182900">
        <ele>271.70</ele>
        <time>2013-03-17T10:21:58Z</time>
      </trkpt>
      <trkpt lat="41.616069400" lon="2.559034400">
        <ele>273.10</ele>
        <time>2013-03-17T10:22:05Z</time>
      </trkpt>
      <trkpt lat="41.616098200" lon="2.558874300">
        <ele>274.60</ele>
        <time>2013-03-17T10:22:14Z</time>
      </trkpt>
      <trkpt lat="41.616120100" lon="2.558777400">
        <ele>275.10</ele>
        <time>2013-03-17T10:22:19Z</time>
      </trkpt>
      <trkpt lat="41.616223400" lon="2.558729700">
        <ele>273.60</ele>
        <time>2013-03-17T10:22:24Z</time>
      </trkpt>
      <trkpt lat="41.616421700" lon="2.558728600">
        <ele>273.10</ele>
        <time>2013-03-17T10:22:31Z</time>
      </trkpt>
      <trkpt lat="41.616523400" lon="2.558744000">
        <ele>273.10</ele>
        <time>2013-03-17T10:22:38Z</time>
      </trkpt>
      <trkpt lat="41.616622600" lon="2.558802500">
        <ele>272.70</ele>
        <time>2013-03-17T10:22:43Z</time>
      </trkpt>
      <trkpt lat="41.616835100" lon="2.558932200">
        <ele>271.70</ele>
        <time>2013-03-17T10:22:50Z</time>
      </trkpt>
      <trkpt lat="41.617049600" lon="2.559100200">
        <ele>269.80</ele>
        <time>2013-03-17T10:22:57Z</time>
      </trkpt>
      <trkpt lat="41.617084400" lon="2.559131000">
        <ele>269.80</ele>
        <time>2013-03-17T10:22:59Z</time>
      </trkpt>
      <trkpt lat="41.617270700" lon="2.559345900">
        <ele>266.40</ele>
        <time>2013-03-17T10:23:04Z</time>
      </trkpt>
      <trkpt lat="41.617343300" lon="2.559424200">
        <ele>265.50</ele>
        <time>2013-03-17T10:23:06Z</time>
      </trkpt>
      <trkpt lat="41.617462600" lon="2.559550600">
        <ele>264.50</ele>
        <time>2013-03-17T10:23:10Z</time>
      </trkpt>
      <trkpt lat="41.617583900" lon="2.559650000">
        <ele>262.60</ele>
        <time>2013-03-17T10:23:13Z</time>
      </trkpt>
      <trkpt lat="41.617726200" lon="2.559729800">
        <ele>261.10</ele>
        <time>2013-03-17T10:23:18Z</time>
      </trkpt>
      <trkpt lat="41.617798400" lon="2.559727400">
        <ele>260.20</ele>
        <time>2013-03-17T10:23:22Z</time>
      </trkpt>
      <trkpt lat="41.617954600" lon="2.559741800">
        <ele>258.70</ele>
        <time>2013-03-17T10:23:27Z</time>
      </trkpt>
      <trkpt lat="41.618021700" lon="2.559764900">
        <ele>257.80</ele>
        <time>2013-03-17T10:23:30Z</time>
      </trkpt>
      <trkpt lat="41.618166900" lon="2.559786700">
        <ele>256.30</ele>
        <time>2013-03-17T10:23:36Z</time>
      </trkpt>
      <trkpt lat="41.618246000" lon="2.559766100">
        <ele>255.40</ele>
        <time>2013-03-17T10:23:39Z</time>
      </trkpt>
      <trkpt lat="41.618418900" lon="2.559520700">
        <ele>253.40</ele>
        <time>2013-03-17T10:23:46Z</time>
      </trkpt>
      <trkpt lat="41.618515500" lon="2.559287800">
        <ele>250.60</ele>
        <time>2013-03-17T10:23:50Z</time>
      </trkpt>
      <trkpt lat="41.618557500" lon="2.559129100">
        <ele>248.20</ele>
        <time>2013-03-17T10:23:55Z</time>
      </trkpt>
      <trkpt lat="41.618601600" lon="2.558986300">
        <ele>244.80</ele>
        <time>2013-03-17T10:24:00Z</time>
      </trkpt>
      <trkpt lat="41.618609800" lon="2.558943000">
        <ele>243.80</ele>
        <time>2013-03-17T10:24:05Z</time>
      </trkpt>
      <trkpt lat="41.618609900" lon="2.558899800">
        <ele>243.80</ele>
        <time>2013-03-17T10:24:30Z</time>
      </trkpt>
      <trkpt lat="41.618634900" lon="2.558878100">
        <ele>243.40</ele>
        <time>2013-03-17T10:24:40Z</time>
      </trkpt>
      <trkpt lat="41.618719500" lon="2.558794100">
        <ele>241.90</ele>
        <time>2013-03-17T10:24:45Z</time>
      </trkpt>
      <trkpt lat="41.618803700" lon="2.558756000">
        <ele>240.00</ele>
        <time>2013-03-17T10:24:47Z</time>
      </trkpt>
      <trkpt lat="41.619023700" lon="2.558641700">
        <ele>238.10</ele>
        <time>2013-03-17T10:24:54Z</time>
      </trkpt>
      <trkpt lat="41.619180700" lon="2.558595900">
        <ele>236.10</ele>
        <time>2013-03-17T10:25:01Z</time>
      </trkpt>
      <trkpt lat="41.619277500" lon="2.558601700">
        <ele>234.20</ele>
        <time>2013-03-17T10:25:06Z</time>
      </trkpt>
      <trkpt lat="41.619308000" lon="2.558724000">
        <ele>232.80</ele>
        <time>2013-03-17T10:25:10Z</time>
      </trkpt>
      <trkpt lat="41.619259200" lon="2.558828600">
        <ele>230.90</ele>
        <time>2013-03-17T10:25:13Z</time>
      </trkpt>
      <trkpt lat="41.619182400" lon="2.558892700">
        <ele>229.40</ele>
        <time>2013-03-17T10:25:18Z</time>
      </trkpt>
      <trkpt lat="41.619159300" lon="2.559035900">
        <ele>227.00</ele>
        <time>2013-03-17T10:25:24Z</time>
      </trkpt>
      <trkpt lat="41.619232100" lon="2.559045700">
        <ele>226.50</ele>
        <time>2013-03-17T10:25:27Z</time>
      </trkpt>
      <trkpt lat="41.619441400" lon="2.559009200">
        <ele>225.60</ele>
        <time>2013-03-17T10:25:34Z</time>
      </trkpt>
      <trkpt lat="41.619603100" lon="2.558943000">
        <ele>223.60</ele>
        <time>2013-03-17T10:25:41Z</time>
      </trkpt>
      <trkpt lat="41.619626600" lon="2.558931200">
        <ele>223.60</ele>
        <time>2013-03-17T10:25:41Z</time>
      </trkpt>
      <trkpt lat="41.619755700" lon="2.558745700">
        <ele>222.20</ele>
        <time>2013-03-17T10:25:48Z</time>
      </trkpt>
      <trkpt lat="41.619771300" lon="2.558694900">
        <ele>222.20</ele>
        <time>2013-03-17T10:25:48Z</time>
      </trkpt>
      <trkpt lat="41.619795900" lon="2.558380700">
        <ele>220.80</ele>
        <time>2013-03-17T10:25:55Z</time>
      </trkpt>
      <trkpt lat="41.619816400" lon="2.558272300">
        <ele>219.80</ele>
        <time>2013-03-17T10:25:57Z</time>
      </trkpt>
      <trkpt lat="41.619865300" lon="2.558114400">
        <ele>218.80</ele>
        <time>2013-03-17T10:26:00Z</time>
      </trkpt>
      <trkpt lat="41.619864900" lon="2.558072600">
        <ele>218.40</ele>
        <time>2013-03-17T10:26:00Z</time>
      </trkpt>
      <trkpt lat="41.619846800" lon="2.557983300">
        <ele>217.40</ele>
        <time>2013-03-17T10:26:02Z</time>
      </trkpt>
      <trkpt lat="41.619762200" lon="2.557757800">
        <ele>215.90</ele>
        <time>2013-03-17T10:26:07Z</time>
      </trkpt>
      <trkpt lat="41.619616400" lon="2.557452800">
        <ele>213.60</ele>
        <time>2013-03-17T10:26:14Z</time>
      </trkpt>
      <trkpt lat="41.619660800" lon="2.557360500">
        <ele>210.70</ele>
        <time>2013-03-17T10:26:19Z</time>
      </trkpt>
      <trkpt lat="41.619795900" lon="2.557443400">
        <ele>208.30</ele>
        <time>2013-03-17T10:26:25Z</time>
      </trkpt>
      <trkpt lat="41.619860200" lon="2.557520400">
        <ele>207.80</ele>
        <time>2013-03-17T10:26:26Z</time>
      </trkpt>
      <trkpt lat="41.620002500" lon="2.557704400">
        <ele>206.30</ele>
        <time>2013-03-17T10:26:30Z</time>
      </trkpt>
      <trkpt lat="41.620170700" lon="2.558021100">
        <ele>203.50</ele>
        <time>2013-03-17T10:26:39Z</time>
      </trkpt>
      <trkpt lat="41.620214600" lon="2.558127500">
        <ele>202.50</ele>
        <time>2013-03-17T10:26:42Z</time>
      </trkpt>
      <trkpt lat="41.620232100" lon="2.558350400">
        <ele>202.50</ele>
        <time>2013-03-17T10:26:49Z</time>
      </trkpt>
      <trkpt lat="41.620304900" lon="2.558469000">
        <ele>203.50</ele>
        <time>2013-03-17T10:26:56Z</time>
      </trkpt>
      <trkpt lat="41.620408500" lon="2.558581200">
        <ele>205.90</ele>
        <time>2013-03-17T10:27:03Z</time>
      </trkpt>
      <trkpt lat="41.620426500" lon="2.558668600">
        <ele>208.30</ele>
        <time>2013-03-17T10:27:10Z</time>
      </trkpt>
      <trkpt lat="41.620429600" lon="2.558695000">
        <ele>208.30</ele>
        <time>2013-03-17T10:27:10Z</time>
      </trkpt>
      <trkpt lat="41.620380800" lon="2.558774400">
        <ele>208.70</ele>
        <time>2013-03-17T10:27:15Z</time>
      </trkpt>
      <trkpt lat="41.620321300" lon="2.558817000">
        <ele>209.20</ele>
        <time>2013-03-17T10:27:19Z</time>
      </trkpt>
      <trkpt lat="41.620279600" lon="2.558948300">
        <ele>209.20</ele>
        <time>2013-03-17T10:27:26Z</time>
      </trkpt>
      <trkpt lat="41.620252200" lon="2.559222900">
        <ele>206.30</ele>
        <time>2013-03-17T10:27:31Z</time>
      </trkpt>
      <trkpt lat="41.620241000" lon="2.559330400">
        <ele>205.40</ele>
        <time>2013-03-17T10:27:33Z</time>
      </trkpt>
      <trkpt lat="41.620183400" lon="2.559599700">
        <ele>201.50</ele>
        <time>2013-03-17T10:27:38Z</time>
      </trkpt>
      <trkpt lat="41.620133300" lon="2.559742100">
        <ele>198.60</ele>
        <time>2013-03-17T10:27:41Z</time>
      </trkpt>
      <trkpt lat="41.619983000" lon="2.559828200">
        <ele>197.20</ele>
        <time>2013-03-17T10:27:47Z</time>
      </trkpt>
      <trkpt lat="41.619950900" lon="2.559829200">
        <ele>196.70</ele>
        <time>2013-03-17T10:27:48Z</time>
      </trkpt>
      <trkpt lat="41.619801000" lon="2.559951800">
        <ele>196.70</ele>
        <time>2013-03-17T10:27:55Z</time>
      </trkpt>
      <trkpt lat="41.619793400" lon="2.559967500">
        <ele>196.70</ele>
        <time>2013-03-17T10:27:55Z</time>
      </trkpt>
      <trkpt lat="41.619886100" lon="2.560080600">
        <ele>196.20</ele>
        <time>2013-03-17T10:28:00Z</time>
      </trkpt>
      <trkpt lat="41.619983400" lon="2.560232000">
        <ele>195.80</ele>
        <time>2013-03-17T10:28:04Z</time>
      </trkpt>
      <trkpt lat="41.620027000" lon="2.560345600">
        <ele>195.80</ele>
        <time>2013-03-17T10:28:09Z</time>
      </trkpt>
      <trkpt lat="41.620120000" lon="2.560506300">
        <ele>198.20</ele>
        <time>2013-03-17T10:28:16Z</time>
      </trkpt>
      <trkpt lat="41.620178700" lon="2.560668400">
        <ele>199.60</ele>
        <time>2013-03-17T10:28:23Z</time>
      </trkpt>
      <trkpt lat="41.620311900" lon="2.560818200">
        <ele>198.20</ele>
        <time>2013-03-17T10:28:30Z</time>
      </trkpt>
      <trkpt lat="41.620456000" lon="2.560945600">
        <ele>196.70</ele>
        <time>2013-03-17T10:28:37Z</time>
      </trkpt>
      <trkpt lat="41.620602800" lon="2.561092700">
        <ele>195.80</ele>
        <time>2013-03-17T10:28:42Z</time>
      </trkpt>
      <trkpt lat="41.620689300" lon="2.561148500">
        <ele>194.30</ele>
        <time>2013-03-17T10:28:46Z</time>
      </trkpt>
      <trkpt lat="41.620754100" lon="2.561244500">
        <ele>193.80</ele>
        <time>2013-03-17T10:28:53Z</time>
      </trkpt>
      <trkpt lat="41.620748500" lon="2.561282600">
        <ele>194.30</ele>
        <time>2013-03-17T10:28:54Z</time>
      </trkpt>
      <trkpt lat="41.620739900" lon="2.561414400">
        <ele>195.80</ele>
        <time>2013-03-17T10:29:03Z</time>
      </trkpt>
      <trkpt lat="41.620719600" lon="2.561547300">
        <ele>196.70</ele>
        <time>2013-03-17T10:29:10Z</time>
      </trkpt>
      <trkpt lat="41.620710600" lon="2.561583800">
        <ele>196.70</ele>
        <time>2013-03-17T10:29:12Z</time>
      </trkpt>
      <trkpt lat="41.620569200" lon="2.561697600">
        <ele>198.20</ele>
        <time>2013-03-17T10:29:22Z</time>
      </trkpt>
      <trkpt lat="41.620440200" lon="2.561709400">
        <ele>198.60</ele>
        <time>2013-03-17T10:29:29Z</time>
      </trkpt>
      <trkpt lat="41.620282200" lon="2.561705300">
        <ele>199.10</ele>
        <time>2013-03-17T10:29:36Z</time>
      </trkpt>
      <trkpt lat="41.620135400" lon="2.561703000">
        <ele>199.10</ele>
        <time>2013-03-17T10:29:43Z</time>
      </trkpt>
      <trkpt lat="41.620036700" lon="2.561716500">
        <ele>198.20</ele>
        <time>2013-03-17T10:29:47Z</time>
      </trkpt>
      <trkpt lat="41.619887000" lon="2.561758900">
        <ele>196.20</ele>
        <time>2013-03-17T10:29:50Z</time>
      </trkpt>
      <trkpt lat="41.619621500" lon="2.561765600">
        <ele>193.80</ele>
        <time>2013-03-17T10:29:57Z</time>
      </trkpt>
      <trkpt lat="41.619423600" lon="2.561738000">
        <ele>193.80</ele>
        <time>2013-03-17T10:30:04Z</time>
      </trkpt>
      <trkpt lat="41.619258500" lon="2.561684700">
        <ele>194.80</ele>
        <time>2013-03-17T10:30:11Z</time>
      </trkpt>
      <trkpt lat="41.619124400" lon="2.561617500">
        <ele>196.20</ele>
        <time>2013-03-17T10:30:18Z</time>
      </trkpt>
      <trkpt lat="41.618993000" lon="2.561549700">
        <ele>196.70</ele>
        <time>2013-03-17T10:30:23Z</time>
      </trkpt>
      <trkpt lat="41.618870900" lon="2.561486900">
        <ele>197.20</ele>
        <time>2013-03-17T10:30:30Z</time>
      </trkpt>
      <trkpt lat="41.618771800" lon="2.561472100">
        <ele>197.70</ele>
        <time>2013-03-17T10:30:37Z</time>
      </trkpt>
      <trkpt lat="41.618757800" lon="2.561567800">
        <ele>197.70</ele>
        <time>2013-03-17T10:30:42Z</time>
      </trkpt>
      <trkpt lat="41.618785400" lon="2.561612200">
        <ele>197.70</ele>
        <time>2013-03-17T10:30:46Z</time>
      </trkpt>
      <trkpt lat="41.618830300" lon="2.561723600">
        <ele>196.70</ele>
        <time>2013-03-17T10:30:53Z</time>
      </trkpt>
      <trkpt lat="41.618876500" lon="2.561873700">
        <ele>197.70</ele>
        <time>2013-03-17T10:31:00Z</time>
      </trkpt>
      <trkpt lat="41.618896700" lon="2.561942400">
        <ele>198.20</ele>
        <time>2013-03-17T10:31:05Z</time>
      </trkpt>
      <trkpt lat="41.618898300" lon="2.562053000">
        <ele>199.60</ele>
        <time>2013-03-17T10:31:12Z</time>
      </trkpt>
      <trkpt lat="41.618861200" lon="2.562113600">
        <ele>201.50</ele>
        <time>2013-03-17T10:31:19Z</time>
      </trkpt>
      <trkpt lat="41.618836400" lon="2.562135900">
        <ele>202.50</ele>
        <time>2013-03-17T10:31:23Z</time>
      </trkpt>
      <trkpt lat="41.618727900" lon="2.562167100">
        <ele>204.40</ele>
        <time>2013-03-17T10:31:31Z</time>
      </trkpt>
      <trkpt lat="41.618638500" lon="2.562209300">
        <ele>206.30</ele>
        <time>2013-03-17T10:31:40Z</time>
      </trkpt>
      <trkpt lat="41.618578200" lon="2.562254500">
        <ele>208.70</ele>
        <time>2013-03-17T10:31:47Z</time>
      </trkpt>
      <trkpt lat="41.618536800" lon="2.562296400">
        <ele>209.70</ele>
        <time>2013-03-17T10:31:52Z</time>
      </trkpt>
      <trkpt lat="41.618462900" lon="2.562405300">
        <ele>212.10</ele>
        <time>2013-03-17T10:32:01Z</time>
      </trkpt>
      <trkpt lat="41.618423700" lon="2.562475500">
        <ele>213.60</ele>
        <time>2013-03-17T10:32:08Z</time>
      </trkpt>
      <trkpt lat="41.618420100" lon="2.562488300">
        <ele>213.60</ele>
        <time>2013-03-17T10:32:10Z</time>
      </trkpt>
      <trkpt lat="41.618417700" lon="2.562518800">
        <ele>213.60</ele>
        <time>2013-03-17T10:32:11Z</time>
      </trkpt>
      <trkpt lat="41.618471900" lon="2.562638300">
        <ele>216.40</ele>
        <time>2013-03-17T10:32:22Z</time>
      </trkpt>
      <trkpt lat="41.618497600" lon="2.562638000">
        <ele>217.40</ele>
        <time>2013-03-17T10:32:29Z</time>
      </trkpt>
      <trkpt lat="41.618526900" lon="2.562652700">
        <ele>218.80</ele>
        <time>2013-03-17T10:32:37Z</time>
      </trkpt>
      <trkpt lat="41.618529300" lon="2.562662800">
        <ele>218.80</ele>
        <time>2013-03-17T10:32:46Z</time>
      </trkpt>
      <trkpt lat="41.618548700" lon="2.562676500">
        <ele>219.30</ele>
        <time>2013-03-17T10:32:53Z</time>
      </trkpt>
      <trkpt lat="41.618577700" lon="2.562688900">
        <ele>220.30</ele>
        <time>2013-03-17T10:33:00Z</time>
      </trkpt>
      <trkpt lat="41.618609000" lon="2.562699600">
        <ele>221.20</ele>
        <time>2013-03-17T10:33:07Z</time>
      </trkpt>
      <trkpt lat="41.618620700" lon="2.562713600">
        <ele>221.20</ele>
        <time>2013-03-17T10:33:12Z</time>
      </trkpt>
      <trkpt lat="41.618636500" lon="2.562732900">
        <ele>221.70</ele>
        <time>2013-03-17T10:33:18Z</time>
      </trkpt>
      <trkpt lat="41.618732500" lon="2.562808200">
        <ele>224.10</ele>
        <time>2013-03-17T10:33:28Z</time>
      </trkpt>
      <trkpt lat="41.618823200" lon="2.562889900">
        <ele>226.50</ele>
        <time>2013-03-17T10:33:37Z</time>
      </trkpt>
      <trkpt lat="41.618862000" lon="2.562956900">
        <ele>228.00</ele>
        <time>2013-03-17T10:33:44Z</time>
      </trkpt>
      <trkpt lat="41.618869900" lon="2.563013200">
        <ele>228.90</ele>
        <time>2013-03-17T10:33:47Z</time>
      </trkpt>
      <trkpt lat="41.618840500" lon="2.563104900">
        <ele>230.90</ele>
        <time>2013-03-17T10:33:56Z</time>
      </trkpt>
      <trkpt lat="41.618766200" lon="2.563103100">
        <ele>232.80</ele>
        <time>2013-03-17T10:34:03Z</time>
      </trkpt>
      <trkpt lat="41.618676100" lon="2.563130800">
        <ele>234.70</ele>
        <time>2013-03-17T10:34:13Z</time>
      </trkpt>
      <trkpt lat="41.618599000" lon="2.563180500">
        <ele>236.10</ele>
        <time>2013-03-17T10:34:22Z</time>
      </trkpt>
      <trkpt lat="41.618522300" lon="2.563206400">
        <ele>237.60</ele>
        <time>2013-03-17T10:34:29Z</time>
      </trkpt>
      <trkpt lat="41.618437200" lon="2.563209400">
        <ele>239.50</ele>
        <time>2013-03-17T10:34:38Z</time>
      </trkpt>
      <trkpt lat="41.618359300" lon="2.563216600">
        <ele>240.90</ele>
        <time>2013-03-17T10:34:46Z</time>
      </trkpt>
      <trkpt lat="41.618283900" lon="2.563217500">
        <ele>242.40</ele>
        <time>2013-03-17T10:34:53Z</time>
      </trkpt>
      <trkpt lat="41.618183200" lon="2.563225200">
        <ele>244.30</ele>
        <time>2013-03-17T10:35:02Z</time>
      </trkpt>
      <trkpt lat="41.618095600" lon="2.563226900">
        <ele>245.80</ele>
        <time>2013-03-17T10:35:09Z</time>
      </trkpt>
      <trkpt lat="41.617997400" lon="2.563235000">
        <ele>247.20</ele>
        <time>2013-03-17T10:35:18Z</time>
      </trkpt>
      <trkpt lat="41.617894200" lon="2.563241000">
        <ele>249.10</ele>
        <time>2013-03-17T10:35:28Z</time>
      </trkpt>
      <trkpt lat="41.617864400" lon="2.563251600">
        <ele>249.60</ele>
        <time>2013-03-17T10:35:30Z</time>
      </trkpt>
      <trkpt lat="41.617765400" lon="2.563297400">
        <ele>251.00</ele>
        <time>2013-03-17T10:35:40Z</time>
      </trkpt>
      <trkpt lat="41.617681200" lon="2.563352700">
        <ele>252.50</ele>
        <time>2013-03-17T10:35:47Z</time>
      </trkpt>
      <trkpt lat="41.617610500" lon="2.563398300">
        <ele>253.90</ele>
        <time>2013-03-17T10:35:56Z</time>
      </trkpt>
      <trkpt lat="41.617517700" lon="2.563424400">
        <ele>255.40</ele>
        <time>2013-03-17T10:36:05Z</time>
      </trkpt>
      <trkpt lat="41.617451500" lon="2.563465900">
        <ele>256.30</ele>
        <time>2013-03-17T10:36:12Z</time>
      </trkpt>
      <trkpt lat="41.617393900" lon="2.563523300">
        <ele>257.30</ele>
        <time>2013-03-17T10:36:19Z</time>
      </trkpt>
      <trkpt lat="41.617329000" lon="2.563597100">
        <ele>257.80</ele>
        <time>2013-03-17T10:36:26Z</time>
      </trkpt>
      <trkpt lat="41.617260300" lon="2.563679600">
        <ele>258.20</ele>
        <time>2013-03-17T10:36:34Z</time>
      </trkpt>
      <trkpt lat="41.617225900" lon="2.563725100">
        <ele>258.70</ele>
        <time>2013-03-17T10:36:38Z</time>
      </trkpt>
      <trkpt lat="41.617170800" lon="2.563778500">
        <ele>258.70</ele>
        <time>2013-03-17T10:36:43Z</time>
      </trkpt>
      <trkpt lat="41.617080800" lon="2.563853200">
        <ele>259.20</ele>
        <time>2013-03-17T10:36:52Z</time>
      </trkpt>
      <trkpt lat="41.616990100" lon="2.563916700">
        <ele>260.60</ele>
        <time>2013-03-17T10:37:02Z</time>
      </trkpt>
      <trkpt lat="41.616903800" lon="2.563962000">
        <ele>261.60</ele>
        <time>2013-03-17T10:37:09Z</time>
      </trkpt>
      <trkpt lat="41.616843600" lon="2.564009800">
        <ele>262.60</ele>
        <time>2013-03-17T10:37:16Z</time>
      </trkpt>
      <trkpt lat="41.616740500" lon="2.564111100">
        <ele>265.00</ele>
        <time>2013-03-17T10:37:25Z</time>
      </trkpt>
      <trkpt lat="41.616667000" lon="2.564201800">
        <ele>267.40</ele>
        <time>2013-03-17T10:37:35Z</time>
      </trkpt>
      <trkpt lat="41.616573500" lon="2.564304700">
        <ele>269.80</ele>
        <time>2013-03-17T10:37:44Z</time>
      </trkpt>
      <trkpt lat="41.616513800" lon="2.564369700">
        <ele>271.70</ele>
        <time>2013-03-17T10:37:51Z</time>
      </trkpt>
      <trkpt lat="41.616436400" lon="2.564500500">
        <ele>273.60</ele>
        <time>2013-03-17T10:38:00Z</time>
      </trkpt>
      <trkpt lat="41.616370600" lon="2.564629200">
        <ele>276.00</ele>
        <time>2013-03-17T10:38:10Z</time>
      </trkpt>
      <trkpt lat="41.616293400" lon="2.564741100">
        <ele>278.00</ele>
        <time>2013-03-17T10:38:17Z</time>
      </trkpt>
      <trkpt lat="41.616221700" lon="2.564749600">
        <ele>277.50</ele>
        <time>2013-03-17T10:38:24Z</time>
      </trkpt>
      <trkpt lat="41.616206700" lon="2.564726600">
        <ele>277.50</ele>
        <time>2013-03-17T10:38:42Z</time>
      </trkpt>
      <trkpt lat="41.616198900" lon="2.564721900">
        <ele>277.50</ele>
        <time>2013-03-17T10:38:57Z</time>
      </trkpt>
      <trkpt lat="41.616196800" lon="2.564721800">
        <ele>277.50</ele>
        <time>2013-03-17T10:39:18Z</time>
      </trkpt>
      <trkpt lat="41.616176900" lon="2.564739600">
        <ele>277.50</ele>
        <time>2013-03-17T10:39:32Z</time>
      </trkpt>
      <trkpt lat="41.616139000" lon="2.564728100">
        <ele>277.00</ele>
        <time>2013-03-17T10:39:34Z</time>
      </trkpt>
      <trkpt lat="41.616013700" lon="2.564773600">
        <ele>273.60</ele>
        <time>2013-03-17T10:39:41Z</time>
      </trkpt>
      <trkpt lat="41.615985000" lon="2.564779600">
        <ele>273.10</ele>
        <time>2013-03-17T10:39:41Z</time>
      </trkpt>
      <trkpt lat="41.615798600" lon="2.564818500">
        <ele>271.70</ele>
        <time>2013-03-17T10:39:48Z</time>
      </trkpt>
      <trkpt lat="41.615658800" lon="2.564863000">
        <ele>269.30</ele>
        <time>2013-03-17T10:39:53Z</time>
      </trkpt>
      <trkpt lat="41.615499700" lon="2.564916000">
        <ele>265.90</ele>
        <time>2013-03-17T10:39:58Z</time>
      </trkpt>
      <trkpt lat="41.615455600" lon="2.564930300">
        <ele>265.90</ele>
        <time>2013-03-17T10:39:58Z</time>
      </trkpt>
      <trkpt lat="41.615272300" lon="2.564984000">
        <ele>264.00</ele>
        <time>2013-03-17T10:40:05Z</time>
      </trkpt>
      <trkpt lat="41.615253600" lon="2.564996500">
        <ele>264.00</ele>
        <time>2013-03-17T10:40:05Z</time>
      </trkpt>
      <trkpt lat="41.615204500" lon="2.565087100">
        <ele>264.00</ele>
        <time>2013-03-17T10:40:10Z</time>
      </trkpt>
      <trkpt lat="41.615151600" lon="2.565240900">
        <ele>264.50</ele>
        <time>2013-03-17T10:40:17Z</time>
      </trkpt>
      <trkpt lat="41.615132900" lon="2.565413500">
        <ele>265.50</ele>
        <time>2013-03-17T10:40:24Z</time>
      </trkpt>
      <trkpt lat="41.615086500" lon="2.565561000">
        <ele>266.90</ele>
        <time>2013-03-17T10:40:31Z</time>
      </trkpt>
      <trkpt lat="41.615063900" lon="2.565728400">
        <ele>267.90</ele>
        <time>2013-03-17T10:40:36Z</time>
      </trkpt>
      <trkpt lat="41.615060700" lon="2.565749600">
        <ele>267.90</ele>
        <time>2013-03-17T10:40:38Z</time>
      </trkpt>
      <trkpt lat="41.615044300" lon="2.565853800">
        <ele>268.80</ele>
        <time>2013-03-17T10:40:42Z</time>
      </trkpt>
      <trkpt lat="41.615067800" lon="2.565908500">
        <ele>269.30</ele>
        <time>2013-03-17T10:40:45Z</time>
      </trkpt>
      <trkpt lat="41.615040700" lon="2.566112000">
        <ele>272.20</ele>
        <time>2013-03-17T10:40:56Z</time>
      </trkpt>
      <trkpt lat="41.615016400" lon="2.566220700">
        <ele>272.70</ele>
        <time>2013-03-17T10:41:01Z</time>
      </trkpt>
      <trkpt lat="41.615001500" lon="2.566280500">
        <ele>273.10</ele>
        <time>2013-03-17T10:41:08Z</time>
      </trkpt>
      <trkpt lat="41.614979000" lon="2.566396800">
        <ele>274.60</ele>
        <time>2013-03-17T10:41:17Z</time>
      </trkpt>
      <trkpt lat="41.614961700" lon="2.566467500">
        <ele>275.60</ele>
        <time>2013-03-17T10:41:22Z</time>
      </trkpt>
      <trkpt lat="41.614935000" lon="2.566504000">
        <ele>276.00</ele>
        <time>2013-03-17T10:41:25Z</time>
      </trkpt>
      <trkpt lat="41.614837800" lon="2.566582700">
        <ele>277.00</ele>
        <time>2013-03-17T10:41:32Z</time>
      </trkpt>
      <trkpt lat="41.614710800" lon="2.566674600">
        <ele>277.50</ele>
        <time>2013-03-17T10:41:41Z</time>
      </trkpt>
      <trkpt lat="41.614599200" lon="2.566745900">
        <ele>278.00</ele>
        <time>2013-03-17T10:41:50Z</time>
      </trkpt>
      <trkpt lat="41.614570300" lon="2.566759900">
        <ele>278.00</ele>
        <time>2013-03-17T10:41:51Z</time>
      </trkpt>
      <trkpt lat="41.614439500" lon="2.566945200">
        <ele>278.40</ele>
        <time>2013-03-17T10:42:02Z</time>
      </trkpt>
      <trkpt lat="41.614403200" lon="2.567038400">
        <ele>278.40</ele>
        <time>2013-03-17T10:42:07Z</time>
      </trkpt>
      <trkpt lat="41.614368500" lon="2.567174000">
        <ele>278.90</ele>
        <time>2013-03-17T10:42:14Z</time>
      </trkpt>
      <trkpt lat="41.614360900" lon="2.567193000">
        <ele>278.90</ele>
        <time>2013-03-17T10:42:14Z</time>
      </trkpt>
      <trkpt lat="41.614273400" lon="2.567468100">
        <ele>279.40</ele>
        <time>2013-03-17T10:42:23Z</time>
      </trkpt>
      <trkpt lat="41.614259800" lon="2.567507100">
        <ele>279.40</ele>
        <time>2013-03-17T10:42:24Z</time>
      </trkpt>
      <trkpt lat="41.614144600" lon="2.567734900">
        <ele>279.40</ele>
        <time>2013-03-17T10:42:31Z</time>
      </trkpt>
      <trkpt lat="41.614054500" lon="2.567864600">
        <ele>278.90</ele>
        <time>2013-03-17T10:42:37Z</time>
      </trkpt>
      <trkpt lat="41.613865800" lon="2.568082000">
        <ele>277.00</ele>
        <time>2013-03-17T10:42:42Z</time>
      </trkpt>
      <trkpt lat="41.613706700" lon="2.568215400">
        <ele>276.00</ele>
        <time>2013-03-17T10:42:47Z</time>
      </trkpt>
      <trkpt lat="41.613608900" lon="2.568252800">
        <ele>276.50</ele>
        <time>2013-03-17T10:42:51Z</time>
      </trkpt>
      <trkpt lat="41.613481600" lon="2.568282700">
        <ele>277.50</ele>
        <time>2013-03-17T10:42:58Z</time>
      </trkpt>
      <trkpt lat="41.613358100" lon="2.568262300">
        <ele>278.00</ele>
        <time>2013-03-17T10:43:05Z</time>
      </trkpt>
      <trkpt lat="41.613208200" lon="2.568222500">
        <ele>279.90</ele>
        <time>2013-03-17T10:43:13Z</time>
      </trkpt>
      <trkpt lat="41.613120300" lon="2.568196700">
        <ele>280.40</ele>
        <time>2013-03-17T10:43:17Z</time>
      </trkpt>
      <trkpt lat="41.612955900" lon="2.568262600">
        <ele>280.80</ele>
        <time>2013-03-17T10:43:24Z</time>
      </trkpt>
      <trkpt lat="41.612922100" lon="2.568317200">
        <ele>280.80</ele>
        <time>2013-03-17T10:43:27Z</time>
      </trkpt>
      <trkpt lat="41.612916000" lon="2.568562900">
        <ele>280.80</ele>
        <time>2013-03-17T10:43:36Z</time>
      </trkpt>
      <trkpt lat="41.612931400" lon="2.568705900">
        <ele>280.80</ele>
        <time>2013-03-17T10:43:41Z</time>
      </trkpt>
      <trkpt lat="41.613024200" lon="2.568913400">
        <ele>280.80</ele>
        <time>2013-03-17T10:43:48Z</time>
      </trkpt>
      <trkpt lat="41.613104800" lon="2.568966000">
        <ele>279.40</ele>
        <time>2013-03-17T10:43:52Z</time>
      </trkpt>
      <trkpt lat="41.613162800" lon="2.569040800">
        <ele>278.40</ele>
        <time>2013-03-17T10:43:53Z</time>
      </trkpt>
      <trkpt lat="41.613216600" lon="2.569210000">
        <ele>278.00</ele>
        <time>2013-03-17T10:43:57Z</time>
      </trkpt>
      <trkpt lat="41.613188300" lon="2.569290000">
        <ele>278.40</ele>
        <time>2013-03-17T10:44:00Z</time>
      </trkpt>
      <trkpt lat="41.613095100" lon="2.569508700">
        <ele>278.00</ele>
        <time>2013-03-17T10:44:09Z</time>
      </trkpt>
      <trkpt lat="41.613003700" lon="2.569643000">
        <ele>277.00</ele>
        <time>2013-03-17T10:44:12Z</time>
      </trkpt>
      <trkpt lat="41.612890600" lon="2.569772000">
        <ele>274.60</ele>
        <time>2013-03-17T10:44:16Z</time>
      </trkpt>
      <trkpt lat="41.612713400" lon="2.569838800">
        <ele>273.60</ele>
        <time>2013-03-17T10:44:21Z</time>
      </trkpt>
      <trkpt lat="41.612503400" lon="2.569863700">
        <ele>273.60</ele>
        <time>2013-03-17T10:44:28Z</time>
      </trkpt>
      <trkpt lat="41.612474200" lon="2.569882900">
        <ele>273.60</ele>
        <time>2013-03-17T10:44:28Z</time>
      </trkpt>
      <trkpt lat="41.612394100" lon="2.569920200">
        <ele>272.70</ele>
        <time>2013-03-17T10:44:30Z</time>
      </trkpt>
      <trkpt lat="41.612212400" lon="2.570111800">
        <ele>270.80</ele>
        <time>2013-03-17T10:44:35Z</time>
      </trkpt>
      <trkpt lat="41.612124500" lon="2.570291000">
        <ele>267.40</ele>
        <time>2013-03-17T10:44:42Z</time>
      </trkpt>
      <trkpt lat="41.612082900" lon="2.570396400">
        <ele>264.00</ele>
        <time>2013-03-17T10:44:49Z</time>
      </trkpt>
      <trkpt lat="41.612063700" lon="2.570418800">
        <ele>263.10</ele>
        <time>2013-03-17T10:44:51Z</time>
      </trkpt>
      <trkpt lat="41.612056800" lon="2.570525400">
        <ele>262.10</ele>
        <time>2013-03-17T10:44:54Z</time>
      </trkpt>
      <trkpt lat="41.612117800" lon="2.570666100">
        <ele>259.20</ele>
        <time>2013-03-17T10:45:01Z</time>
      </trkpt>
      <trkpt lat="41.612067800" lon="2.570679300">
        <ele>259.70</ele>
        <time>2013-03-17T10:45:15Z</time>
      </trkpt>
      <trkpt lat="41.612053500" lon="2.570678800">
        <ele>259.20</ele>
        <time>2013-03-17T10:45:27Z</time>
      </trkpt>
      <trkpt lat="41.612053500" lon="2.570693600">
        <ele>259.70</ele>
        <time>2013-03-17T10:45:36Z</time>
      </trkpt>
      <trkpt lat="41.612123200" lon="2.570816200">
        <ele>259.70</ele>
        <time>2013-03-17T10:45:41Z</time>
      </trkpt>
      <trkpt lat="41.612205400" lon="2.570989100">
        <ele>260.20</ele>
        <time>2013-03-17T10:45:48Z</time>
      </trkpt>
      <trkpt lat="41.612209800" lon="2.571214600">
        <ele>260.60</ele>
        <time>2013-03-17T10:45:55Z</time>
      </trkpt>
      <trkpt lat="41.612196700" lon="2.571382000">
        <ele>261.60</ele>
        <time>2013-03-17T10:46:00Z</time>
      </trkpt>
      <trkpt lat="41.612129600" lon="2.571625600">
        <ele>262.60</ele>
        <time>2013-03-17T10:46:09Z</time>
      </trkpt>
      <trkpt lat="41.612017800" lon="2.571822500">
        <ele>263.50</ele>
        <time>2013-03-17T10:46:16Z</time>
      </trkpt>
      <trkpt lat="41.611820000" lon="2.571941600">
        <ele>265.00</ele>
        <time>2013-03-17T10:46:25Z</time>
      </trkpt>
      <trkpt lat="41.611648500" lon="2.571971300">
        <ele>265.90</ele>
        <time>2013-03-17T10:46:34Z</time>
      </trkpt>
      <trkpt lat="41.611523400" lon="2.571952900">
        <ele>266.90</ele>
        <time>2013-03-17T10:46:41Z</time>
      </trkpt>
      <trkpt lat="41.611397400" lon="2.571934500">
        <ele>268.80</ele>
        <time>2013-03-17T10:46:49Z</time>
      </trkpt>
      <trkpt lat="41.611326500" lon="2.571926600">
        <ele>269.80</ele>
        <time>2013-03-17T10:46:53Z</time>
      </trkpt>
      <trkpt lat="41.611192900" lon="2.571941900">
        <ele>271.20</ele>
        <time>2013-03-17T10:47:00Z</time>
      </trkpt>
      <trkpt lat="41.611089300" lon="2.571970400">
        <ele>272.70</ele>
        <time>2013-03-17T10:47:07Z</time>
      </trkpt>
      <trkpt lat="41.610957800" lon="2.572005200">
        <ele>272.20</ele>
        <time>2013-03-17T10:47:14Z</time>
      </trkpt>
      <trkpt lat="41.610822600" lon="2.572011700">
        <ele>272.70</ele>
        <time>2013-03-17T10:47:22Z</time>
      </trkpt>
      <trkpt lat="41.610807900" lon="2.572007500">
        <ele>272.70</ele>
        <time>2013-03-17T10:47:22Z</time>
      </trkpt>
      <trkpt lat="41.610764600" lon="2.571873500">
        <ele>273.10</ele>
        <time>2013-03-17T10:47:31Z</time>
      </trkpt>
      <trkpt lat="41.610765600" lon="2.571750200">
        <ele>274.10</ele>
        <time>2013-03-17T10:47:36Z</time>
      </trkpt>
      <trkpt lat="41.610768500" lon="2.571569300">
        <ele>275.10</ele>
        <time>2013-03-17T10:47:43Z</time>
      </trkpt>
      <trkpt lat="41.610781600" lon="2.571367900">
        <ele>277.00</ele>
        <time>2013-03-17T10:47:52Z</time>
      </trkpt>
      <trkpt lat="41.610787900" lon="2.571183400">
        <ele>278.40</ele>
        <time>2013-03-17T10:48:01Z</time>
      </trkpt>
      <trkpt lat="41.610792600" lon="2.571004700">
        <ele>280.40</ele>
        <time>2013-03-17T10:48:09Z</time>
      </trkpt>
      <trkpt lat="41.610794300" lon="2.570808500">
        <ele>281.80</ele>
        <time>2013-03-17T10:48:16Z</time>
      </trkpt>
      <trkpt lat="41.610812800" lon="2.570607000">
        <ele>282.30</ele>
        <time>2013-03-17T10:48:25Z</time>
      </trkpt>
      <trkpt lat="41.610857300" lon="2.570399300">
        <ele>283.20</ele>
        <time>2013-03-17T10:48:32Z</time>
      </trkpt>
      <trkpt lat="41.610923000" lon="2.570185200">
        <ele>283.70</ele>
        <time>2013-03-17T10:48:41Z</time>
      </trkpt>
      <trkpt lat="41.611017600" lon="2.570184500">
        <ele>283.70</ele>
        <time>2013-03-17T10:48:46Z</time>
      </trkpt>
      <trkpt lat="41.611086200" lon="2.570240800">
        <ele>284.70</ele>
        <time>2013-03-17T10:48:53Z</time>
      </trkpt>
      <trkpt lat="41.611141600" lon="2.570280800">
        <ele>284.70</ele>
        <time>2013-03-17T10:48:56Z</time>
      </trkpt>
      <trkpt lat="41.611261500" lon="2.570353200">
        <ele>283.20</ele>
        <time>2013-03-17T10:49:03Z</time>
      </trkpt>
      <trkpt lat="41.611330800" lon="2.570411700">
        <ele>282.30</ele>
        <time>2013-03-17T10:49:09Z</time>
      </trkpt>
      <trkpt lat="41.611386200" lon="2.570561000">
        <ele>281.80</ele>
        <time>2013-03-17T10:49:14Z</time>
      </trkpt>
      <trkpt lat="41.611438900" lon="2.570709400">
        <ele>281.80</ele>
        <time>2013-03-17T10:49:21Z</time>
      </trkpt>
      <trkpt lat="41.611521000" lon="2.570769700">
        <ele>279.90</ele>
        <time>2013-03-17T10:49:28Z</time>
      </trkpt>
      <trkpt lat="41.611529900" lon="2.570766900">
        <ele>279.40</ele>
        <time>2013-03-17T10:49:28Z</time>
      </trkpt>
      <trkpt lat="41.611554200" lon="2.570783600">
        <ele>278.00</ele>
        <time>2013-03-17T10:49:35Z</time>
      </trkpt>
      <trkpt lat="41.611605500" lon="2.570797600">
        <ele>277.50</ele>
        <time>2013-03-17T10:49:49Z</time>
      </trkpt>
      <trkpt lat="41.611620200" lon="2.570795100">
        <ele>278.00</ele>
        <time>2013-03-17T10:49:57Z</time>
      </trkpt>
      <trkpt lat="41.611619400" lon="2.570797700">
        <ele>278.90</ele>
        <time>2013-03-17T10:50:08Z</time>
      </trkpt>
      <trkpt lat="41.611577600" lon="2.570785600">
        <ele>280.40</ele>
        <time>2013-03-17T10:50:15Z</time>
      </trkpt>
      <trkpt lat="41.611543300" lon="2.570742100">
        <ele>281.30</ele>
        <time>2013-03-17T10:50:24Z</time>
      </trkpt>
      <trkpt lat="41.611528000" lon="2.570709600">
        <ele>281.30</ele>
        <time>2013-03-17T10:50:30Z</time>
      </trkpt>
      <trkpt lat="41.611505900" lon="2.570674800">
        <ele>281.80</ele>
        <time>2013-03-17T10:50:36Z</time>
      </trkpt>
      <trkpt lat="41.611483000" lon="2.570610200">
        <ele>282.30</ele>
        <time>2013-03-17T10:50:39Z</time>
      </trkpt>
      <trkpt lat="41.611386500" lon="2.570451300">
        <ele>282.80</ele>
        <time>2013-03-17T10:50:48Z</time>
      </trkpt>
      <trkpt lat="41.611372500" lon="2.570434700">
        <ele>282.80</ele>
        <time>2013-03-17T10:50:50Z</time>
      </trkpt>
      <trkpt lat="41.611286900" lon="2.570369500">
        <ele>283.70</ele>
        <time>2013-03-17T10:50:55Z</time>
      </trkpt>
      <trkpt lat="41.611248200" lon="2.570349300">
        <ele>284.70</ele>
        <time>2013-03-17T10:50:58Z</time>
      </trkpt>
      <trkpt lat="41.611142300" lon="2.570265000">
        <ele>285.20</ele>
        <time>2013-03-17T10:51:05Z</time>
      </trkpt>
      <trkpt lat="41.611147900" lon="2.570245400">
        <ele>284.70</ele>
        <time>2013-03-17T10:51:09Z</time>
      </trkpt>
      <trkpt lat="41.611235200" lon="2.570191100">
        <ele>284.20</ele>
        <time>2013-03-17T10:51:16Z</time>
      </trkpt>
      <trkpt lat="41.611286600" lon="2.570153100">
        <ele>282.80</ele>
        <time>2013-03-17T10:51:21Z</time>
      </trkpt>
      <trkpt lat="41.611306000" lon="2.570148100">
        <ele>281.80</ele>
        <time>2013-03-17T10:51:23Z</time>
      </trkpt>
      <trkpt lat="41.611329600" lon="2.570159000">
        <ele>281.30</ele>
        <time>2013-03-17T10:51:37Z</time>
      </trkpt>
      <trkpt lat="41.611394300" lon="2.570247600">
        <ele>280.40</ele>
        <time>2013-03-17T10:51:45Z</time>
      </trkpt>
      <trkpt lat="41.611441900" lon="2.570331500">
        <ele>279.90</ele>
        <time>2013-03-17T10:51:49Z</time>
      </trkpt>
      <trkpt lat="41.611535700" lon="2.570515600">
        <ele>278.90</ele>
        <time>2013-03-17T10:51:56Z</time>
      </trkpt>
      <trkpt lat="41.611611500" lon="2.570646600">
        <ele>277.50</ele>
        <time>2013-03-17T10:52:01Z</time>
      </trkpt>
      <trkpt lat="41.611653400" lon="2.570699300">
        <ele>276.00</ele>
        <time>2013-03-17T10:52:03Z</time>
      </trkpt>
      <trkpt lat="41.611710100" lon="2.570735500">
        <ele>275.10</ele>
        <time>2013-03-17T10:52:06Z</time>
      </trkpt>
      <trkpt lat="41.611727700" lon="2.570749400">
        <ele>274.60</ele>
        <time>2013-03-17T10:52:08Z</time>
      </trkpt>
      <trkpt lat="41.611754200" lon="2.570857800">
        <ele>274.10</ele>
        <time>2013-03-17T10:52:13Z</time>
      </trkpt>
      <trkpt lat="41.611849600" lon="2.571024400">
        <ele>273.10</ele>
        <time>2013-03-17T10:52:18Z</time>
      </trkpt>
      <trkpt lat="41.611883400" lon="2.571076000">
        <ele>271.70</ele>
        <time>2013-03-17T10:52:22Z</time>
      </trkpt>
      <trkpt lat="41.611907100" lon="2.571073200">
        <ele>270.80</ele>
        <time>2013-03-17T10:52:24Z</time>
      </trkpt>
      <trkpt lat="41.611904900" lon="2.570979000">
        <ele>269.80</ele>
        <time>2013-03-17T10:52:29Z</time>
      </trkpt>
      <trkpt lat="41.611896200" lon="2.570878800">
        <ele>268.40</ele>
        <time>2013-03-17T10:52:32Z</time>
      </trkpt>
      <trkpt lat="41.611851900" lon="2.570763800">
        <ele>268.80</ele>
        <time>2013-03-17T10:52:38Z</time>
      </trkpt>
      <trkpt lat="41.611799200" lon="2.570650200">
        <ele>270.80</ele>
        <time>2013-03-17T10:52:43Z</time>
      </trkpt>
      <trkpt lat="41.611791100" lon="2.570629800">
        <ele>270.80</ele>
        <time>2013-03-17T10:52:45Z</time>
      </trkpt>
      <trkpt lat="41.611746500" lon="2.570572800">
        <ele>271.70</ele>
        <time>2013-03-17T10:52:48Z</time>
      </trkpt>
      <trkpt lat="41.611723100" lon="2.570528200">
        <ele>271.70</ele>
        <time>2013-03-17T10:52:55Z</time>
      </trkpt>
      <trkpt lat="41.611714100" lon="2.570495800">
        <ele>271.70</ele>
        <time>2013-03-17T10:53:02Z</time>
      </trkpt>
      <trkpt lat="41.611713700" lon="2.570490600">
        <ele>271.70</ele>
        <time>2013-03-17T10:53:04Z</time>
      </trkpt>
      <trkpt lat="41.611704500" lon="2.570418500">
        <ele>271.20</ele>
        <time>2013-03-17T10:53:09Z</time>
      </trkpt>
      <trkpt lat="41.611717800" lon="2.570446400">
        <ele>270.30</ele>
        <time>2013-03-17T10:53:11Z</time>
      </trkpt>
      <trkpt lat="41.611794400" lon="2.570440300">
        <ele>268.40</ele>
        <time>2013-03-17T10:53:16Z</time>
      </trkpt>
      <trkpt lat="41.611823900" lon="2.570427200">
        <ele>267.90</ele>
        <time>2013-03-17T10:53:19Z</time>
      </trkpt>
      <trkpt lat="41.611825900" lon="2.570494600">
        <ele>266.90</ele>
        <time>2013-03-17T10:53:23Z</time>
      </trkpt>
      <trkpt lat="41.611882900" lon="2.570500400">
        <ele>265.00</ele>
        <time>2013-03-17T10:53:28Z</time>
      </trkpt>
      <trkpt lat="41.611934400" lon="2.570500400">
        <ele>264.50</ele>
        <time>2013-03-17T10:53:33Z</time>
      </trkpt>
      <trkpt lat="41.611939400" lon="2.570524100">
        <ele>264.00</ele>
        <time>2013-03-17T10:53:33Z</time>
      </trkpt>
      <trkpt lat="41.612045600" lon="2.570694200">
        <ele>261.10</ele>
        <time>2013-03-17T10:53:42Z</time>
      </trkpt>
      <trkpt lat="41.612118400" lon="2.570814700">
        <ele>260.60</ele>
        <time>2013-03-17T10:53:47Z</time>
      </trkpt>
      <trkpt lat="41.612194900" lon="2.570940700">
        <ele>260.60</ele>
        <time>2013-03-17T10:53:54Z</time>
      </trkpt>
      <trkpt lat="41.612239500" lon="2.571025500">
        <ele>259.70</ele>
        <time>2013-03-17T10:53:56Z</time>
      </trkpt>
      <trkpt lat="41.612307500" lon="2.571263900">
        <ele>256.80</ele>
        <time>2013-03-17T10:54:03Z</time>
      </trkpt>
      <trkpt lat="41.612291300" lon="2.571402100">
        <ele>256.80</ele>
        <time>2013-03-17T10:54:08Z</time>
      </trkpt>
      <trkpt lat="41.612277000" lon="2.571489800">
        <ele>256.80</ele>
        <time>2013-03-17T10:54:12Z</time>
      </trkpt>
      <trkpt lat="41.612249700" lon="2.571676000">
        <ele>256.80</ele>
        <time>2013-03-17T10:54:20Z</time>
      </trkpt>
      <trkpt lat="41.612250300" lon="2.571703300">
        <ele>256.80</ele>
        <time>2013-03-17T10:54:22Z</time>
      </trkpt>
      <trkpt lat="41.612248400" lon="2.571751100">
        <ele>256.80</ele>
        <time>2013-03-17T10:54:24Z</time>
      </trkpt>
      <trkpt lat="41.612164700" lon="2.571902000">
        <ele>257.80</ele>
        <time>2013-03-17T10:54:33Z</time>
      </trkpt>
      <trkpt lat="41.612070600" lon="2.571980500">
        <ele>258.70</ele>
        <time>2013-03-17T10:54:38Z</time>
      </trkpt>
      <trkpt lat="41.611963500" lon="2.572048900">
        <ele>259.20</ele>
        <time>2013-03-17T10:54:45Z</time>
      </trkpt>
      <trkpt lat="41.611932300" lon="2.572073000">
        <ele>259.70</ele>
        <time>2013-03-17T10:54:48Z</time>
      </trkpt>
      <trkpt lat="41.611825500" lon="2.572149500">
        <ele>257.80</ele>
        <time>2013-03-17T10:54:54Z</time>
      </trkpt>
      <trkpt lat="41.611769600" lon="2.572200600">
        <ele>256.30</ele>
        <time>2013-03-17T10:54:57Z</time>
      </trkpt>
      <trkpt lat="41.611710300" lon="2.572347600">
        <ele>253.00</ele>
        <time>2013-03-17T10:55:02Z</time>
      </trkpt>
      <trkpt lat="41.611702300" lon="2.572399000">
        <ele>252.50</ele>
        <time>2013-03-17T10:55:04Z</time>
      </trkpt>
      <trkpt lat="41.611682300" lon="2.572466000">
        <ele>250.60</ele>
        <time>2013-03-17T10:55:07Z</time>
      </trkpt>
      <trkpt lat="41.611667000" lon="2.572501300">
        <ele>250.10</ele>
        <time>2013-03-17T10:55:09Z</time>
      </trkpt>
      <trkpt lat="41.611578800" lon="2.572694200">
        <ele>246.70</ele>
        <time>2013-03-17T10:55:16Z</time>
      </trkpt>
      <trkpt lat="41.611522500" lon="2.572790700">
        <ele>246.70</ele>
        <time>2013-03-17T10:55:23Z</time>
      </trkpt>
      <trkpt lat="41.611533400" lon="2.572849000">
        <ele>245.80</ele>
        <time>2013-03-17T10:55:28Z</time>
      </trkpt>
      <trkpt lat="41.611506700" lon="2.572858800">
        <ele>246.20</ele>
        <time>2013-03-17T10:55:35Z</time>
      </trkpt>
      <trkpt lat="41.611473600" lon="2.572837000">
        <ele>247.20</ele>
        <time>2013-03-17T10:55:42Z</time>
      </trkpt>
      <trkpt lat="41.611461400" lon="2.572852400">
        <ele>247.20</ele>
        <time>2013-03-17T10:55:51Z</time>
      </trkpt>
      <trkpt lat="41.611449300" lon="2.572868900">
        <ele>248.20</ele>
        <time>2013-03-17T10:56:07Z</time>
      </trkpt>
      <trkpt lat="41.611438700" lon="2.572859900">
        <ele>247.70</ele>
        <time>2013-03-17T10:56:19Z</time>
      </trkpt>
      <trkpt lat="41.611449900" lon="2.572845300">
        <ele>247.70</ele>
        <time>2013-03-17T10:56:35Z</time>
      </trkpt>
      <trkpt lat="41.611463800" lon="2.572848500">
        <ele>247.70</ele>
        <time>2013-03-17T10:56:43Z</time>
      </trkpt>
      <trkpt lat="41.611421600" lon="2.572835900">
        <ele>248.20</ele>
        <time>2013-03-17T10:56:50Z</time>
      </trkpt>
      <trkpt lat="41.611400100" lon="2.572823000">
        <ele>248.60</ele>
        <time>2013-03-17T10:56:57Z</time>
      </trkpt>
      <trkpt lat="41.611364400" lon="2.572816400">
        <ele>249.10</ele>
        <time>2013-03-17T10:57:08Z</time>
      </trkpt>
      <trkpt lat="41.611334200" lon="2.572814900">
        <ele>249.60</ele>
        <time>2013-03-17T10:57:16Z</time>
      </trkpt>
      <trkpt lat="41.611319100" lon="2.572811900">
        <ele>249.10</ele>
        <time>2013-03-17T10:57:29Z</time>
      </trkpt>
      <trkpt lat="41.611305900" lon="2.572821800">
        <ele>249.10</ele>
        <time>2013-03-17T10:57:37Z</time>
      </trkpt>
      <trkpt lat="41.611288800" lon="2.572799900">
        <ele>249.60</ele>
        <time>2013-03-17T10:57:46Z</time>
      </trkpt>
      <trkpt lat="41.611267000" lon="2.572779100">
        <ele>250.60</ele>
        <time>2013-03-17T10:57:55Z</time>
      </trkpt>
      <trkpt lat="41.611272300" lon="2.572758800">
        <ele>252.00</ele>
        <time>2013-03-17T10:58:02Z</time>
      </trkpt>
      <trkpt lat="41.611257000" lon="2.572750200">
        <ele>252.50</ele>
        <time>2013-03-17T10:58:07Z</time>
      </trkpt>
      <trkpt lat="41.611232900" lon="2.572704500">
        <ele>253.40</ele>
        <time>2013-03-17T10:58:16Z</time>
      </trkpt>
      <trkpt lat="41.611203300" lon="2.572680700">
        <ele>254.40</ele>
        <time>2013-03-17T10:58:24Z</time>
      </trkpt>
      <trkpt lat="41.611180400" lon="2.572735800">
        <ele>255.90</ele>
        <time>2013-03-17T10:58:31Z</time>
      </trkpt>
      <trkpt lat="41.611176600" lon="2.572772800">
        <ele>256.80</ele>
        <time>2013-03-17T10:58:40Z</time>
      </trkpt>
      <trkpt lat="41.611179700" lon="2.572788600">
        <ele>256.80</ele>
        <time>2013-03-17T10:58:47Z</time>
      </trkpt>
      <trkpt lat="41.611202500" lon="2.572891300">
        <ele>256.30</ele>
        <time>2013-03-17T10:58:54Z</time>
      </trkpt>
      <trkpt lat="41.611226800" lon="2.573026600">
        <ele>257.30</ele>
        <time>2013-03-17T10:59:03Z</time>
      </trkpt>
      <trkpt lat="41.611234800" lon="2.573049400">
        <ele>258.20</ele>
        <time>2013-03-17T10:59:04Z</time>
      </trkpt>
      <trkpt lat="41.611297000" lon="2.573131300">
        <ele>259.20</ele>
        <time>2013-03-17T10:59:13Z</time>
      </trkpt>
      <trkpt lat="41.611306200" lon="2.573174100">
        <ele>259.70</ele>
        <time>2013-03-17T10:59:15Z</time>
      </trkpt>
      <trkpt lat="41.611367000" lon="2.573276000">
        <ele>260.20</ele>
        <time>2013-03-17T10:59:22Z</time>
      </trkpt>
      <trkpt lat="41.611395500" lon="2.573326100">
        <ele>260.20</ele>
        <time>2013-03-17T10:59:29Z</time>
      </trkpt>
      <trkpt lat="41.611454500" lon="2.573408400">
        <ele>259.70</ele>
        <time>2013-03-17T10:59:34Z</time>
      </trkpt>
      <trkpt lat="41.611495300" lon="2.573448400">
        <ele>258.70</ele>
        <time>2013-03-17T10:59:36Z</time>
      </trkpt>
      <trkpt lat="41.611556900" lon="2.573549400">
        <ele>256.80</ele>
        <time>2013-03-17T10:59:41Z</time>
      </trkpt>
      <trkpt lat="41.611666300" lon="2.573642300">
        <ele>253.90</ele>
        <time>2013-03-17T10:59:48Z</time>
      </trkpt>
      <trkpt lat="41.611673100" lon="2.573659200">
        <ele>253.90</ele>
        <time>2013-03-17T10:59:48Z</time>
      </trkpt>
      <trkpt lat="41.611719800" lon="2.573693800">
        <ele>253.40</ele>
        <time>2013-03-17T10:59:51Z</time>
      </trkpt>
      <trkpt lat="41.611882800" lon="2.573678300">
        <ele>252.00</ele>
        <time>2013-03-17T10:59:58Z</time>
      </trkpt>
      <trkpt lat="41.611983500" lon="2.573668400">
        <ele>253.00</ele>
        <time>2013-03-17T11:00:05Z</time>
      </trkpt>
      <trkpt lat="41.612017100" lon="2.573665200">
        <ele>253.40</ele>
        <time>2013-03-17T11:00:07Z</time>
      </trkpt>
      <trkpt lat="41.612175200" lon="2.573670700">
        <ele>253.90</ele>
        <time>2013-03-17T11:00:16Z</time>
      </trkpt>
      <trkpt lat="41.612325700" lon="2.573700600">
        <ele>254.40</ele>
        <time>2013-03-17T11:00:23Z</time>
      </trkpt>
      <trkpt lat="41.612506200" lon="2.573736300">
        <ele>253.90</ele>
        <time>2013-03-17T11:00:30Z</time>
      </trkpt>
      <trkpt lat="41.612623600" lon="2.573805000">
        <ele>253.00</ele>
        <time>2013-03-17T11:00:35Z</time>
      </trkpt>
      <trkpt lat="41.612710900" lon="2.573959200">
        <ele>251.00</ele>
        <time>2013-03-17T11:00:42Z</time>
      </trkpt>
      <trkpt lat="41.612730000" lon="2.574099600">
        <ele>249.10</ele>
        <time>2013-03-17T11:00:49Z</time>
      </trkpt>
      <trkpt lat="41.612722100" lon="2.574172700">
        <ele>248.60</ele>
        <time>2013-03-17T11:00:52Z</time>
      </trkpt>
      <trkpt lat="41.612709700" lon="2.574322100">
        <ele>245.80</ele>
        <time>2013-03-17T11:00:59Z</time>
      </trkpt>
      <trkpt lat="41.612723100" lon="2.574355300">
        <ele>245.80</ele>
        <time>2013-03-17T11:01:01Z</time>
      </trkpt>
      <trkpt lat="41.612883600" lon="2.574479100">
        <ele>244.30</ele>
        <time>2013-03-17T11:01:10Z</time>
      </trkpt>
      <trkpt lat="41.613015600" lon="2.574617300">
        <ele>241.90</ele>
        <time>2013-03-17T11:01:15Z</time>
      </trkpt>
      <trkpt lat="41.613121000" lon="2.574780100">
        <ele>239.00</ele>
        <time>2013-03-17T11:01:20Z</time>
      </trkpt>
      <trkpt lat="41.613191200" lon="2.574926100">
        <ele>236.60</ele>
        <time>2013-03-17T11:01:24Z</time>
      </trkpt>
      <trkpt lat="41.613227700" lon="2.575165700">
        <ele>235.20</ele>
        <time>2013-03-17T11:01:27Z</time>
      </trkpt>
      <trkpt lat="41.613226700" lon="2.575222500">
        <ele>235.70</ele>
        <time>2013-03-17T11:01:29Z</time>
      </trkpt>
      <trkpt lat="41.613252800" lon="2.575374300">
        <ele>238.10</ele>
        <time>2013-03-17T11:01:38Z</time>
      </trkpt>
      <trkpt lat="41.613258600" lon="2.575417800">
        <ele>238.50</ele>
        <time>2013-03-17T11:01:39Z</time>
      </trkpt>
      <trkpt lat="41.613295700" lon="2.575607900">
        <ele>241.40</ele>
        <time>2013-03-17T11:01:48Z</time>
      </trkpt>
      <trkpt lat="41.613312000" lon="2.575689600">
        <ele>242.40</ele>
        <time>2013-03-17T11:01:53Z</time>
      </trkpt>
      <trkpt lat="41.613347000" lon="2.575910200">
        <ele>245.30</ele>
        <time>2013-03-17T11:02:04Z</time>
      </trkpt>
      <trkpt lat="41.613356700" lon="2.575948800">
        <ele>245.80</ele>
        <time>2013-03-17T11:02:05Z</time>
      </trkpt>
      <trkpt lat="41.613358900" lon="2.576045200">
        <ele>247.20</ele>
        <time>2013-03-17T11:02:11Z</time>
      </trkpt>
      <trkpt lat="41.613361200" lon="2.576079100">
        <ele>247.70</ele>
        <time>2013-03-17T11:02:12Z</time>
      </trkpt>
      <trkpt lat="41.613363700" lon="2.576219100">
        <ele>249.60</ele>
        <time>2013-03-17T11:02:21Z</time>
      </trkpt>
      <trkpt lat="41.613363000" lon="2.576237300">
        <ele>249.60</ele>
        <time>2013-03-17T11:02:21Z</time>
      </trkpt>
      <trkpt lat="41.613380400" lon="2.576277300">
        <ele>250.10</ele>
        <time>2013-03-17T11:02:25Z</time>
      </trkpt>
      <trkpt lat="41.613390100" lon="2.576308700">
        <ele>250.60</ele>
        <time>2013-03-17T11:02:26Z</time>
      </trkpt>
      <trkpt lat="41.613426900" lon="2.576390300">
        <ele>252.50</ele>
        <time>2013-03-17T11:02:33Z</time>
      </trkpt>
      <trkpt lat="41.613454000" lon="2.576465000">
        <ele>253.40</ele>
        <time>2013-03-17T11:02:37Z</time>
      </trkpt>
      <trkpt lat="41.613436300" lon="2.576521700">
        <ele>254.40</ele>
        <time>2013-03-17T11:02:42Z</time>
      </trkpt>
      <trkpt lat="41.613410700" lon="2.576545500">
        <ele>254.90</ele>
        <time>2013-03-17T11:02:44Z</time>
      </trkpt>
      <trkpt lat="41.613322000" lon="2.576523700">
        <ele>255.90</ele>
        <time>2013-03-17T11:02:53Z</time>
      </trkpt>
      <trkpt lat="41.613262900" lon="2.576507600">
        <ele>256.80</ele>
        <time>2013-03-17T11:02:58Z</time>
      </trkpt>
      <trkpt lat="41.613201700" lon="2.576499600">
        <ele>257.80</ele>
        <time>2013-03-17T11:03:03Z</time>
      </trkpt>
      <trkpt lat="41.613106100" lon="2.576480700">
        <ele>259.20</ele>
        <time>2013-03-17T11:03:12Z</time>
      </trkpt>
      <trkpt lat="41.613031100" lon="2.576471400">
        <ele>260.60</ele>
        <time>2013-03-17T11:03:19Z</time>
      </trkpt>
      <trkpt lat="41.612911200" lon="2.576442200">
        <ele>262.60</ele>
        <time>2013-03-17T11:03:27Z</time>
      </trkpt>
      <trkpt lat="41.612867500" lon="2.576414400">
        <ele>263.10</ele>
        <time>2013-03-17T11:03:31Z</time>
      </trkpt>
      <trkpt lat="41.612767800" lon="2.576370800">
        <ele>264.50</ele>
        <time>2013-03-17T11:03:40Z</time>
      </trkpt>
      <trkpt lat="41.612679000" lon="2.576327500">
        <ele>265.90</ele>
        <time>2013-03-17T11:03:47Z</time>
      </trkpt>
      <trkpt lat="41.612556700" lon="2.576258700">
        <ele>267.40</ele>
        <time>2013-03-17T11:03:57Z</time>
      </trkpt>
      <trkpt lat="41.612436700" lon="2.576208500">
        <ele>268.40</ele>
        <time>2013-03-17T11:04:04Z</time>
      </trkpt>
      <trkpt lat="41.612293200" lon="2.576208000">
        <ele>268.80</ele>
        <time>2013-03-17T11:04:13Z</time>
      </trkpt>
      <trkpt lat="41.612188700" lon="2.576249400">
        <ele>269.30</ele>
        <time>2013-03-17T11:04:18Z</time>
      </trkpt>
      <trkpt lat="41.612114600" lon="2.576296100">
        <ele>269.80</ele>
        <time>2013-03-17T11:04:23Z</time>
      </trkpt>
      <trkpt lat="41.611982600" lon="2.576452300">
        <ele>270.80</ele>
        <time>2013-03-17T11:04:34Z</time>
      </trkpt>
      <trkpt lat="41.611917000" lon="2.576520000">
        <ele>271.20</ele>
        <time>2013-03-17T11:04:39Z</time>
      </trkpt>
      <trkpt lat="41.611835100" lon="2.576557200">
        <ele>272.20</ele>
        <time>2013-03-17T11:04:46Z</time>
      </trkpt>
      <trkpt lat="41.611825600" lon="2.576559500">
        <ele>272.20</ele>
        <time>2013-03-17T11:04:46Z</time>
      </trkpt>
      <trkpt lat="41.611742700" lon="2.576628600">
        <ele>271.20</ele>
        <time>2013-03-17T11:04:51Z</time>
      </trkpt>
      <trkpt lat="41.611649800" lon="2.576702100">
        <ele>270.30</ele>
        <time>2013-03-17T11:04:53Z</time>
      </trkpt>
      <trkpt lat="41.611550900" lon="2.576801100">
        <ele>269.30</ele>
        <time>2013-03-17T11:04:56Z</time>
      </trkpt>
      <trkpt lat="41.611478000" lon="2.576879400">
        <ele>268.80</ele>
        <time>2013-03-17T11:04:58Z</time>
      </trkpt>
      <trkpt lat="41.611393700" lon="2.577120400">
        <ele>268.40</ele>
        <time>2013-03-17T11:05:03Z</time>
      </trkpt>
      <trkpt lat="41.611374000" lon="2.577341300">
        <ele>269.80</ele>
        <time>2013-03-17T11:05:10Z</time>
      </trkpt>
      <trkpt lat="41.611304800" lon="2.577508200">
        <ele>271.20</ele>
        <time>2013-03-17T11:05:17Z</time>
      </trkpt>
      <trkpt lat="41.611117400" lon="2.577551500">
        <ele>272.20</ele>
        <time>2013-03-17T11:05:26Z</time>
      </trkpt>
      <trkpt lat="41.610968900" lon="2.577558100">
        <ele>274.60</ele>
        <time>2013-03-17T11:05:33Z</time>
      </trkpt>
      <trkpt lat="41.610813600" lon="2.577612300">
        <ele>277.00</ele>
        <time>2013-03-17T11:05:42Z</time>
      </trkpt>
      <trkpt lat="41.610739600" lon="2.577660800">
        <ele>277.50</ele>
        <time>2013-03-17T11:05:47Z</time>
      </trkpt>
      <trkpt lat="41.610674300" lon="2.577701000">
        <ele>277.50</ele>
        <time>2013-03-17T11:05:52Z</time>
      </trkpt>
      <trkpt lat="41.610571900" lon="2.577787000">
        <ele>278.40</ele>
        <time>2013-03-17T11:05:59Z</time>
      </trkpt>
      <trkpt lat="41.610495700" lon="2.577832500">
        <ele>278.40</ele>
        <time>2013-03-17T11:06:02Z</time>
      </trkpt>
      <trkpt lat="41.610448000" lon="2.577854500">
        <ele>278.40</ele>
        <time>2013-03-17T11:06:04Z</time>
      </trkpt>
      <trkpt lat="41.610363700" lon="2.578071400">
        <ele>277.50</ele>
        <time>2013-03-17T11:06:11Z</time>
      </trkpt>
      <trkpt lat="41.610378400" lon="2.578312500">
        <ele>277.00</ele>
        <time>2013-03-17T11:06:16Z</time>
      </trkpt>
      <trkpt lat="41.610349000" lon="2.578432200">
        <ele>277.50</ele>
        <time>2013-03-17T11:06:20Z</time>
      </trkpt>
      <trkpt lat="41.610243500" lon="2.578606100">
        <ele>278.00</ele>
        <time>2013-03-17T11:06:29Z</time>
      </trkpt>
      <trkpt lat="41.610118600" lon="2.578763600">
        <ele>278.00</ele>
        <time>2013-03-17T11:06:37Z</time>
      </trkpt>
      <trkpt lat="41.610081500" lon="2.578950700">
        <ele>277.00</ele>
        <time>2013-03-17T11:06:41Z</time>
      </trkpt>
      <trkpt lat="41.610059000" lon="2.579216400">
        <ele>275.60</ele>
        <time>2013-03-17T11:06:44Z</time>
      </trkpt>
      <trkpt lat="41.610050000" lon="2.579498700">
        <ele>273.10</ele>
        <time>2013-03-17T11:06:48Z</time>
      </trkpt>
      <trkpt lat="41.610057500" lon="2.579636500">
        <ele>272.70</ele>
        <time>2013-03-17T11:06:51Z</time>
      </trkpt>
      <trkpt lat="41.610144700" lon="2.580039900">
        <ele>270.30</ele>
        <time>2013-03-17T11:06:56Z</time>
      </trkpt>
      <trkpt lat="41.610204000" lon="2.580487600">
        <ele>266.40</ele>
        <time>2013-03-17T11:07:02Z</time>
      </trkpt>
      <trkpt lat="41.610213900" lon="2.580634500">
        <ele>265.90</ele>
        <time>2013-03-17T11:07:05Z</time>
      </trkpt>
      <trkpt lat="41.610218700" lon="2.580803300">
        <ele>264.00</ele>
        <time>2013-03-17T11:07:07Z</time>
      </trkpt>
      <trkpt lat="41.610101000" lon="2.580841200">
        <ele>262.60</ele>
        <time>2013-03-17T11:07:14Z</time>
      </trkpt>
      <trkpt lat="41.610032600" lon="2.580728600">
        <ele>262.10</ele>
        <time>2013-03-17T11:07:17Z</time>
      </trkpt>
      <trkpt lat="41.609976500" lon="2.580724300">
        <ele>260.60</ele>
        <time>2013-03-17T11:07:21Z</time>
      </trkpt>
      <trkpt lat="41.609989400" lon="2.580769400">
        <ele>260.20</ele>
        <time>2013-03-17T11:07:24Z</time>
      </trkpt>
      <trkpt lat="41.609955800" lon="2.580817700">
        <ele>258.20</ele>
        <time>2013-03-17T11:07:30Z</time>
      </trkpt>
      <trkpt lat="41.609933600" lon="2.580802800">
        <ele>258.20</ele>
        <time>2013-03-17T11:07:31Z</time>
      </trkpt>
      <trkpt lat="41.609851800" lon="2.580757900">
        <ele>256.80</ele>
        <time>2013-03-17T11:07:33Z</time>
      </trkpt>
      <trkpt lat="41.609681500" lon="2.580786600">
        <ele>256.30</ele>
        <time>2013-03-17T11:07:40Z</time>
      </trkpt>
      <trkpt lat="41.609518400" lon="2.580867300">
        <ele>253.90</ele>
        <time>2013-03-17T11:07:47Z</time>
      </trkpt>
      <trkpt lat="41.609370500" lon="2.580986500">
        <ele>251.00</ele>
        <time>2013-03-17T11:07:52Z</time>
      </trkpt>
      <trkpt lat="41.609310300" lon="2.581030600">
        <ele>250.60</ele>
        <time>2013-03-17T11:07:54Z</time>
      </trkpt>
      <trkpt lat="41.609256100" lon="2.581068600">
        <ele>249.10</ele>
        <time>2013-03-17T11:07:57Z</time>
      </trkpt>
      <trkpt lat="41.609062300" lon="2.581196200">
        <ele>246.20</ele>
        <time>2013-03-17T11:08:03Z</time>
      </trkpt>
      <trkpt lat="41.608946100" lon="2.581282400">
        <ele>244.80</ele>
        <time>2013-03-17T11:08:06Z</time>
      </trkpt>
      <trkpt lat="41.608917800" lon="2.581300700">
        <ele>244.80</ele>
        <time>2013-03-17T11:08:08Z</time>
      </trkpt>
      <trkpt lat="41.608800500" lon="2.581239100">
        <ele>241.90</ele>
        <time>2013-03-17T11:08:13Z</time>
      </trkpt>
      <trkpt lat="41.608778900" lon="2.581225600">
        <ele>241.40</ele>
        <time>2013-03-17T11:08:15Z</time>
      </trkpt>
      <trkpt lat="41.608727200" lon="2.581196700">
        <ele>240.50</ele>
        <time>2013-03-17T11:08:17Z</time>
      </trkpt>
      <trkpt lat="41.608677400" lon="2.581281600">
        <ele>238.50</ele>
        <time>2013-03-17T11:08:20Z</time>
      </trkpt>
      <trkpt lat="41.608666700" lon="2.581553200">
        <ele>237.10</ele>
        <time>2013-03-17T11:08:27Z</time>
      </trkpt>
      <trkpt lat="41.608661400" lon="2.581630800">
        <ele>236.10</ele>
        <time>2013-03-17T11:08:29Z</time>
      </trkpt>
      <trkpt lat="41.608500100" lon="2.581743600">
        <ele>232.80</ele>
        <time>2013-03-17T11:08:34Z</time>
      </trkpt>
      <trkpt lat="41.608472500" lon="2.581737100">
        <ele>232.80</ele>
        <time>2013-03-17T11:08:36Z</time>
      </trkpt>
      <trkpt lat="41.608392600" lon="2.581586100">
        <ele>230.40</ele>
        <time>2013-03-17T11:08:41Z</time>
      </trkpt>
      <trkpt lat="41.608390300" lon="2.581542400">
        <ele>230.40</ele>
        <time>2013-03-17T11:08:41Z</time>
      </trkpt>
      <trkpt lat="41.608385000" lon="2.581399800">
        <ele>228.90</ele>
        <time>2013-03-17T11:08:44Z</time>
      </trkpt>
      <trkpt lat="41.608325800" lon="2.581409700">
        <ele>226.50</ele>
        <time>2013-03-17T11:08:48Z</time>
      </trkpt>
      <trkpt lat="41.608198300" lon="2.581577200">
        <ele>224.10</ele>
        <time>2013-03-17T11:08:53Z</time>
      </trkpt>
      <trkpt lat="41.608165400" lon="2.581663800">
        <ele>224.10</ele>
        <time>2013-03-17T11:08:58Z</time>
      </trkpt>
      <trkpt lat="41.608114900" lon="2.581801100">
        <ele>222.70</ele>
        <time>2013-03-17T11:09:02Z</time>
      </trkpt>
      <trkpt lat="41.608095900" lon="2.581942900">
        <ele>221.20</ele>
        <time>2013-03-17T11:09:05Z</time>
      </trkpt>
      <trkpt lat="41.607999900" lon="2.582003300">
        <ele>218.80</ele>
        <time>2013-03-17T11:09:07Z</time>
      </trkpt>
      <trkpt lat="41.607935400" lon="2.582002700">
        <ele>217.90</ele>
        <time>2013-03-17T11:09:09Z</time>
      </trkpt>
      <trkpt lat="41.607868300" lon="2.581843900">
        <ele>215.90</ele>
        <time>2013-03-17T11:09:14Z</time>
      </trkpt>
      <trkpt lat="41.607863400" lon="2.581681600">
        <ele>213.60</ele>
        <time>2013-03-17T11:09:19Z</time>
      </trkpt>
      <trkpt lat="41.607829000" lon="2.581681000">
        <ele>212.60</ele>
        <time>2013-03-17T11:09:21Z</time>
      </trkpt>
      <trkpt lat="41.607717700" lon="2.581889600">
        <ele>210.20</ele>
        <time>2013-03-17T11:09:28Z</time>
      </trkpt>
      <trkpt lat="41.607667000" lon="2.581966300">
        <ele>209.70</ele>
        <time>2013-03-17T11:09:30Z</time>
      </trkpt>
      <trkpt lat="41.607639900" lon="2.582134000">
        <ele>209.70</ele>
        <time>2013-03-17T11:09:35Z</time>
      </trkpt>
      <trkpt lat="41.607572400" lon="2.582162800">
        <ele>207.30</ele>
        <time>2013-03-17T11:09:40Z</time>
      </trkpt>
      <trkpt lat="41.607478800" lon="2.582239500">
        <ele>203.90</ele>
        <time>2013-03-17T11:09:45Z</time>
      </trkpt>
      <trkpt lat="41.607424600" lon="2.582173100">
        <ele>203.00</ele>
        <time>2013-03-17T11:09:49Z</time>
      </trkpt>
      <trkpt lat="41.607415900" lon="2.582014500">
        <ele>201.50</ele>
        <time>2013-03-17T11:09:54Z</time>
      </trkpt>
      <trkpt lat="41.607414800" lon="2.581857900">
        <ele>198.20</ele>
        <time>2013-03-17T11:09:59Z</time>
      </trkpt>
      <trkpt lat="41.607417300" lon="2.581792400">
        <ele>197.20</ele>
        <time>2013-03-17T11:10:01Z</time>
      </trkpt>
      <trkpt lat="41.607416500" lon="2.581753500">
        <ele>196.70</ele>
        <time>2013-03-17T11:10:03Z</time>
      </trkpt>
      <trkpt lat="41.607443400" lon="2.581599300">
        <ele>196.20</ele>
        <time>2013-03-17T11:10:10Z</time>
      </trkpt>
      <trkpt lat="41.607485400" lon="2.581403900">
        <ele>195.80</ele>
        <time>2013-03-17T11:10:15Z</time>
      </trkpt>
      <trkpt lat="41.607481700" lon="2.581292200">
        <ele>194.80</ele>
        <time>2013-03-17T11:10:20Z</time>
      </trkpt>
      <trkpt lat="41.607461700" lon="2.581279700">
        <ele>194.30</ele>
        <time>2013-03-17T11:10:20Z</time>
      </trkpt>
      <trkpt lat="41.607341700" lon="2.581301200">
        <ele>193.80</ele>
        <time>2013-03-17T11:10:27Z</time>
      </trkpt>
      <trkpt lat="41.607300400" lon="2.581344200">
        <ele>193.80</ele>
        <time>2013-03-17T11:10:29Z</time>
      </trkpt>
      <trkpt lat="41.607139700" lon="2.581416500">
        <ele>193.80</ele>
        <time>2013-03-17T11:10:36Z</time>
      </trkpt>
      <trkpt lat="41.607046500" lon="2.581411900">
        <ele>194.30</ele>
        <time>2013-03-17T11:10:41Z</time>
      </trkpt>
      <trkpt lat="41.606918400" lon="2.581413600">
        <ele>195.30</ele>
        <time>2013-03-17T11:10:50Z</time>
      </trkpt>
      <trkpt lat="41.606834000" lon="2.581407300">
        <ele>196.20</ele>
        <time>2013-03-17T11:10:55Z</time>
      </trkpt>
      <trkpt lat="41.606738200" lon="2.581392300">
        <ele>197.70</ele>
        <time>2013-03-17T11:11:02Z</time>
      </trkpt>
      <trkpt lat="41.606636500" lon="2.581362000">
        <ele>198.60</ele>
        <time>2013-03-17T11:11:09Z</time>
      </trkpt>
      <trkpt lat="41.606615900" lon="2.581360300">
        <ele>198.60</ele>
        <time>2013-03-17T11:11:11Z</time>
      </trkpt>
      <trkpt lat="41.606543400" lon="2.581310300">
        <ele>199.60</ele>
        <time>2013-03-17T11:11:16Z</time>
      </trkpt>
      <trkpt lat="41.606498400" lon="2.581252200">
        <ele>201.10</ele>
        <time>2013-03-17T11:11:23Z</time>
      </trkpt>
      <trkpt lat="41.606460400" lon="2.581186300">
        <ele>202.50</ele>
        <time>2013-03-17T11:11:32Z</time>
      </trkpt>
      <trkpt lat="41.606453100" lon="2.581181900">
        <ele>202.50</ele>
        <time>2013-03-17T11:11:33Z</time>
      </trkpt>
      <trkpt lat="41.606427600" lon="2.581035400">
        <ele>203.00</ele>
        <time>2013-03-17T11:11:40Z</time>
      </trkpt>
      <trkpt lat="41.606429800" lon="2.580991200">
        <ele>202.50</ele>
        <time>2013-03-17T11:11:42Z</time>
      </trkpt>
      <trkpt lat="41.606442300" lon="2.580937200">
        <ele>203.00</ele>
        <time>2013-03-17T11:11:46Z</time>
      </trkpt>
      <trkpt lat="41.606462400" lon="2.580838500">
        <ele>203.50</ele>
        <time>2013-03-17T11:11:51Z</time>
      </trkpt>
      <trkpt lat="41.606519500" lon="2.580786000">
        <ele>204.90</ele>
        <time>2013-03-17T11:11:58Z</time>
      </trkpt>
      <trkpt lat="41.606547600" lon="2.580773000">
        <ele>205.90</ele>
        <time>2013-03-17T11:12:03Z</time>
      </trkpt>
      <trkpt lat="41.606619000" lon="2.580708200">
        <ele>208.30</ele>
        <time>2013-03-17T11:12:12Z</time>
      </trkpt>
      <trkpt lat="41.606642700" lon="2.580691500">
        <ele>208.30</ele>
        <time>2013-03-17T11:12:20Z</time>
      </trkpt>
      <trkpt lat="41.606683600" lon="2.580650600">
        <ele>209.70</ele>
        <time>2013-03-17T11:12:24Z</time>
      </trkpt>
      <trkpt lat="41.606733700" lon="2.580568900">
        <ele>211.10</ele>
        <time>2013-03-17T11:12:31Z</time>
      </trkpt>
      <trkpt lat="41.606800200" lon="2.580510900">
        <ele>213.10</ele>
        <time>2013-03-17T11:12:38Z</time>
      </trkpt>
      <trkpt lat="41.606886600" lon="2.580459000">
        <ele>215.50</ele>
        <time>2013-03-17T11:12:47Z</time>
      </trkpt>
      <trkpt lat="41.606912100" lon="2.580401500">
        <ele>216.40</ele>
        <time>2013-03-17T11:12:52Z</time>
      </trkpt>
      <trkpt lat="41.606943800" lon="2.580348900">
        <ele>217.40</ele>
        <time>2013-03-17T11:12:55Z</time>
      </trkpt>
      <trkpt lat="41.607024200" lon="2.580273300">
        <ele>218.40</ele>
        <time>2013-03-17T11:13:04Z</time>
      </trkpt>
      <trkpt lat="41.607074800" lon="2.580206300">
        <ele>219.30</ele>
        <time>2013-03-17T11:13:09Z</time>
      </trkpt>
      <trkpt lat="41.607132600" lon="2.580114400">
        <ele>220.30</ele>
        <time>2013-03-17T11:13:16Z</time>
      </trkpt>
      <trkpt lat="41.607164500" lon="2.580049200">
        <ele>221.20</ele>
        <time>2013-03-17T11:13:23Z</time>
      </trkpt>
      <trkpt lat="41.607186300" lon="2.579881700">
        <ele>223.20</ele>
        <time>2013-03-17T11:13:32Z</time>
      </trkpt>
      <trkpt lat="41.607222900" lon="2.579783700">
        <ele>225.10</ele>
        <time>2013-03-17T11:13:41Z</time>
      </trkpt>
      <trkpt lat="41.607282000" lon="2.579751700">
        <ele>227.00</ele>
        <time>2013-03-17T11:13:47Z</time>
      </trkpt>
      <trkpt lat="41.607314600" lon="2.579655200">
        <ele>228.00</ele>
        <time>2013-03-17T11:13:54Z</time>
      </trkpt>
      <trkpt lat="41.607377300" lon="2.579597600">
        <ele>229.90</ele>
        <time>2013-03-17T11:14:00Z</time>
      </trkpt>
      <trkpt lat="41.607427000" lon="2.579539400">
        <ele>230.40</ele>
        <time>2013-03-17T11:14:10Z</time>
      </trkpt>
      <trkpt lat="41.607435800" lon="2.579529100">
        <ele>230.40</ele>
        <time>2013-03-17T11:14:19Z</time>
      </trkpt>
      <trkpt lat="41.607446400" lon="2.579462100">
        <ele>231.30</ele>
        <time>2013-03-17T11:14:26Z</time>
      </trkpt>
      <trkpt lat="41.607465900" lon="2.579273700">
        <ele>231.80</ele>
        <time>2013-03-17T11:14:36Z</time>
      </trkpt>
      <trkpt lat="41.607483500" lon="2.579229100">
        <ele>232.80</ele>
        <time>2013-03-17T11:14:38Z</time>
      </trkpt>
      <trkpt lat="41.607521900" lon="2.579197000">
        <ele>234.20</ele>
        <time>2013-03-17T11:14:45Z</time>
      </trkpt>
      <trkpt lat="41.607555100" lon="2.579167100">
        <ele>234.70</ele>
        <time>2013-03-17T11:14:52Z</time>
      </trkpt>
      <trkpt lat="41.607585600" lon="2.579136300">
        <ele>235.70</ele>
        <time>2013-03-17T11:14:59Z</time>
      </trkpt>
      <trkpt lat="41.607604600" lon="2.579128300">
        <ele>235.70</ele>
        <time>2013-03-17T11:15:15Z</time>
      </trkpt>
      <trkpt lat="41.607646100" lon="2.579101900">
        <ele>236.10</ele>
        <time>2013-03-17T11:15:29Z</time>
      </trkpt>
      <trkpt lat="41.607691900" lon="2.579101700">
        <ele>236.60</ele>
        <time>2013-03-17T11:15:37Z</time>
      </trkpt>
      <trkpt lat="41.607692200" lon="2.579100200">
        <ele>236.60</ele>
        <time>2013-03-17T11:15:39Z</time>
      </trkpt>
      <trkpt lat="41.607774800" lon="2.579083900">
        <ele>238.10</ele>
        <time>2013-03-17T11:15:46Z</time>
      </trkpt>
      <trkpt lat="41.607830000" lon="2.579020500">
        <ele>240.00</ele>
        <time>2013-03-17T11:15:53Z</time>
      </trkpt>
      <trkpt lat="41.607903400" lon="2.578958700">
        <ele>241.90</ele>
        <time>2013-03-17T11:16:02Z</time>
      </trkpt>
      <trkpt lat="41.607920900" lon="2.578943400">
        <ele>242.90</ele>
        <time>2013-03-17T11:16:05Z</time>
      </trkpt>
      <trkpt lat="41.608020600" lon="2.578916200">
        <ele>244.80</ele>
        <time>2013-03-17T11:16:14Z</time>
      </trkpt>
      <trkpt lat="41.608033000" lon="2.578911600">
        <ele>245.30</ele>
        <time>2013-03-17T11:16:16Z</time>
      </trkpt>
      <trkpt lat="41.608071300" lon="2.578870500">
        <ele>246.20</ele>
        <time>2013-03-17T11:16:19Z</time>
      </trkpt>
      <trkpt lat="41.608083900" lon="2.578786600">
        <ele>247.70</ele>
        <time>2013-03-17T11:16:26Z</time>
      </trkpt>
      <trkpt lat="41.608149400" lon="2.578690200">
        <ele>248.60</ele>
        <time>2013-03-17T11:16:35Z</time>
      </trkpt>
      <trkpt lat="41.608187700" lon="2.578659500">
        <ele>250.10</ele>
        <time>2013-03-17T11:16:42Z</time>
      </trkpt>
      <trkpt lat="41.608240800" lon="2.578606900">
        <ele>252.00</ele>
        <time>2013-03-17T11:16:49Z</time>
      </trkpt>
      <trkpt lat="41.608306200" lon="2.578549600">
        <ele>253.90</ele>
        <time>2013-03-17T11:16:59Z</time>
      </trkpt>
      <trkpt lat="41.608376000" lon="2.578530800">
        <ele>255.90</ele>
        <time>2013-03-17T11:17:06Z</time>
      </trkpt>
      <trkpt lat="41.608454200" lon="2.578469300">
        <ele>257.30</ele>
        <time>2013-03-17T11:17:13Z</time>
      </trkpt>
      <trkpt lat="41.608517500" lon="2.578411700">
        <ele>257.80</ele>
        <time>2013-03-17T11:17:20Z</time>
      </trkpt>
      <trkpt lat="41.608535900" lon="2.578409100">
        <ele>257.80</ele>
        <time>2013-03-17T11:17:34Z</time>
      </trkpt>
      <trkpt lat="41.608574900" lon="2.578414600">
        <ele>257.80</ele>
        <time>2013-03-17T11:17:51Z</time>
      </trkpt>
      <trkpt lat="41.608582300" lon="2.578395300">
        <ele>257.80</ele>
        <time>2013-03-17T11:18:12Z</time>
      </trkpt>
      <trkpt lat="41.608650700" lon="2.578326600">
        <ele>257.30</ele>
        <time>2013-03-17T11:18:18Z</time>
      </trkpt>
      <trkpt lat="41.608728700" lon="2.578233500">
        <ele>257.30</ele>
        <time>2013-03-17T11:18:24Z</time>
      </trkpt>
      <trkpt lat="41.608792500" lon="2.578141500">
        <ele>258.70</ele>
        <time>2013-03-17T11:18:33Z</time>
      </trkpt>
      <trkpt lat="41.608838200" lon="2.578049800">
        <ele>259.20</ele>
        <time>2013-03-17T11:18:40Z</time>
      </trkpt>
      <trkpt lat="41.608895600" lon="2.577938900">
        <ele>261.10</ele>
        <time>2013-03-17T11:18:51Z</time>
      </trkpt>
      <trkpt lat="41.608906600" lon="2.577915700">
        <ele>261.60</ele>
        <time>2013-03-17T11:18:52Z</time>
      </trkpt>
      <trkpt lat="41.608947500" lon="2.577807300">
        <ele>262.60</ele>
        <time>2013-03-17T11:19:01Z</time>
      </trkpt>
      <trkpt lat="41.608970500" lon="2.577672700">
        <ele>264.50</ele>
        <time>2013-03-17T11:19:10Z</time>
      </trkpt>
      <trkpt lat="41.608995500" lon="2.577564500">
        <ele>265.90</ele>
        <time>2013-03-17T11:19:17Z</time>
      </trkpt>
      <trkpt lat="41.609070700" lon="2.577404700">
        <ele>267.90</ele>
        <time>2013-03-17T11:19:29Z</time>
      </trkpt>
      <trkpt lat="41.609108100" lon="2.577347400">
        <ele>268.40</ele>
        <time>2013-03-17T11:19:36Z</time>
      </trkpt>
      <trkpt lat="41.609144300" lon="2.577347100">
        <ele>268.80</ele>
        <time>2013-03-17T11:19:48Z</time>
      </trkpt>
      <trkpt lat="41.609158900" lon="2.577342100">
        <ele>270.30</ele>
        <time>2013-03-17T11:19:57Z</time>
      </trkpt>
      <trkpt lat="41.609195000" lon="2.577331300">
        <ele>270.30</ele>
        <time>2013-03-17T11:20:11Z</time>
      </trkpt>
      <trkpt lat="41.609212800" lon="2.577325300">
        <ele>271.20</ele>
        <time>2013-03-17T11:20:23Z</time>
      </trkpt>
      <trkpt lat="41.609251300" lon="2.577283900">
        <ele>273.60</ele>
        <time>2013-03-17T11:20:33Z</time>
      </trkpt>
      <trkpt lat="41.609287200" lon="2.577242400">
        <ele>274.10</ele>
        <time>2013-03-17T11:20:44Z</time>
      </trkpt>
      <trkpt lat="41.609316600" lon="2.577211900">
        <ele>275.10</ele>
        <time>2013-03-17T11:20:51Z</time>
      </trkpt>
      <trkpt lat="41.609346700" lon="2.577203900">
        <ele>276.00</ele>
        <time>2013-03-17T11:20:58Z</time>
      </trkpt>
      <trkpt lat="41.609356600" lon="2.577176500">
        <ele>277.00</ele>
        <time>2013-03-17T11:21:06Z</time>
      </trkpt>
      <trkpt lat="41.609345700" lon="2.577143700">
        <ele>277.00</ele>
        <time>2013-03-17T11:21:26Z</time>
      </trkpt>
      <trkpt lat="41.609376800" lon="2.577100300">
        <ele>278.40</ele>
        <time>2013-03-17T11:21:34Z</time>
      </trkpt>
      <trkpt lat="41.609410300" lon="2.577097000">
        <ele>279.40</ele>
        <time>2013-03-17T11:21:41Z</time>
      </trkpt>
      <trkpt lat="41.609452600" lon="2.577061500">
        <ele>280.40</ele>
        <time>2013-03-17T11:21:50Z</time>
      </trkpt>
      <trkpt lat="41.609490500" lon="2.577023700">
        <ele>280.40</ele>
        <time>2013-03-17T11:21:59Z</time>
      </trkpt>
      <trkpt lat="41.609497200" lon="2.577009600">
        <ele>280.40</ele>
        <time>2013-03-17T11:22:09Z</time>
      </trkpt>
      <trkpt lat="41.609524500" lon="2.576952100">
        <ele>280.80</ele>
        <time>2013-03-17T11:22:18Z</time>
      </trkpt>
      <trkpt lat="41.609569000" lon="2.576856900">
        <ele>281.30</ele>
        <time>2013-03-17T11:22:27Z</time>
      </trkpt>
      <trkpt lat="41.609582900" lon="2.576834300">
        <ele>281.80</ele>
        <time>2013-03-17T11:22:28Z</time>
      </trkpt>
      <trkpt lat="41.609617300" lon="2.576759700">
        <ele>282.30</ele>
        <time>2013-03-17T11:22:35Z</time>
      </trkpt>
      <trkpt lat="41.609678300" lon="2.576646800">
        <ele>283.20</ele>
        <time>2013-03-17T11:22:44Z</time>
      </trkpt>
      <trkpt lat="41.609685200" lon="2.576634600">
        <ele>283.20</ele>
        <time>2013-03-17T11:22:44Z</time>
      </trkpt>
      <trkpt lat="41.609768000" lon="2.576547500">
        <ele>283.70</ele>
        <time>2013-03-17T11:22:53Z</time>
      </trkpt>
      <trkpt lat="41.609795300" lon="2.576504700">
        <ele>284.20</ele>
        <time>2013-03-17T11:22:56Z</time>
      </trkpt>
      <trkpt lat="41.609882500" lon="2.576356800">
        <ele>284.20</ele>
        <time>2013-03-17T11:23:05Z</time>
      </trkpt>
      <trkpt lat="41.609975700" lon="2.576193600">
        <ele>284.20</ele>
        <time>2013-03-17T11:23:12Z</time>
      </trkpt>
      <trkpt lat="41.610167600" lon="2.575810700">
        <ele>284.20</ele>
        <time>2013-03-17T11:23:31Z</time>
      </trkpt>
      <trkpt lat="41.610247900" lon="2.575601300">
        <ele>284.20</ele>
        <time>2013-03-17T11:23:38Z</time>
      </trkpt>
      <trkpt lat="41.610395500" lon="2.575322000">
        <ele>283.70</ele>
        <time>2013-03-17T11:23:47Z</time>
      </trkpt>
      <trkpt lat="41.610512300" lon="2.575060000">
        <ele>282.80</ele>
        <time>2013-03-17T11:23:54Z</time>
      </trkpt>
      <trkpt lat="41.610521800" lon="2.574886000">
        <ele>282.30</ele>
        <time>2013-03-17T11:23:57Z</time>
      </trkpt>
      <trkpt lat="41.610540800" lon="2.574562800">
        <ele>282.30</ele>
        <time>2013-03-17T11:24:04Z</time>
      </trkpt>
      <trkpt lat="41.610542700" lon="2.574299400">
        <ele>282.80</ele>
        <time>2013-03-17T11:24:13Z</time>
      </trkpt>
      <trkpt lat="41.610476300" lon="2.574046600">
        <ele>283.70</ele>
        <time>2013-03-17T11:24:22Z</time>
      </trkpt>
      <trkpt lat="41.610405400" lon="2.573809700">
        <ele>284.20</ele>
        <time>2013-03-17T11:24:30Z</time>
      </trkpt>
      <trkpt lat="41.610360400" lon="2.573662800">
        <ele>284.70</ele>
        <time>2013-03-17T11:24:37Z</time>
      </trkpt>
      <trkpt lat="41.610297200" lon="2.573499200">
        <ele>285.20</ele>
        <time>2013-03-17T11:24:42Z</time>
      </trkpt>
      <trkpt lat="41.610157400" lon="2.573271400">
        <ele>285.20</ele>
        <time>2013-03-17T11:24:51Z</time>
      </trkpt>
      <trkpt lat="41.609985000" lon="2.573133500">
        <ele>284.70</ele>
        <time>2013-03-17T11:24:58Z</time>
      </trkpt>
      <trkpt lat="41.609843500" lon="2.573154300">
        <ele>283.70</ele>
        <time>2013-03-17T11:25:02Z</time>
      </trkpt>
      <trkpt lat="41.609794300" lon="2.573170200">
        <ele>283.20</ele>
        <time>2013-03-17T11:25:05Z</time>
      </trkpt>
      <trkpt lat="41.609777300" lon="2.573034500">
        <ele>281.80</ele>
        <time>2013-03-17T11:25:10Z</time>
      </trkpt>
      <trkpt lat="41.609789600" lon="2.572999400">
        <ele>281.80</ele>
        <time>2013-03-17T11:25:12Z</time>
      </trkpt>
      <trkpt lat="41.609913100" lon="2.572682200">
        <ele>279.90</ele>
        <time>2013-03-17T11:25:19Z</time>
      </trkpt>
      <trkpt lat="41.610004600" lon="2.572558900">
        <ele>278.90</ele>
        <time>2013-03-17T11:25:24Z</time>
      </trkpt>
      <trkpt lat="41.610292600" lon="2.572455900">
        <ele>276.50</ele>
        <time>2013-03-17T11:25:31Z</time>
      </trkpt>
      <trkpt lat="41.610374000" lon="2.572371900">
        <ele>276.00</ele>
        <time>2013-03-17T11:25:33Z</time>
      </trkpt>
      <trkpt lat="41.610488800" lon="2.572222400">
        <ele>275.60</ele>
        <time>2013-03-17T11:25:35Z</time>
      </trkpt>
      <trkpt lat="41.610610800" lon="2.572044100">
        <ele>275.60</ele>
        <time>2013-03-17T11:25:40Z</time>
      </trkpt>
      <trkpt lat="41.610694900" lon="2.571783400">
        <ele>277.00</ele>
        <time>2013-03-17T11:25:47Z</time>
      </trkpt>
      <trkpt lat="41.610738100" lon="2.571564000">
        <ele>278.40</ele>
        <time>2013-03-17T11:25:54Z</time>
      </trkpt>
      <trkpt lat="41.610765600" lon="2.571350400">
        <ele>279.90</ele>
        <time>2013-03-17T11:26:04Z</time>
      </trkpt>
      <trkpt lat="41.610774800" lon="2.571168500">
        <ele>281.80</ele>
        <time>2013-03-17T11:26:11Z</time>
      </trkpt>
      <trkpt lat="41.610781600" lon="2.571015500">
        <ele>282.80</ele>
        <time>2013-03-17T11:26:17Z</time>
      </trkpt>
      <trkpt lat="41.610780400" lon="2.570954100">
        <ele>283.20</ele>
        <time>2013-03-17T11:26:18Z</time>
      </trkpt>
      <trkpt lat="41.610791500" lon="2.570678000">
        <ele>285.20</ele>
        <time>2013-03-17T11:26:29Z</time>
      </trkpt>
      <trkpt lat="41.610826200" lon="2.570452100">
        <ele>286.10</ele>
        <time>2013-03-17T11:26:36Z</time>
      </trkpt>
      <trkpt lat="41.610883800" lon="2.570242900">
        <ele>286.60</ele>
        <time>2013-03-17T11:26:44Z</time>
      </trkpt>
      <trkpt lat="41.610972400" lon="2.569985000">
        <ele>287.10</ele>
        <time>2013-03-17T11:26:53Z</time>
      </trkpt>
      <trkpt lat="41.611113600" lon="2.569758100">
        <ele>288.00</ele>
        <time>2013-03-17T11:27:02Z</time>
      </trkpt>
      <trkpt lat="41.611244000" lon="2.569620700">
        <ele>288.00</ele>
        <time>2013-03-17T11:27:09Z</time>
      </trkpt>
      <trkpt lat="41.611418700" lon="2.569438900">
        <ele>289.00</ele>
        <time>2013-03-17T11:27:17Z</time>
      </trkpt>
      <trkpt lat="41.611566400" lon="2.569395600">
        <ele>288.50</ele>
        <time>2013-03-17T11:27:23Z</time>
      </trkpt>
      <trkpt lat="41.611768000" lon="2.569363300">
        <ele>287.60</ele>
        <time>2013-03-17T11:27:30Z</time>
      </trkpt>
      <trkpt lat="41.612046700" lon="2.569240300">
        <ele>287.10</ele>
        <time>2013-03-17T11:27:37Z</time>
      </trkpt>
      <trkpt lat="41.612209200" lon="2.569052500">
        <ele>287.10</ele>
        <time>2013-03-17T11:27:42Z</time>
      </trkpt>
      <trkpt lat="41.612324100" lon="2.568801600">
        <ele>286.60</ele>
        <time>2013-03-17T11:27:49Z</time>
      </trkpt>
      <trkpt lat="41.612445900" lon="2.568634900">
        <ele>285.60</ele>
        <time>2013-03-17T11:27:52Z</time>
      </trkpt>
      <trkpt lat="41.612662200" lon="2.568479100">
        <ele>284.20</ele>
        <time>2013-03-17T11:27:58Z</time>
      </trkpt>
      <trkpt lat="41.612923100" lon="2.568174000">
        <ele>283.70</ele>
        <time>2013-03-17T11:28:06Z</time>
      </trkpt>
      <trkpt lat="41.612948700" lon="2.567998800">
        <ele>285.20</ele>
        <time>2013-03-17T11:28:12Z</time>
      </trkpt>
      <trkpt lat="41.612948900" lon="2.567794700">
        <ele>286.60</ele>
        <time>2013-03-17T11:28:20Z</time>
      </trkpt>
      <trkpt lat="41.612932200" lon="2.567585000">
        <ele>288.50</ele>
        <time>2013-03-17T11:28:29Z</time>
      </trkpt>
      <trkpt lat="41.612878500" lon="2.567389300">
        <ele>290.00</ele>
        <time>2013-03-17T11:28:36Z</time>
      </trkpt>
      <trkpt lat="41.612826100" lon="2.567217300">
        <ele>291.40</ele>
        <time>2013-03-17T11:28:43Z</time>
      </trkpt>
      <trkpt lat="41.612821000" lon="2.567192000">
        <ele>291.40</ele>
        <time>2013-03-17T11:28:43Z</time>
      </trkpt>
      <trkpt lat="41.612769000" lon="2.567019100">
        <ele>294.30</ele>
        <time>2013-03-17T11:28:53Z</time>
      </trkpt>
      <trkpt lat="41.612761200" lon="2.566916700">
        <ele>295.30</ele>
        <time>2013-03-17T11:29:00Z</time>
      </trkpt>
      <trkpt lat="41.612769200" lon="2.566731800">
        <ele>297.20</ele>
        <time>2013-03-17T11:29:09Z</time>
      </trkpt>
      <trkpt lat="41.612771200" lon="2.566715600">
        <ele>297.70</ele>
        <time>2013-03-17T11:29:11Z</time>
      </trkpt>
      <trkpt lat="41.612791900" lon="2.566524600">
        <ele>298.60</ele>
        <time>2013-03-17T11:29:19Z</time>
      </trkpt>
      <trkpt lat="41.612808900" lon="2.566256800">
        <ele>297.70</ele>
        <time>2013-03-17T11:29:26Z</time>
      </trkpt>
      <trkpt lat="41.612836600" lon="2.566077100">
        <ele>296.20</ele>
        <time>2013-03-17T11:29:33Z</time>
      </trkpt>
      <trkpt lat="41.612910900" lon="2.565937000">
        <ele>294.30</ele>
        <time>2013-03-17T11:29:37Z</time>
      </trkpt>
      <trkpt lat="41.612996300" lon="2.565840800">
        <ele>292.90</ele>
        <time>2013-03-17T11:29:40Z</time>
      </trkpt>
      <trkpt lat="41.613186400" lon="2.565685600">
        <ele>290.90</ele>
        <time>2013-03-17T11:29:47Z</time>
      </trkpt>
      <trkpt lat="41.613326500" lon="2.565553900">
        <ele>290.00</ele>
        <time>2013-03-17T11:29:53Z</time>
      </trkpt>
      <trkpt lat="41.613390500" lon="2.565532000">
        <ele>291.40</ele>
        <time>2013-03-17T11:29:58Z</time>
      </trkpt>
      <trkpt lat="41.613396400" lon="2.565523800">
        <ele>291.40</ele>
        <time>2013-03-17T11:29:58Z</time>
      </trkpt>
      <trkpt lat="41.613511500" lon="2.565431000">
        <ele>290.00</ele>
        <time>2013-03-17T11:30:03Z</time>
      </trkpt>
      <trkpt lat="41.613615600" lon="2.565335200">
        <ele>288.50</ele>
        <time>2013-03-17T11:30:08Z</time>
      </trkpt>
      <trkpt lat="41.613817600" lon="2.565181400">
        <ele>286.10</ele>
        <time>2013-03-17T11:30:12Z</time>
      </trkpt>
      <trkpt lat="41.613853600" lon="2.565153400">
        <ele>285.60</ele>
        <time>2013-03-17T11:30:13Z</time>
      </trkpt>
      <trkpt lat="41.614070700" lon="2.565006700">
        <ele>284.20</ele>
        <time>2013-03-17T11:30:19Z</time>
      </trkpt>
      <trkpt lat="41.614229100" lon="2.564872800">
        <ele>282.80</ele>
        <time>2013-03-17T11:30:22Z</time>
      </trkpt>
      <trkpt lat="41.614274300" lon="2.564844300">
        <ele>282.80</ele>
        <time>2013-03-17T11:30:24Z</time>
      </trkpt>
      <trkpt lat="41.614426800" lon="2.564687700">
        <ele>281.80</ele>
        <time>2013-03-17T11:30:27Z</time>
      </trkpt>
      <trkpt lat="41.614449100" lon="2.564627400">
        <ele>282.30</ele>
        <time>2013-03-17T11:30:29Z</time>
      </trkpt>
      <trkpt lat="41.614522700" lon="2.564360700">
        <ele>281.30</ele>
        <time>2013-03-17T11:30:34Z</time>
      </trkpt>
      <trkpt lat="41.614533000" lon="2.564338600">
        <ele>281.30</ele>
        <time>2013-03-17T11:30:36Z</time>
      </trkpt>
      <trkpt lat="41.614577200" lon="2.564201400">
        <ele>281.80</ele>
        <time>2013-03-17T11:30:41Z</time>
      </trkpt>
      <trkpt lat="41.614575700" lon="2.564021400">
        <ele>283.20</ele>
        <time>2013-03-17T11:30:50Z</time>
      </trkpt>
      <trkpt lat="41.614587600" lon="2.563970800">
        <ele>283.20</ele>
        <time>2013-03-17T11:30:54Z</time>
      </trkpt>
      <trkpt lat="41.614621600" lon="2.563879600">
        <ele>284.70</ele>
        <time>2013-03-17T11:30:59Z</time>
      </trkpt>
      <trkpt lat="41.614646900" lon="2.563845100">
        <ele>285.20</ele>
        <time>2013-03-17T11:31:02Z</time>
      </trkpt>
      <trkpt lat="41.614692700" lon="2.563727200">
        <ele>287.60</ele>
        <time>2013-03-17T11:31:11Z</time>
      </trkpt>
      <trkpt lat="41.614709000" lon="2.563586000">
        <ele>288.50</ele>
        <time>2013-03-17T11:31:20Z</time>
      </trkpt>
      <trkpt lat="41.614688200" lon="2.563432000">
        <ele>288.00</ele>
        <time>2013-03-17T11:31:25Z</time>
      </trkpt>
      <trkpt lat="41.614654000" lon="2.563273000">
        <ele>288.50</ele>
        <time>2013-03-17T11:31:32Z</time>
      </trkpt>
      <trkpt lat="41.614625300" lon="2.563108000">
        <ele>288.50</ele>
        <time>2013-03-17T11:31:39Z</time>
      </trkpt>
      <trkpt lat="41.614624700" lon="2.563028300">
        <ele>289.50</ele>
        <time>2013-03-17T11:31:44Z</time>
      </trkpt>
      <trkpt lat="41.614617800" lon="2.562817700">
        <ele>291.90</ele>
        <time>2013-03-17T11:31:53Z</time>
      </trkpt>
      <trkpt lat="41.614607300" lon="2.562691200">
        <ele>293.30</ele>
        <time>2013-03-17T11:32:00Z</time>
      </trkpt>
      <trkpt lat="41.614602500" lon="2.562583800">
        <ele>294.80</ele>
        <time>2013-03-17T11:32:05Z</time>
      </trkpt>
      <trkpt lat="41.614602500" lon="2.562510100">
        <ele>295.30</ele>
        <time>2013-03-17T11:32:07Z</time>
      </trkpt>
      <trkpt lat="41.614556500" lon="2.562358800">
        <ele>296.70</ele>
        <time>2013-03-17T11:32:17Z</time>
      </trkpt>
      <trkpt lat="41.614498900" lon="2.562237500">
        <ele>298.10</ele>
        <time>2013-03-17T11:32:26Z</time>
      </trkpt>
      <trkpt lat="41.614495800" lon="2.562083800">
        <ele>299.60</ele>
        <time>2013-03-17T11:32:35Z</time>
      </trkpt>
      <trkpt lat="41.614500600" lon="2.562015900">
        <ele>300.10</ele>
        <time>2013-03-17T11:32:40Z</time>
      </trkpt>
      <trkpt lat="41.614529400" lon="2.561855100">
        <ele>301.50</ele>
        <time>2013-03-17T11:32:50Z</time>
      </trkpt>
      <trkpt lat="41.614539500" lon="2.561701400">
        <ele>302.50</ele>
        <time>2013-03-17T11:32:59Z</time>
      </trkpt>
      <trkpt lat="41.614570300" lon="2.561561100">
        <ele>303.40</ele>
        <time>2013-03-17T11:33:06Z</time>
      </trkpt>
      <trkpt lat="41.614576200" lon="2.561526400">
        <ele>303.90</ele>
        <time>2013-03-17T11:33:08Z</time>
      </trkpt>
      <trkpt lat="41.614581200" lon="2.561456900">
        <ele>304.90</ele>
        <time>2013-03-17T11:33:13Z</time>
      </trkpt>
      <trkpt lat="41.614588000" lon="2.561423700">
        <ele>304.90</ele>
        <time>2013-03-17T11:33:15Z</time>
      </trkpt>
      <trkpt lat="41.614588900" lon="2.561296800">
        <ele>304.90</ele>
        <time>2013-03-17T11:33:20Z</time>
      </trkpt>
      <trkpt lat="41.614634700" lon="2.561137800">
        <ele>305.40</ele>
        <time>2013-03-17T11:33:25Z</time>
      </trkpt>
      <trkpt lat="41.614687300" lon="2.560920800">
        <ele>305.40</ele>
        <time>2013-03-17T11:33:34Z</time>
      </trkpt>
      <trkpt lat="41.614703400" lon="2.560739700">
        <ele>305.40</ele>
        <time>2013-03-17T11:33:41Z</time>
      </trkpt>
      <trkpt lat="41.614746800" lon="2.560405200">
        <ele>303.00</ele>
        <time>2013-03-17T11:33:49Z</time>
      </trkpt>
      <trkpt lat="41.614746600" lon="2.560261800">
        <ele>301.50</ele>
        <time>2013-03-17T11:33:53Z</time>
      </trkpt>
      <trkpt lat="41.614752700" lon="2.560063400">
        <ele>300.10</ele>
        <time>2013-03-17T11:33:56Z</time>
      </trkpt>
      <trkpt lat="41.614736100" lon="2.559951900">
        <ele>299.10</ele>
        <time>2013-03-17T11:33:58Z</time>
      </trkpt>
      <trkpt lat="41.614594600" lon="2.559722500">
        <ele>297.70</ele>
        <time>2013-03-17T11:34:03Z</time>
      </trkpt>
      <trkpt lat="41.614439400" lon="2.559555600">
        <ele>297.20</ele>
        <time>2013-03-17T11:34:07Z</time>
      </trkpt>
      <trkpt lat="41.614144400" lon="2.559208700">
        <ele>294.30</ele>
        <time>2013-03-17T11:34:14Z</time>
      </trkpt>
      <trkpt lat="41.613948500" lon="2.558911200">
        <ele>291.40</ele>
        <time>2013-03-17T11:34:19Z</time>
      </trkpt>
      <trkpt lat="41.613696000" lon="2.558504900">
        <ele>288.00</ele>
        <time>2013-03-17T11:34:23Z</time>
      </trkpt>
      <trkpt lat="41.613578200" lon="2.558290000">
        <ele>286.60</ele>
        <time>2013-03-17T11:34:24Z</time>
      </trkpt>
      <trkpt lat="41.613467500" lon="2.558088600">
        <ele>285.60</ele>
        <time>2013-03-17T11:34:26Z</time>
      </trkpt>
      <trkpt lat="41.613317600" lon="2.557790900">
        <ele>284.70</ele>
        <time>2013-03-17T11:34:30Z</time>
      </trkpt>
      <trkpt lat="41.613121000" lon="2.557619900">
        <ele>284.70</ele>
        <time>2013-03-17T11:34:33Z</time>
      </trkpt>
      <trkpt lat="41.612986700" lon="2.557698700">
        <ele>285.20</ele>
        <time>2013-03-17T11:34:38Z</time>
      </trkpt>
      <trkpt lat="41.612697100" lon="2.557727300">
        <ele>286.60</ele>
        <time>2013-03-17T11:34:47Z</time>
      </trkpt>
      <trkpt lat="41.612457000" lon="2.557775900">
        <ele>288.50</ele>
        <time>2013-03-17T11:34:57Z</time>
      </trkpt>
      <trkpt lat="41.612293200" lon="2.557806100">
        <ele>290.50</ele>
        <time>2013-03-17T11:35:04Z</time>
      </trkpt>
      <trkpt lat="41.612083100" lon="2.557842400">
        <ele>292.90</ele>
        <time>2013-03-17T11:35:13Z</time>
      </trkpt>
      <trkpt lat="41.611951600" lon="2.557822500">
        <ele>295.70</ele>
        <time>2013-03-17T11:35:20Z</time>
      </trkpt>
      <trkpt lat="41.611881600" lon="2.557670700">
        <ele>296.20</ele>
        <time>2013-03-17T11:35:27Z</time>
      </trkpt>
      <trkpt lat="41.611844700" lon="2.557497200">
        <ele>298.10</ele>
        <time>2013-03-17T11:35:34Z</time>
      </trkpt>
      <trkpt lat="41.611792000" lon="2.557361600">
        <ele>299.10</ele>
        <time>2013-03-17T11:35:41Z</time>
      </trkpt>
      <trkpt lat="41.611785000" lon="2.557346200">
        <ele>299.60</ele>
        <time>2013-03-17T11:35:43Z</time>
      </trkpt>
      <trkpt lat="41.611717500" lon="2.557176800">
        <ele>301.50</ele>
        <time>2013-03-17T11:35:53Z</time>
      </trkpt>
      <trkpt lat="41.611689000" lon="2.556977100">
        <ele>303.00</ele>
        <time>2013-03-17T11:36:02Z</time>
      </trkpt>
      <trkpt lat="41.611671600" lon="2.556915300">
        <ele>303.00</ele>
        <time>2013-03-17T11:36:05Z</time>
      </trkpt>
      <trkpt lat="41.611648800" lon="2.556844300">
        <ele>303.90</ele>
        <time>2013-03-17T11:36:09Z</time>
      </trkpt>
      <trkpt lat="41.611595700" lon="2.556659900">
        <ele>304.40</ele>
        <time>2013-03-17T11:36:19Z</time>
      </trkpt>
      <trkpt lat="41.611544200" lon="2.556419800">
        <ele>303.00</ele>
        <time>2013-03-17T11:36:26Z</time>
      </trkpt>
      <trkpt lat="41.611527100" lon="2.556323500">
        <ele>302.50</ele>
        <time>2013-03-17T11:36:28Z</time>
      </trkpt>
      <trkpt lat="41.611484100" lon="2.556099600">
        <ele>301.50</ele>
        <time>2013-03-17T11:36:33Z</time>
      </trkpt>
      <trkpt lat="41.611476200" lon="2.555955200">
        <ele>300.50</ele>
        <time>2013-03-17T11:36:35Z</time>
      </trkpt>
      <trkpt lat="41.611500400" lon="2.555708500">
        <ele>298.60</ele>
        <time>2013-03-17T11:36:37Z</time>
      </trkpt>
      <trkpt lat="41.611513600" lon="2.555529400">
        <ele>297.70</ele>
        <time>2013-03-17T11:36:40Z</time>
      </trkpt>
      <trkpt lat="41.611543800" lon="2.555334500">
        <ele>296.70</ele>
        <time>2013-03-17T11:36:42Z</time>
      </trkpt>
      <trkpt lat="41.611631600" lon="2.554956500">
        <ele>294.80</ele>
        <time>2013-03-17T11:36:45Z</time>
      </trkpt>
      <trkpt lat="41.611702800" lon="2.554702300">
        <ele>292.40</ele>
        <time>2013-03-17T11:36:49Z</time>
      </trkpt>
      <trkpt lat="41.611568200" lon="2.554431100">
        <ele>290.90</ele>
        <time>2013-03-17T11:36:54Z</time>
      </trkpt>
      <trkpt lat="41.611540600" lon="2.554362700">
        <ele>290.50</ele>
        <time>2013-03-17T11:36:56Z</time>
      </trkpt>
      <trkpt lat="41.611418300" lon="2.554050900">
        <ele>289.00</ele>
        <time>2013-03-17T11:36:59Z</time>
      </trkpt>
      <trkpt lat="41.611242600" lon="2.553872000">
        <ele>288.00</ele>
        <time>2013-03-17T11:37:03Z</time>
      </trkpt>
      <trkpt lat="41.611078600" lon="2.553822100">
        <ele>287.60</ele>
        <time>2013-03-17T11:37:06Z</time>
      </trkpt>
      <trkpt lat="41.610825700" lon="2.553813500">
        <ele>286.10</ele>
        <time>2013-03-17T11:37:10Z</time>
      </trkpt>
      <trkpt lat="41.610512300" lon="2.553747800">
        <ele>285.20</ele>
        <time>2013-03-17T11:37:15Z</time>
      </trkpt>
      <trkpt lat="41.610139900" lon="2.553764100">
        <ele>285.20</ele>
        <time>2013-03-17T11:37:22Z</time>
      </trkpt>
      <trkpt lat="41.609781200" lon="2.553726600">
        <ele>285.60</ele>
        <time>2013-03-17T11:37:31Z</time>
      </trkpt>
      <trkpt lat="41.609566700" lon="2.553826500">
        <ele>286.60</ele>
        <time>2013-03-17T11:37:38Z</time>
      </trkpt>
      <trkpt lat="41.609348300" lon="2.554016000">
        <ele>286.60</ele>
        <time>2013-03-17T11:37:45Z</time>
      </trkpt>
      <trkpt lat="41.609104700" lon="2.554004300">
        <ele>284.20</ele>
        <time>2013-03-17T11:37:50Z</time>
      </trkpt>
      <trkpt lat="41.609042600" lon="2.553990700">
        <ele>283.20</ele>
        <time>2013-03-17T11:37:50Z</time>
      </trkpt>
      <trkpt lat="41.608903800" lon="2.553965900">
        <ele>281.30</ele>
        <time>2013-03-17T11:37:53Z</time>
      </trkpt>
      <trkpt lat="41.608695400" lon="2.553871000">
        <ele>278.00</ele>
        <time>2013-03-17T11:37:55Z</time>
      </trkpt>
      <trkpt lat="41.608285100" lon="2.553585400">
        <ele>273.60</ele>
        <time>2013-03-17T11:38:00Z</time>
      </trkpt>
      <trkpt lat="41.607872900" lon="2.553304400">
        <ele>270.80</ele>
        <time>2013-03-17T11:38:05Z</time>
      </trkpt>
      <trkpt lat="41.607528600" lon="2.553063000">
        <ele>270.30</ele>
        <time>2013-03-17T11:38:11Z</time>
      </trkpt>
      <trkpt lat="41.607433100" lon="2.552973400">
        <ele>270.30</ele>
        <time>2013-03-17T11:38:12Z</time>
      </trkpt>
      <trkpt lat="41.607246700" lon="2.552901900">
        <ele>271.70</ele>
        <time>2013-03-17T11:38:18Z</time>
      </trkpt>
      <trkpt lat="41.607057800" lon="2.552934400">
        <ele>273.10</ele>
        <time>2013-03-17T11:38:25Z</time>
      </trkpt>
      <trkpt lat="41.606931500" lon="2.552953600">
        <ele>274.10</ele>
        <time>2013-03-17T11:38:30Z</time>
      </trkpt>
      <trkpt lat="41.606872900" lon="2.552968800">
        <ele>274.60</ele>
        <time>2013-03-17T11:38:33Z</time>
      </trkpt>
      <trkpt lat="41.606714500" lon="2.553069500">
        <ele>276.50</ele>
        <time>2013-03-17T11:38:42Z</time>
      </trkpt>
      <trkpt lat="41.606529500" lon="2.553282200">
        <ele>274.10</ele>
        <time>2013-03-17T11:38:49Z</time>
      </trkpt>
      <trkpt lat="41.606357600" lon="2.553384200">
        <ele>272.20</ele>
        <time>2013-03-17T11:38:54Z</time>
      </trkpt>
      <trkpt lat="41.606179400" lon="2.553448900">
        <ele>271.20</ele>
        <time>2013-03-17T11:38:58Z</time>
      </trkpt>
      <trkpt lat="41.605965600" lon="2.553677900">
        <ele>267.90</ele>
        <time>2013-03-17T11:39:03Z</time>
      </trkpt>
      <trkpt lat="41.605872600" lon="2.553690100">
        <ele>267.40</ele>
        <time>2013-03-17T11:39:05Z</time>
      </trkpt>
      <trkpt lat="41.605772900" lon="2.553689100">
        <ele>266.90</ele>
        <time>2013-03-17T11:39:08Z</time>
      </trkpt>
      <trkpt lat="41.605562900" lon="2.553697000">
        <ele>266.40</ele>
        <time>2013-03-17T11:39:12Z</time>
      </trkpt>
      <trkpt lat="41.605391400" lon="2.553672600">
        <ele>265.50</ele>
        <time>2013-03-17T11:39:17Z</time>
      </trkpt>
      <trkpt lat="41.605329600" lon="2.553672300">
        <ele>265.00</ele>
        <time>2013-03-17T11:39:19Z</time>
      </trkpt>
      <trkpt lat="41.605261700" lon="2.553652200">
        <ele>264.50</ele>
        <time>2013-03-17T11:39:26Z</time>
      </trkpt>
      <trkpt lat="41.605254300" lon="2.553632400">
        <ele>264.50</ele>
        <time>2013-03-17T11:39:31Z</time>
      </trkpt>
      <trkpt lat="41.605272200" lon="2.553643500">
        <ele>264.50</ele>
        <time>2013-03-17T11:39:36Z</time>
      </trkpt>
      <trkpt lat="41.605393300" lon="2.553688500">
        <ele>263.50</ele>
        <time>2013-03-17T11:39:43Z</time>
      </trkpt>
      <trkpt lat="41.605525700" lon="2.553714200">
        <ele>263.50</ele>
        <time>2013-03-17T11:39:48Z</time>
      </trkpt>
      <trkpt lat="41.605561300" lon="2.553641500">
        <ele>263.10</ele>
        <time>2013-03-17T11:39:52Z</time>
      </trkpt>
      <trkpt lat="41.605546200" lon="2.553592900">
        <ele>262.10</ele>
        <time>2013-03-17T11:39:55Z</time>
      </trkpt>
      <trkpt lat="41.605451800" lon="2.553399700">
        <ele>259.70</ele>
        <time>2013-03-17T11:40:00Z</time>
      </trkpt>
      <trkpt lat="41.605355900" lon="2.553238100">
        <ele>258.20</ele>
        <time>2013-03-17T11:40:06Z</time>
      </trkpt>
      <trkpt lat="41.605349600" lon="2.553209100">
        <ele>257.80</ele>
        <time>2013-03-17T11:40:09Z</time>
      </trkpt>
      <trkpt lat="41.605333800" lon="2.553187100">
        <ele>257.80</ele>
        <time>2013-03-17T11:40:14Z</time>
      </trkpt>
      <trkpt lat="41.605311000" lon="2.553143900">
        <ele>258.20</ele>
        <time>2013-03-17T11:40:21Z</time>
      </trkpt>
      <trkpt lat="41.605307200" lon="2.553129300">
        <ele>258.20</ele>
        <time>2013-03-17T11:40:27Z</time>
      </trkpt>
      <trkpt lat="41.605306900" lon="2.553058300">
        <ele>256.30</ele>
        <time>2013-03-17T11:40:30Z</time>
      </trkpt>
      <trkpt lat="41.605291900" lon="2.552842600">
        <ele>254.90</ele>
        <time>2013-03-17T11:40:37Z</time>
      </trkpt>
      <trkpt lat="41.605285300" lon="2.552718300">
        <ele>253.40</ele>
        <time>2013-03-17T11:40:42Z</time>
      </trkpt>
      <trkpt lat="41.605271600" lon="2.552673100">
        <ele>253.00</ele>
        <time>2013-03-17T11:40:53Z</time>
      </trkpt>
      <trkpt lat="41.605280800" lon="2.552634100">
        <ele>253.40</ele>
        <time>2013-03-17T11:41:07Z</time>
      </trkpt>
      <trkpt lat="41.605303200" lon="2.552593400">
        <ele>253.90</ele>
        <time>2013-03-17T11:41:26Z</time>
      </trkpt>
      <trkpt lat="41.605302500" lon="2.552591700">
        <ele>253.90</ele>
        <time>2013-03-17T11:41:42Z</time>
      </trkpt>
      <trkpt lat="41.605259000" lon="2.552648000">
        <ele>253.90</ele>
        <time>2013-03-17T11:42:04Z</time>
      </trkpt>
      <trkpt lat="41.605284600" lon="2.552607400">
        <ele>254.40</ele>
        <time>2013-03-17T11:42:18Z</time>
      </trkpt>
      <trkpt lat="41.605280400" lon="2.552601200">
        <ele>254.40</ele>
        <time>2013-03-17T11:42:36Z</time>
      </trkpt>
      <trkpt lat="41.605270200" lon="2.552598900">
        <ele>253.90</ele>
        <time>2013-03-17T11:42:48Z</time>
      </trkpt>
      <trkpt lat="41.605269500" lon="2.552587500">
        <ele>253.90</ele>
        <time>2013-03-17T11:42:51Z</time>
      </trkpt>
      <trkpt lat="41.605301600" lon="2.552478600">
        <ele>251.50</ele>
        <time>2013-03-17T11:42:58Z</time>
      </trkpt>
      <trkpt lat="41.605247500" lon="2.552275000">
        <ele>248.20</ele>
        <time>2013-03-17T11:43:05Z</time>
      </trkpt>
      <trkpt lat="41.605151400" lon="2.551991600">
        <ele>243.40</ele>
        <time>2013-03-17T11:43:12Z</time>
      </trkpt>
      <trkpt lat="41.605038800" lon="2.551885800">
        <ele>239.50</ele>
        <time>2013-03-17T11:43:17Z</time>
      </trkpt>
      <trkpt lat="41.604937100" lon="2.551743500">
        <ele>236.60</ele>
        <time>2013-03-17T11:43:21Z</time>
      </trkpt>
      <trkpt lat="41.604840600" lon="2.551629900">
        <ele>233.70</ele>
        <time>2013-03-17T11:43:24Z</time>
      </trkpt>
      <trkpt lat="41.604636300" lon="2.551345200">
        <ele>230.90</ele>
        <time>2013-03-17T11:43:31Z</time>
      </trkpt>
      <trkpt lat="41.604459200" lon="2.551140600">
        <ele>228.90</ele>
        <time>2013-03-17T11:43:38Z</time>
      </trkpt>
      <trkpt lat="41.604292900" lon="2.550941600">
        <ele>225.10</ele>
        <time>2013-03-17T11:43:42Z</time>
      </trkpt>
      <trkpt lat="41.604191800" lon="2.550761800">
        <ele>221.20</ele>
        <time>2013-03-17T11:43:47Z</time>
      </trkpt>
      <trkpt lat="41.604154200" lon="2.550654200">
        <ele>219.30</ele>
        <time>2013-03-17T11:43:49Z</time>
      </trkpt>
      <trkpt lat="41.604025700" lon="2.550389800">
        <ele>215.90</ele>
        <time>2013-03-17T11:43:54Z</time>
      </trkpt>
      <trkpt lat="41.603984100" lon="2.550297200">
        <ele>214.50</ele>
        <time>2013-03-17T11:43:56Z</time>
      </trkpt>
      <trkpt lat="41.603975800" lon="2.550236700">
        <ele>214.00</ele>
        <time>2013-03-17T11:43:57Z</time>
      </trkpt>
      <trkpt lat="41.604028200" lon="2.550189500">
        <ele>212.10</ele>
        <time>2013-03-17T11:44:01Z</time>
      </trkpt>
      <trkpt lat="41.604084800" lon="2.550196400">
        <ele>211.10</ele>
        <time>2013-03-17T11:44:04Z</time>
      </trkpt>
      <trkpt lat="41.604207000" lon="2.550171600">
        <ele>207.80</ele>
        <time>2013-03-17T11:44:08Z</time>
      </trkpt>
      <trkpt lat="41.604353200" lon="2.550217200">
        <ele>205.40</ele>
        <time>2013-03-17T11:44:13Z</time>
      </trkpt>
      <trkpt lat="41.604464700" lon="2.550260500">
        <ele>203.00</ele>
        <time>2013-03-17T11:44:15Z</time>
      </trkpt>
      <trkpt lat="41.604610600" lon="2.550330300">
        <ele>201.10</ele>
        <time>2013-03-17T11:44:20Z</time>
      </trkpt>
      <trkpt lat="41.604811100" lon="2.550387900">
        <ele>198.20</ele>
        <time>2013-03-17T11:44:25Z</time>
      </trkpt>
      <trkpt lat="41.604861100" lon="2.550372100">
        <ele>197.20</ele>
        <time>2013-03-17T11:44:29Z</time>
      </trkpt>
      <trkpt lat="41.604993000" lon="2.550356000">
        <ele>196.70</ele>
        <time>2013-03-17T11:44:34Z</time>
      </trkpt>
      <trkpt lat="41.605044100" lon="2.550305500">
        <ele>195.30</ele>
        <time>2013-03-17T11:44:37Z</time>
      </trkpt>
      <trkpt lat="41.604999600" lon="2.550142300">
        <ele>192.90</ele>
        <time>2013-03-17T11:44:43Z</time>
      </trkpt>
      <trkpt lat="41.604942100" lon="2.550105500">
        <ele>190.50</ele>
        <time>2013-03-17T11:44:46Z</time>
      </trkpt>
      <trkpt lat="41.604906500" lon="2.550110700">
        <ele>189.00</ele>
        <time>2013-03-17T11:44:48Z</time>
      </trkpt>
      <trkpt lat="41.604894000" lon="2.550137300">
        <ele>188.10</ele>
        <time>2013-03-17T11:44:50Z</time>
      </trkpt>
      <trkpt lat="41.604900400" lon="2.550150600">
        <ele>188.10</ele>
        <time>2013-03-17T11:44:55Z</time>
      </trkpt>
      <trkpt lat="41.604919100" lon="2.550158600">
        <ele>188.60</ele>
        <time>2013-03-17T11:45:04Z</time>
      </trkpt>
      <trkpt lat="41.604948000" lon="2.550185200">
        <ele>189.00</ele>
        <time>2013-03-17T11:45:11Z</time>
      </trkpt>
      <trkpt lat="41.604936700" lon="2.550166200">
        <ele>189.00</ele>
        <time>2013-03-17T11:45:23Z</time>
      </trkpt>
      <trkpt lat="41.604939000" lon="2.550108000">
        <ele>189.00</ele>
        <time>2013-03-17T11:45:42Z</time>
      </trkpt>
      <trkpt lat="41.604929400" lon="2.550094800">
        <ele>189.50</ele>
        <time>2013-03-17T11:45:52Z</time>
      </trkpt>
      <trkpt lat="41.604948200" lon="2.550102100">
        <ele>189.50</ele>
        <time>2013-03-17T11:46:06Z</time>
      </trkpt>
      <trkpt lat="41.604967800" lon="2.550109300">
        <ele>190.00</ele>
        <time>2013-03-17T11:46:17Z</time>
      </trkpt>
      <trkpt lat="41.604964400" lon="2.550104900">
        <ele>190.00</ele>
        <time>2013-03-17T11:46:20Z</time>
      </trkpt>
      <trkpt lat="41.604891000" lon="2.550017400">
        <ele>189.50</ele>
        <time>2013-03-17T11:46:29Z</time>
      </trkpt>
      <trkpt lat="41.604850800" lon="2.549964200">
        <ele>189.50</ele>
        <time>2013-03-17T11:46:38Z</time>
      </trkpt>
      <trkpt lat="41.604868600" lon="2.549937400">
        <ele>189.50</ele>
        <time>2013-03-17T11:46:48Z</time>
      </trkpt>
      <trkpt lat="41.604859100" lon="2.549924100">
        <ele>189.50</ele>
        <time>2013-03-17T11:47:04Z</time>
      </trkpt>
      <trkpt lat="41.604863100" lon="2.549994700">
        <ele>190.00</ele>
        <time>2013-03-17T11:47:11Z</time>
      </trkpt>
      <trkpt lat="41.604864900" lon="2.550005000">
        <ele>190.00</ele>
        <time>2013-03-17T11:47:18Z</time>
      </trkpt>
      <trkpt lat="41.604866200" lon="2.549988500">
        <ele>190.00</ele>
        <time>2013-03-17T11:47:21Z</time>
      </trkpt>
      <trkpt lat="41.604851100" lon="2.550023900">
        <ele>190.00</ele>
        <time>2013-03-17T11:47:26Z</time>
      </trkpt>
      <trkpt lat="41.604923900" lon="2.550060700">
        <ele>190.50</ele>
        <time>2013-03-17T11:47:32Z</time>
      </trkpt>
      <trkpt lat="41.605029000" lon="2.550051300">
        <ele>194.30</ele>
        <time>2013-03-17T11:47:42Z</time>
      </trkpt>
      <trkpt lat="41.605032100" lon="2.550058900">
        <ele>194.30</ele>
        <time>2013-03-17T11:47:42Z</time>
      </trkpt>
      <trkpt lat="41.605065200" lon="2.550184000">
        <ele>195.80</ele>
        <time>2013-03-17T11:47:51Z</time>
      </trkpt>
      <trkpt lat="41.605141900" lon="2.550276900">
        <ele>198.20</ele>
        <time>2013-03-17T11:47:59Z</time>
      </trkpt>
      <trkpt lat="41.605192000" lon="2.550314900">
        <ele>197.70</ele>
        <time>2013-03-17T11:48:03Z</time>
      </trkpt>
      <trkpt lat="41.605246200" lon="2.550257600">
        <ele>198.60</ele>
        <time>2013-03-17T11:48:10Z</time>
      </trkpt>
      <trkpt lat="41.605228000" lon="2.550130800">
        <ele>199.10</ele>
        <time>2013-03-17T11:48:19Z</time>
      </trkpt>
      <trkpt lat="41.605206500" lon="2.550053800">
        <ele>200.10</ele>
        <time>2013-03-17T11:48:24Z</time>
      </trkpt>
      <trkpt lat="41.605203000" lon="2.549950300">
        <ele>201.10</ele>
        <time>2013-03-17T11:48:31Z</time>
      </trkpt>
      <trkpt lat="41.605207900" lon="2.549906200">
        <ele>202.00</ele>
        <time>2013-03-17T11:48:34Z</time>
      </trkpt>
      <trkpt lat="41.605215800" lon="2.549781500">
        <ele>203.50</ele>
        <time>2013-03-17T11:48:41Z</time>
      </trkpt>
      <trkpt lat="41.605217200" lon="2.549663100">
        <ele>204.40</ele>
        <time>2013-03-17T11:48:48Z</time>
      </trkpt>
      <trkpt lat="41.605207000" lon="2.549509400">
        <ele>205.90</ele>
        <time>2013-03-17T11:48:57Z</time>
      </trkpt>
      <trkpt lat="41.605196200" lon="2.549430200">
        <ele>206.30</ele>
        <time>2013-03-17T11:49:02Z</time>
      </trkpt>
      <trkpt lat="41.605179500" lon="2.549273200">
        <ele>207.80</ele>
        <time>2013-03-17T11:49:11Z</time>
      </trkpt>
      <trkpt lat="41.605186100" lon="2.549127200">
        <ele>208.70</ele>
        <time>2013-03-17T11:49:21Z</time>
      </trkpt>
      <trkpt lat="41.605230000" lon="2.549034100">
        <ele>209.20</ele>
        <time>2013-03-17T11:49:28Z</time>
      </trkpt>
      <trkpt lat="41.605281900" lon="2.548955200">
        <ele>210.20</ele>
        <time>2013-03-17T11:49:37Z</time>
      </trkpt>
      <trkpt lat="41.605305200" lon="2.548930200">
        <ele>210.20</ele>
        <time>2013-03-17T11:49:44Z</time>
      </trkpt>
      <trkpt lat="41.605416000" lon="2.548838200">
        <ele>211.60</ele>
        <time>2013-03-17T11:49:53Z</time>
      </trkpt>
      <trkpt lat="41.605429000" lon="2.548834000">
        <ele>211.60</ele>
        <time>2013-03-17T11:49:54Z</time>
      </trkpt>
      <trkpt lat="41.605568400" lon="2.548847600">
        <ele>213.10</ele>
        <time>2013-03-17T11:50:05Z</time>
      </trkpt>
      <trkpt lat="41.605682600" lon="2.548873700">
        <ele>214.50</ele>
        <time>2013-03-17T11:50:12Z</time>
      </trkpt>
      <trkpt lat="41.605804000" lon="2.548856300">
        <ele>216.40</ele>
        <time>2013-03-17T11:50:21Z</time>
      </trkpt>
      <trkpt lat="41.605934200" lon="2.548801100">
        <ele>217.40</ele>
        <time>2013-03-17T11:50:29Z</time>
      </trkpt>
      <trkpt lat="41.605966700" lon="2.548807900">
        <ele>217.90</ele>
        <time>2013-03-17T11:50:31Z</time>
      </trkpt>
      <trkpt lat="41.606070100" lon="2.548769900">
        <ele>218.40</ele>
        <time>2013-03-17T11:50:40Z</time>
      </trkpt>
      <trkpt lat="41.606123200" lon="2.548723200">
        <ele>219.80</ele>
        <time>2013-03-17T11:50:43Z</time>
      </trkpt>
      <trkpt lat="41.606203700" lon="2.548626300">
        <ele>219.80</ele>
        <time>2013-03-17T11:50:50Z</time>
      </trkpt>
      <trkpt lat="41.606256000" lon="2.548567800">
        <ele>219.80</ele>
        <time>2013-03-17T11:50:57Z</time>
      </trkpt>
      <trkpt lat="41.606285800" lon="2.548554400">
        <ele>220.80</ele>
        <time>2013-03-17T11:51:08Z</time>
      </trkpt>
      <trkpt lat="41.606331100" lon="2.548518100">
        <ele>221.20</ele>
        <time>2013-03-17T11:51:16Z</time>
      </trkpt>
      <trkpt lat="41.606350300" lon="2.548479600">
        <ele>222.20</ele>
        <time>2013-03-17T11:51:25Z</time>
      </trkpt>
      <trkpt lat="41.606353200" lon="2.548463400">
        <ele>222.20</ele>
        <time>2013-03-17T11:51:25Z</time>
      </trkpt>
      <trkpt lat="41.606332200" lon="2.548275300">
        <ele>224.10</ele>
        <time>2013-03-17T11:51:36Z</time>
      </trkpt>
      <trkpt lat="41.606355800" lon="2.548094800">
        <ele>225.60</ele>
        <time>2013-03-17T11:51:44Z</time>
      </trkpt>
      <trkpt lat="41.606361400" lon="2.548078200">
        <ele>225.60</ele>
        <time>2013-03-17T11:51:46Z</time>
      </trkpt>
      <trkpt lat="41.606325100" lon="2.547954400">
        <ele>224.60</ele>
        <time>2013-03-17T11:51:51Z</time>
      </trkpt>
      <trkpt lat="41.606298800" lon="2.547852400">
        <ele>223.60</ele>
        <time>2013-03-17T11:51:53Z</time>
      </trkpt>
      <trkpt lat="41.606320100" lon="2.547526800">
        <ele>220.80</ele>
        <time>2013-03-17T11:51:58Z</time>
      </trkpt>
      <trkpt lat="41.606332900" lon="2.547489200">
        <ele>219.80</ele>
        <time>2013-03-17T11:52:00Z</time>
      </trkpt>
      <trkpt lat="41.606379400" lon="2.547406600">
        <ele>218.80</ele>
        <time>2013-03-17T11:52:02Z</time>
      </trkpt>
      <trkpt lat="41.606552400" lon="2.547372500">
        <ele>215.90</ele>
        <time>2013-03-17T11:52:07Z</time>
      </trkpt>
      <trkpt lat="41.606880400" lon="2.547268100">
        <ele>212.10</ele>
        <time>2013-03-17T11:52:12Z</time>
      </trkpt>
      <trkpt lat="41.606993400" lon="2.547250100">
        <ele>210.20</ele>
        <time>2013-03-17T11:52:16Z</time>
      </trkpt>
      <trkpt lat="41.607041000" lon="2.547213800">
        <ele>209.20</ele>
        <time>2013-03-17T11:52:19Z</time>
      </trkpt>
      <trkpt lat="41.607006300" lon="2.547097100">
        <ele>206.80</ele>
        <time>2013-03-17T11:52:24Z</time>
      </trkpt>
      <trkpt lat="41.606882900" lon="2.547068700">
        <ele>205.40</ele>
        <time>2013-03-17T11:52:28Z</time>
      </trkpt>
      <trkpt lat="41.606795000" lon="2.547087400">
        <ele>203.90</ele>
        <time>2013-03-17T11:52:31Z</time>
      </trkpt>
      <trkpt lat="41.606698800" lon="2.547006800">
        <ele>202.50</ele>
        <time>2013-03-17T11:52:35Z</time>
      </trkpt>
      <trkpt lat="41.606640200" lon="2.546891900">
        <ele>201.50</ele>
        <time>2013-03-17T11:52:40Z</time>
      </trkpt>
      <trkpt lat="41.606596200" lon="2.546749600">
        <ele>200.10</ele>
        <time>2013-03-17T11:52:43Z</time>
      </trkpt>
      <trkpt lat="41.606435300" lon="2.546619500">
        <ele>198.20</ele>
        <time>2013-03-17T11:52:49Z</time>
      </trkpt>
      <trkpt lat="41.606323000" lon="2.546416300">
        <ele>194.80</ele>
        <time>2013-03-17T11:52:54Z</time>
      </trkpt>
      <trkpt lat="41.606306400" lon="2.546260400">
        <ele>192.90</ele>
        <time>2013-03-17T11:52:59Z</time>
      </trkpt>
      <trkpt lat="41.606297800" lon="2.546212000">
        <ele>192.40</ele>
        <time>2013-03-17T11:52:59Z</time>
      </trkpt>
      <trkpt lat="41.606159400" lon="2.546097500">
        <ele>190.00</ele>
        <time>2013-03-17T11:53:04Z</time>
      </trkpt>
      <trkpt lat="41.605985700" lon="2.546046300">
        <ele>188.10</ele>
        <time>2013-03-17T11:53:08Z</time>
      </trkpt>
      <trkpt lat="41.605853400" lon="2.545886100">
        <ele>186.60</ele>
        <time>2013-03-17T11:53:13Z</time>
      </trkpt>
      <trkpt lat="41.605760600" lon="2.545782800">
        <ele>184.70</ele>
        <time>2013-03-17T11:53:17Z</time>
      </trkpt>
      <trkpt lat="41.605583800" lon="2.545566200">
        <ele>182.80</ele>
        <time>2013-03-17T11:53:22Z</time>
      </trkpt>
      <trkpt lat="41.605543500" lon="2.545517200">
        <ele>181.80</ele>
        <time>2013-03-17T11:53:22Z</time>
      </trkpt>
      <trkpt lat="41.605417600" lon="2.545390500">
        <ele>179.40</ele>
        <time>2013-03-17T11:53:27Z</time>
      </trkpt>
      <trkpt lat="41.605439300" lon="2.545315300">
        <ele>177.50</ele>
        <time>2013-03-17T11:53:30Z</time>
      </trkpt>
      <trkpt lat="41.605468600" lon="2.545318800">
        <ele>177.00</ele>
        <time>2013-03-17T11:53:32Z</time>
      </trkpt>
      <trkpt lat="41.605612000" lon="2.545310000">
        <ele>174.60</ele>
        <time>2013-03-17T11:53:36Z</time>
      </trkpt>
      <trkpt lat="41.605797200" lon="2.545287700">
        <ele>170.30</ele>
        <time>2013-03-17T11:53:41Z</time>
      </trkpt>
      <trkpt lat="41.605920100" lon="2.545313900">
        <ele>167.90</ele>
        <time>2013-03-17T11:53:44Z</time>
      </trkpt>
      <trkpt lat="41.606102800" lon="2.545283000">
        <ele>164.00</ele>
        <time>2013-03-17T11:53:50Z</time>
      </trkpt>
      <trkpt lat="41.606252600" lon="2.545216000">
        <ele>163.10</ele>
        <time>2013-03-17T11:53:55Z</time>
      </trkpt>
      <trkpt lat="41.606342900" lon="2.545175800">
        <ele>163.10</ele>
        <time>2013-03-17T11:54:00Z</time>
      </trkpt>
      <trkpt lat="41.606372500" lon="2.545124600">
        <ele>163.10</ele>
        <time>2013-03-17T11:54:02Z</time>
      </trkpt>
      <trkpt lat="41.606307500" lon="2.544922800">
        <ele>160.20</ele>
        <time>2013-03-17T11:54:07Z</time>
      </trkpt>
      <trkpt lat="41.606219900" lon="2.544730100">
        <ele>156.80</ele>
        <time>2013-03-17T11:54:11Z</time>
      </trkpt>
      <trkpt lat="41.606168600" lon="2.544605000">
        <ele>154.90</ele>
        <time>2013-03-17T11:54:12Z</time>
      </trkpt>
      <trkpt lat="41.606105800" lon="2.544416700">
        <ele>152.00</ele>
        <time>2013-03-17T11:54:16Z</time>
      </trkpt>
      <trkpt lat="41.605989200" lon="2.544171900">
        <ele>148.20</ele>
        <time>2013-03-17T11:54:19Z</time>
      </trkpt>
      <trkpt lat="41.605860300" lon="2.543863200">
        <ele>144.30</ele>
        <time>2013-03-17T11:54:23Z</time>
      </trkpt>
      <trkpt lat="41.605718600" lon="2.543606500">
        <ele>140.00</ele>
        <time>2013-03-17T11:54:28Z</time>
      </trkpt>
      <trkpt lat="41.605576900" lon="2.543445600">
        <ele>136.60</ele>
        <time>2013-03-17T11:54:31Z</time>
      </trkpt>
      <trkpt lat="41.605472400" lon="2.543333700">
        <ele>134.70</ele>
        <time>2013-03-17T11:54:35Z</time>
      </trkpt>
      <trkpt lat="41.605251400" lon="2.542954200">
        <ele>131.40</ele>
        <time>2013-03-17T11:54:40Z</time>
      </trkpt>
      <trkpt lat="41.605212500" lon="2.542881800">
        <ele>130.40</ele>
        <time>2013-03-17T11:54:40Z</time>
      </trkpt>
      <trkpt lat="41.605076300" lon="2.542400700">
        <ele>126.60</ele>
        <time>2013-03-17T11:54:47Z</time>
      </trkpt>
      <trkpt lat="41.605032700" lon="2.542241100">
        <ele>124.60</ele>
        <time>2013-03-17T11:54:51Z</time>
      </trkpt>
      <trkpt lat="41.605024500" lon="2.542185900">
        <ele>124.60</ele>
        <time>2013-03-17T11:54:52Z</time>
      </trkpt>
      <trkpt lat="41.604996000" lon="2.541920000">
        <ele>123.20</ele>
        <time>2013-03-17T11:54:56Z</time>
      </trkpt>
      <trkpt lat="41.604974700" lon="2.541781100">
        <ele>122.20</ele>
        <time>2013-03-17T11:54:58Z</time>
      </trkpt>
      <trkpt lat="41.604905800" lon="2.541506200">
        <ele>119.80</ele>
        <time>2013-03-17T11:55:01Z</time>
      </trkpt>
      <trkpt lat="41.604831000" lon="2.541221400">
        <ele>118.40</ele>
        <time>2013-03-17T11:55:06Z</time>
      </trkpt>
      <trkpt lat="41.604739300" lon="2.540835100">
        <ele>115.50</ele>
        <time>2013-03-17T11:55:13Z</time>
      </trkpt>
      <trkpt lat="41.604703200" lon="2.540674400">
        <ele>114.50</ele>
        <time>2013-03-17T11:55:17Z</time>
      </trkpt>
      <trkpt lat="41.604684100" lon="2.540519400">
        <ele>113.60</ele>
        <time>2013-03-17T11:55:24Z</time>
      </trkpt>
      <trkpt lat="41.604677500" lon="2.540517700">
        <ele>114.10</ele>
        <time>2013-03-17T11:55:32Z</time>
      </trkpt>
      <trkpt lat="41.604672700" lon="2.540527200">
        <ele>113.60</ele>
        <time>2013-03-17T11:55:46Z</time>
      </trkpt>
      <trkpt lat="41.604676200" lon="2.540510200">
        <ele>114.10</ele>
        <time>2013-03-17T11:56:00Z</time>
      </trkpt>
      <trkpt lat="41.604690700" lon="2.540487800">
        <ele>113.60</ele>
        <time>2013-03-17T11:56:04Z</time>
      </trkpt>
      <trkpt lat="41.604731600" lon="2.540459800">
        <ele>113.60</ele>
        <time>2013-03-17T11:56:09Z</time>
      </trkpt>
      <trkpt lat="41.604782000" lon="2.540460000">
        <ele>114.10</ele>
        <time>2013-03-17T11:56:12Z</time>
      </trkpt>
      <trkpt lat="41.604850900" lon="2.540456200">
        <ele>114.50</ele>
        <time>2013-03-17T11:56:16Z</time>
      </trkpt>
      <trkpt lat="41.605068000" lon="2.540460100">
        <ele>115.00</ele>
        <time>2013-03-17T11:56:26Z</time>
      </trkpt>
      <trkpt lat="41.605154000" lon="2.540462200">
        <ele>115.50</ele>
        <time>2013-03-17T11:56:30Z</time>
      </trkpt>
      <trkpt lat="41.605337900" lon="2.540415900">
        <ele>116.50</ele>
        <time>2013-03-17T11:56:39Z</time>
      </trkpt>
      <trkpt lat="41.605526300" lon="2.540450000">
        <ele>116.90</ele>
        <time>2013-03-17T11:56:47Z</time>
      </trkpt>
      <trkpt lat="41.605689700" lon="2.540461400">
        <ele>117.40</ele>
        <time>2013-03-17T11:56:54Z</time>
      </trkpt>
      <trkpt lat="41.605811300" lon="2.540447800">
        <ele>117.90</ele>
        <time>2013-03-17T11:57:01Z</time>
      </trkpt>
      <trkpt lat="41.605978400" lon="2.540517400">
        <ele>118.90</ele>
        <time>2013-03-17T11:57:08Z</time>
      </trkpt>
      <trkpt lat="41.606112300" lon="2.540598900">
        <ele>118.90</ele>
        <time>2013-03-17T11:57:15Z</time>
      </trkpt>
      <trkpt lat="41.606339500" lon="2.540632400">
        <ele>119.80</ele>
        <time>2013-03-17T11:57:24Z</time>
      </trkpt>
      <trkpt lat="41.606458600" lon="2.540687300">
        <ele>120.30</ele>
        <time>2013-03-17T11:57:29Z</time>
      </trkpt>
      <trkpt lat="41.606583900" lon="2.540886600">
        <ele>121.30</ele>
        <time>2013-03-17T11:57:38Z</time>
      </trkpt>
      <trkpt lat="41.606634900" lon="2.541104800">
        <ele>122.70</ele>
        <time>2013-03-17T11:57:45Z</time>
      </trkpt>
      <trkpt lat="41.606694100" lon="2.541327200">
        <ele>123.70</ele>
        <time>2013-03-17T11:57:52Z</time>
      </trkpt>
      <trkpt lat="41.606748600" lon="2.541521300">
        <ele>125.10</ele>
        <time>2013-03-17T11:57:59Z</time>
      </trkpt>
      <trkpt lat="41.606831700" lon="2.541771300">
        <ele>126.10</ele>
        <time>2013-03-17T11:58:09Z</time>
      </trkpt>
      <trkpt lat="41.606936300" lon="2.541995300">
        <ele>127.50</ele>
        <time>2013-03-17T11:58:18Z</time>
      </trkpt>
      <trkpt lat="41.606989800" lon="2.542177600">
        <ele>128.90</ele>
        <time>2013-03-17T11:58:25Z</time>
      </trkpt>
      <trkpt lat="41.607069200" lon="2.542318800">
        <ele>129.90</ele>
        <time>2013-03-17T11:58:32Z</time>
      </trkpt>
      <trkpt lat="41.607086100" lon="2.542351600">
        <ele>129.90</ele>
        <time>2013-03-17T11:58:37Z</time>
      </trkpt>
      <trkpt lat="41.607110200" lon="2.542354600">
        <ele>130.40</ele>
        <time>2013-03-17T11:58:46Z</time>
      </trkpt>
      <trkpt lat="41.607094300" lon="2.542379800">
        <ele>130.90</ele>
        <time>2013-03-17T11:59:00Z</time>
      </trkpt>
      <trkpt lat="41.607098500" lon="2.542398500">
        <ele>130.90</ele>
        <time>2013-03-17T11:59:10Z</time>
      </trkpt>
      <trkpt lat="41.607108400" lon="2.542419200">
        <ele>130.90</ele>
        <time>2013-03-17T11:59:26Z</time>
      </trkpt>
    </trkseg>
  </trk>
</gpx>
